[[{"header":{"parameterUnit":"m.s-1","parameterCategory":1,"la1":31.0,"la2":29.5877,"lo1":-88.7671,"lo2":-86.6584,"dy":0.0162,"dx":0.0185,"nx":115,"ny":88,"refTime":"2024-03-04T06:00:00:Z","depth":0,"parameterNumber":2,"parameterNumberName":"U-component_of_WINDS"},"data":[0.0,0.0,0.0,0.0,0.0,0.0,0.0,0.0,0.0,0.0,0.0,0.0,0.0,0.0,0.0,0.0,0.0,0.0,0.0,0.0,0.0,0.0,0.0,0.0,0.0,0.0,0.0,0.0,0.0,0.0,0.0,0.0,0.0,0.0,0.0,0.0,0.0,0.0,0.0,0.0,0.0,0.0,0.0,0.0,0.0,0.0,0.0,0.0,0.0,0.0,0.0,0.0,0.0,0.0,0.0,0.0,0.0,0.0,0.0,0.0,0.0,0.0,0.0,0.0,0.0,0.0,0.0,0.0,0.0,0.0,0.0,0.0,0.0,0.0,0.0,0.0,0.0,0.0,0.0,0.0,0.0,0.0,0.0,0.0,0.0,0.0,0.0,0.0,0.0,0.0,0.0,0.0,0.0,0.0,0.0,0.0,0.0,0.0,0.0,0.0,0.0,0.0,0.0,0.0,0.0,0.0,0.0,0.0,0.0,0.0,0.0,0.0,0.0,0.0,0.0,0.0,0.0,0.0,0.0,0.0,0.0,0.0,0.0,0.0,0.0,0.0,0.0,0.0,0.0,0.0,0.0,0.0,0.0,0.0,0.0,0.0,0.0,0.0,0.0,0.0,0.0,0.0,0.0,0.0,0.0,0.0,0.0,0.0,0.0,0.0,0.0,0.0,0.0,0.0,0.0,0.0,0.0,0.0,0.0,0.0,0.0,0.0,0.0,0.0,0.0,0.0,0.0,0.0,0.0,0.0,0.0,0.0,0.0,0.0,0.0,0.0,0.0,0.0,0.0,0.0,0.0,0.0,0.0,0.0,0.0,0.0,0.0,0.0,0.0,0.0,0.0,0.0,0.0,0.0,0.0,0.0,0.0,0.0,0.0,0.0,0.0,0.0,0.0,0.0,0.0,0.0,0.0,0.0,0.0,0.0,0.0,0.0,0.0,0.0,0.0,0.0,0.0,0.0,0.0,0.0,0.0,0.0,0.0,0.0,0.0,0.0,0.0,0.0,0.0,0.0,0.0,0.0,0.0,0.0,0.0,0.0,0.0,0.0,0.0,0.0,0.0,0.0,0.0,0.0,0.0,0.0,0.0,0.0,0.0,0.0,0.0,0.0,0.0,0.0,0.0,0.0,0.0,0.0,0.0,0.0,0.0,0.0,0.0,0.0,0.0,0.0,0.0,0.0,0.0,0.0,0.0,0.0,0.0,0.0,0.0,0.0,0.0,0.0,0.0,0.0,0.0,0.0,0.0,0.0,0.0,0.0,0.0,0.0,0.0,0.0,0.0,0.0,0.0,0.0,0.0,0.0,0.0,0.0,0.0,0.0,0.0,0.0,0.0,0.0,0.0,0.0,0.0,0.0,0.0,0.0,0.0,0.0,0.0,0.0,0.0,0.0,0.0,0.0,0.0,0.0,0.0,0.0,0.0,0.0,0.0,0.0,0.0,0.0,0.0,0.0,0.0,0.0,0.0,0.0,0.0,0.0,0.0,0.0,0.0,0.0,0.0,0.0,0.0,0.0,0.0,0.0,0.0,0.0,0.0,0.0,0.0,0.0,0.0,0.0,0.0,0.0,0.0,0.0,0.0,0.0,0.0,0.0,0.0,0.0,0.0,0.0,0.0,0.0,0.0,0.0,0.0,0.0,0.0,0.0,0.0,0.0,0.0,0.0,0.0,0.0,0.0,0.0,0.0,0.0,0.0,0.0,0.0,0.0,0.0,0.0,0.0,0.0,0.0,0.0,0.0,0.0,0.0,0.0,0.0,0.0,0.0,0.0,0.0,0.0,0.0,0.0,0.0,0.0,0.0,0.0,0.0,0.0,0.0,0.0,0.0,0.0,0.0,0.0,0.0,0.0,0.0,0.0,0.0,0.0,0.0,0.0,0.0,0.0,0.0,0.0,0.0,0.0,0.0,0.0,0.0,0.0,0.0,0.0,0.0,0.0,0.0,0.0,0.0,0.0,0.0,0.0,0.0,0.0,0.0,0.0,0.0,0.0,0.0,0.0,0.0,0.0,0.0,0.0,0.0,0.0,0.0,0.0,0.0,0.0,0.0,0.0,0.0,0.0,0.0,0.0,0.0,0.0,0.0,0.0,0.0,0.0,0.0,0.0,0.0,0.0,0.0,0.0,0.0,0.0,0.0,0.0,0.0,0.0,0.0,0.0,0.0,0.0,0.0,0.0,0.0,0.0,0.0,0.0,0.0,0.0,0.0,0.0,0.0,0.0,0.0,0.0,0.0,0.0,0.0,0.0,0.0,0.0,0.0,0.0,0.0,0.0,0.0,0.0,0.0,0.0,0.0,0.0,0.0,0.0,0.0,0.0,0.0,0.0,0.0,0.0,0.0,0.0,0.0,0.0,0.0,0.0,0.0,0.0,0.0,0.0,0.0,0.0,0.0,0.0,0.0,0.0,0.0,0.0,0.0,0.0,0.0,0.0,0.0,0.0,0.0,0.0,0.0,0.0,0.0,0.0,0.0,0.0,0.0,0.0,0.0,0.0,0.0,0.0,0.0,0.0,0.0,0.0,0.0,0.0,0.0,0.0,0.0,0.0,0.0,0.0,0.0,0.0,0.0,0.0,0.0,0.0,0.0,0.0,0.0,0.0,0.0,0.0,0.0,0.0,0.0,0.0,0.0,0.0,0.0,0.0,0.0,0.0,0.0,0.0,0.0,0.0,0.0,0.0,0.0,0.0,0.0,0.0,0.0,0.0,0.0,0.0,0.0,0.0,0.0,0.0,0.0,0.0,0.0,0.0,0.0,0.0,0.0,0.0,0.0,0.0,0.0,0.0,0.0,0.0,0.0,0.0,0.0,0.0,0.0,0.0,0.0,0.0,0.0,0.0,0.0,0.0,0.0,0.0,0.0,0.0,0.0,0.0,0.0,0.0,0.0,0.0,0.0,0.0,0.0,0.0,0.0,0.0,0.0,0.0,0.0,0.0,0.0,0.0,0.0,0.0,0.0,0.0,0.0,0.0,0.0,0.0,0.0,0.0,0.0,0.0,0.0,0.0,0.0,0.0,0.0,0.0,0.0,0.0,0.0,0.0,0.0,0.0,0.0,0.0,0.0,0.0,0.0,0.0,0.0,0.0,0.0,0.0,0.0,0.0,0.0,0.0,0.0,0.0,0.0,0.0,0.0,0.0,0.0,0.0,0.0,0.0,0.0,0.0,0.0,0.0,0.0,0.0,0.0,0.0,0.0,0.0,0.0,0.0,0.0,0.0,0.0,0.0,0.0,0.0,0.0,0.0,0.0,0.0,0.0,0.0,0.0,0.0,0.0,0.0,0.0,0.0,0.0,0.0,0.0,0.0,0.0,0.0,0.0,0.0,0.0,0.0,0.0,0.0,0.0,0.0,0.0,0.0,0.0,0.0,0.0,0.0,0.0,0.0,0.0,0.0,0.0,0.0,0.0,0.0,0.0,0.0,0.0,0.0,0.0,0.0,0.0,0.0,0.0,0.0,0.0,0.0,0.0,0.0,0.0,0.0,0.0,0.0,0.0,0.0,0.0,0.0,0.0,0.0,0.0,0.0,0.0,0.0,0.0,0.0,0.0,0.0,0.0,0.0,0.0,0.0,0.0,0.0,0.0,0.0,0.0,0.0,0.0,0.0,0.0,0.0,0.0,0.0,0.0,0.0,0.0,0.0,0.0,0.0,0.0,0.0,0.0,0.0,0.0,0.0,0.0,0.0,0.0,0.0,0.0,0.0,0.0,0.0,0.0,0.0,0.0,0.0,0.0,0.0,0.0,0.0,0.0,0.0,0.0,0.0,0.0,0.0,0.0,0.0,0.0,0.0,0.0,0.0,0.0,0.0,0.0,0.0,0.0,0.0,0.0,0.0,0.0,0.0,0.0,0.0,0.0,0.0,0.0,0.0,0.0,0.0,0.0,0.0,0.0,0.0,0.0,0.0,0.0,0.0,0.0,0.0,0.0,0.0,0.0,0.0,0.0,0.0,0.0,0.0,0.0,0.0,0.0,0.0,0.0,0.0,0.0,0.0,0.0,0.0,0.0,0.0,0.0,0.0,0.0,0.0,0.0,0.0,0.0,0.0,0.0,0.0,0.0,0.0,0.0,0.0,0.0,0.0,0.0,0.0,0.0,0.0,0.0,0.0,0.0,0.0,0.0,0.0,0.0,0.0,0.0,0.0,0.0,0.0,0.0,0.0,0.0,0.0,0.0,0.0,0.0,0.0,0.0,0.0,0.0,0.0,0.0,0.0,0.0,0.0,0.0,0.0,0.0,0.0,0.0,0.0,0.0,0.0,-0.9053,0.0,0.0,0.0,0.0,0.0,0.0,0.0,0.0,0.0,0.0,0.0,0.0,0.0,0.0,0.0,0.0,0.0,0.0,0.0,0.0,0.0,0.0,0.0,0.0,0.0,0.0,0.0,0.0,0.0,0.0,0.0,0.0,0.0,0.0,0.0,0.0,0.0,0.0,0.0,0.0,0.0,0.0,0.0,0.0,0.0,0.0,0.0,0.0,0.0,0.0,0.0,0.0,0.0,0.0,0.0,0.0,0.0,0.0,0.0,0.0,0.0,0.0,0.0,0.0,0.0,0.0,0.0,0.0,0.0,0.0,0.0,0.0,0.0,0.0,0.0,0.0,0.0,0.0,0.0,0.0,0.0,0.0,0.0,0.0,0.0,0.0,0.0,0.0,0.0,0.0,0.0,0.0,0.0,0.0,0.0,0.0,0.0,0.0,0.0,0.0,0.0,0.0,0.0,0.0,0.0,0.0,0.0,0.0,0.0,0.0,-0.8808,-0.9018,-0.8996,-0.9046,-0.92,0.0,0.0,0.0,0.0,0.0,0.0,0.0,0.0,0.0,0.0,0.0,0.0,0.0,0.0,0.0,0.0,0.0,0.0,0.0,0.0,0.0,0.0,0.0,0.0,0.0,0.0,0.0,0.0,0.0,0.0,0.0,0.0,0.0,0.0,0.0,0.0,0.0,0.0,0.0,0.0,0.0,0.0,0.0,0.0,0.0,0.0,0.0,0.0,0.0,0.0,0.0,0.0,0.0,0.0,0.0,0.0,0.0,0.0,0.0,0.0,0.0,0.0,0.0,0.0,0.0,0.0,0.0,0.0,0.0,0.0,0.0,0.0,0.0,0.0,0.0,0.0,0.0,0.0,0.0,0.0,0.0,0.0,0.0,0.0,0.0,0.0,0.0,0.0,0.0,0.0,0.0,0.0,0.0,0.0,0.0,0.0,0.0,0.0,0.0,0.0,0.0,0.0,0.0,0.0,0.0,0.0,0.0,0.0,0.0,0.0,0.0,0.0,-0.9265,-0.9265,-0.9305,0.0,0.0,0.0,0.0,0.0,0.0,0.0,0.0,0.0,0.0,0.0,0.0,0.0,0.0,0.0,0.0,0.0,0.0,0.0,0.0,0.0,0.0,0.0,0.0,0.0,0.0,0.0,0.0,0.0,0.0,0.0,0.0,0.0,0.0,0.0,0.0,0.0,0.0,0.0,0.0,0.0,0.0,0.0,0.0,0.0,0.0,0.0,0.0,0.0,0.0,0.0,0.0,0.0,0.0,0.0,0.0,0.0,0.0,0.0,0.0,0.0,0.0,0.0,0.0,0.0,0.0,0.0,0.0,0.0,0.0,0.0,0.0,0.0,0.0,0.0,0.0,0.0,0.0,0.0,0.0,0.0,0.0,0.0,0.0,0.0,0.0,0.0,0.0,0.0,0.0,0.0,0.0,0.0,0.0,0.0,0.0,0.0,0.0,0.0,0.0,0.0,0.0,0.0,0.0,0.0,0.0,0.0,0.0,0.0,0.0,-0.9406,-0.9557,-0.9448,0.0,-0.956,0.0,0.0,0.0,0.0,0.0,0.0,0.0,0.0,0.0,0.0,0.0,0.0,0.0,0.0,0.0,0.0,0.0,0.0,0.0,0.0,0.0,0.0,0.0,0.0,0.0,0.0,0.0,0.0,0.0,0.0,0.0,0.0,0.0,0.0,0.0,0.0,0.0,0.0,0.0,0.0,0.0,0.0,0.0,0.0,0.0,0.0,0.0,0.0,0.0,0.0,0.0,0.0,0.0,0.0,0.0,0.0,0.0,0.0,0.0,0.0,0.0,0.0,0.0,0.0,0.0,0.0,0.0,0.0,0.0,0.0,0.0,0.0,0.0,0.0,0.0,0.0,0.0,0.0,0.0,0.0,0.0,0.0,0.0,0.0,0.0,0.0,0.0,0.0,0.0,0.0,0.0,0.0,0.0,0.0,0.0,0.0,0.0,0.0,0.0,0.0,0.0,0.0,0.0,0.0,0.0,0.0,0.0,0.0,0.0,0.0,-0.9426,-0.9478,-0.9497,-0.9543,0.0,0.0,0.0,0.0,0.0,0.0,0.0,0.0,0.0,0.0,0.0,0.0,0.0,0.0,0.0,0.0,0.0,0.0,0.0,0.0,0.0,0.0,0.0,0.0,0.0,0.0,0.0,0.0,0.0,0.0,0.0,0.0,0.0,0.0,0.0,0.0,0.0,0.0,0.0,0.0,0.0,0.0,0.0,0.0,0.0,0.0,0.0,0.0,0.0,0.0,0.0,0.0,0.0,0.0,0.0,0.0,0.0,0.0,0.0,0.0,0.0,0.0,0.0,0.0,0.0,0.0,0.0,0.0,0.0,0.0,0.0,0.0,0.0,0.0,0.0,0.0,0.0,0.0,0.0,0.0,0.0,0.0,0.0,0.0,0.0,0.0,0.0,0.0,0.0,0.0,0.0,0.0,0.0,0.0,0.0,0.0,0.0,0.0,0.0,0.0,0.0,0.0,0.0,0.0,0.0,0.0,0.0,0.0,0.0,0.0,-0.9322,-0.9296,-0.929,-0.9458,-0.9556,-0.9543,0.0,0.0,0.0,0.0,0.0,0.0,0.0,0.0,0.0,0.0,0.0,0.0,0.0,0.0,0.0,0.0,0.0,0.0,0.0,0.0,0.0,0.0,0.0,0.0,0.0,0.0,0.0,0.0,0.0,0.0,0.0,0.0,0.0,0.0,0.0,0.0,0.0,0.0,0.0,0.0,0.0,0.0,0.0,0.0,0.0,0.0,0.0,0.0,0.0,0.0,0.0,0.0,0.0,0.0,0.0,0.0,0.0,0.0,0.0,0.0,0.0,0.0,0.0,0.0,0.0,0.0,0.0,0.0,0.0,0.0,0.0,0.0,0.0,0.0,0.0,0.0,0.0,0.0,0.0,0.0,0.0,0.0,0.0,0.0,0.0,0.0,0.0,0.0,0.0,0.0,0.0,0.0,0.0,0.0,0.0,0.0,0.0,0.0,0.0,0.0,0.0,0.0,0.0,0.0,0.0,0.0,0.0,0.0,-0.938,-0.9159,-0.9021,-0.9021,-0.927,-0.9413,0.0,0.0,0.0,0.0,0.0,0.0,0.0,0.0,0.0,0.0,0.0,0.0,0.0,0.0,0.0,0.0,0.0,0.0,0.0,0.0,0.0,0.0,0.0,0.0,0.0,0.0,0.0,0.0,0.0,0.0,0.0,0.0,0.0,0.0,0.0,0.0,0.0,0.0,0.0,0.0,0.0,0.0,0.0,0.0,0.0,0.0,0.0,0.0,0.0,0.0,0.0,0.0,0.0,0.0,0.0,0.0,0.0,0.0,0.0,0.0,0.0,0.0,0.0,0.0,0.0,0.0,0.0,0.0,0.0,0.0,0.0,0.0,0.0,0.0,0.0,0.0,0.0,0.0,0.0,0.0,0.0,0.0,0.0,0.0,0.0,0.0,0.0,0.0,0.0,0.0,0.0,0.0,0.0,0.0,0.0,0.0,0.0,0.0,0.0,0.0,0.0,0.0,0.0,0.0,0.0,0.0,0.0,0.0,0.0,-0.9139,-0.8969,-0.8857,-0.887,-0.9048,-0.9224,0.0,0.0,0.0,0.0,0.0,0.0,0.0,0.0,0.0,0.0,0.0,0.0,0.0,0.0,0.0,0.0,0.0,0.0,0.0,0.0,0.0,0.0,0.0,0.0,0.0,0.0,0.0,0.0,0.0,0.0,0.0,0.0,0.0,0.0,0.0,0.0,0.0,0.0,0.0,0.0,0.0,0.0,0.0,0.0,0.0,0.0,0.0,0.0,0.0,0.0,0.0,0.0,0.0,0.0,0.0,0.0,0.0,0.0,0.0,0.0,0.0,0.0,0.0,0.0,0.0,0.0,0.0,0.0,0.0,0.0,0.0,0.0,0.0,0.0,0.0,0.0,0.0,0.0,0.0,0.0,0.0,0.0,0.0,0.0,0.0,0.0,0.0,0.0,0.0,0.0,0.0,0.0,0.0,0.0,0.0,0.0,0.0,0.0,0.0,0.0,0.0,0.0,0.0,0.0,0.0,0.0,0.0,0.0,0.0,-0.8738,0.0,-0.8501,-0.8514,-0.8699,-0.8903,0.0,0.0,0.0,0.0,0.0,0.0,0.0,0.0,0.0,0.0,0.0,0.0,0.0,0.0,0.0,0.0,0.0,0.0,0.0,0.0,0.0,0.0,0.0,0.0,0.0,0.0,0.0,0.0,0.0,0.0,0.0,0.0,0.0,0.0,0.0,0.0,0.0,0.0,0.0,0.0,0.0,0.0,0.0,0.0,0.0,0.0,0.0,0.0,0.0,0.0,0.0,0.0,0.0,0.0,0.0,0.0,0.0,0.0,0.0,0.0,0.0,0.0,0.0,0.0,0.0,0.0,0.0,0.0,0.0,0.0,0.0,0.0,0.0,0.0,0.0,0.0,0.0,0.0,0.0,0.0,0.0,0.0,0.0,0.0,0.0,0.0,0.0,0.0,0.0,0.0,0.0,0.0,0.0,0.0,0.0,0.0,0.0,0.0,0.0,0.0,0.0,0.0,0.0,0.0,0.0,0.0,0.0,0.0,-0.8718,-0.8215,-0.7997,-0.7904,-0.7904,-0.8222,-0.8461,0.0,0.0,0.0,0.0,0.0,0.0,0.0,0.0,0.0,0.0,0.0,0.0,0.0,0.0,0.0,0.0,0.0,0.0,0.0,0.0,0.0,0.0,0.0,0.0,0.0,0.0,0.0,0.0,0.0,0.0,0.0,0.0,0.0,0.0,0.0,0.0,0.0,0.0,0.0,0.0,0.0,0.0,0.0,0.0,0.0,0.0,0.0,0.0,0.0,0.0,0.0,0.0,0.0,0.0,0.0,0.0,0.0,0.0,0.0,0.0,0.0,0.0,0.0,0.0,0.0,0.0,0.0,0.0,0.0,0.0,0.0,0.0,0.0,0.0,0.0,0.0,0.0,0.0,0.0,0.0,0.0,0.0,0.0,0.0,0.0,0.0,0.0,0.0,0.0,0.0,0.0,0.0,0.0,0.0,0.0,0.0,0.0,0.0,0.0,0.0,0.0,0.0,0.0,0.0,0.0,0.0,0.0,0.0,0.0,-0.7462,-0.7471,-0.7543,-0.7672,-0.7755,-0.8033,0.0,0.0,0.0,0.0,0.0,0.0,0.0,0.0,0.0,0.0,0.0,0.0,0.0,0.0,0.0,0.0,0.0,0.0,0.0,0.0,0.0,0.0,0.0,0.0,0.0,0.0,0.0,0.0,0.0,0.0,0.0,0.0,0.0,0.0,0.0,0.0,0.0,0.0,0.0,0.0,0.0,0.0,0.0,0.0,0.0,0.0,0.0,0.0,0.0,0.0,0.0,0.0,0.0,0.0,0.0,0.0,0.0,0.0,0.0,0.0,0.0,0.0,0.0,0.0,0.0,0.0,0.0,0.0,0.0,0.0,0.0,0.0,0.0,0.0,0.0,0.0,0.0,0.0,0.0,0.0,0.0,0.0,0.0,0.0,0.0,0.0,0.0,0.0,0.0,0.0,0.0,0.0,0.0,0.0,0.0,0.0,0.0,0.0,0.0,0.0,0.0,0.0,0.0,0.0,0.0,0.0,0.0,0.0,0.0,-0.7121,-0.7172,-0.7244,-0.7382,-0.7458,-0.7725,-0.8217,0.0,0.0,0.0,0.0,0.0,0.0,0.0,0.0,0.0,0.0,0.0,0.0,0.0,0.0,0.0,0.0,0.0,0.0,0.0,0.0,0.0,0.0,0.0,0.0,0.0,0.0,0.0,0.0,0.0,0.0,0.0,0.0,0.0,0.0,0.0,0.0,0.0,0.0,0.0,0.0,0.0,0.0,0.0,0.0,0.0,0.0,0.0,0.0,0.0,0.0,0.0,0.0,0.0,0.0,0.0,0.0,0.0,0.0,0.0,0.0,0.0,0.0,0.0,0.0,0.0,0.0,0.0,0.0,0.0,0.0,0.0,0.0,0.0,0.0,0.0,0.0,0.0,0.0,0.0,0.0,0.0,0.0,0.0,0.0,0.0,0.0,0.0,0.0,0.0,0.0,0.0,0.0,0.0,0.0,0.0,0.0,0.0,0.0,0.0,0.0,0.0,0.0,0.0,0.0,0.0,0.0,0.0,0.0,-0.7116,-0.7048,-0.7024,-0.7,-0.73,-0.7582,0.0,0.0,0.0,0.0,0.0,0.0,0.0,0.0,0.0,0.0,0.0,0.0,0.0,0.0,0.0,0.0,0.0,0.0,0.0,0.0,0.0,0.0,0.0,0.0,0.0,0.0,0.0,0.0,0.0,0.0,0.0,0.0,0.0,0.0,0.0,0.0,0.0,0.0,0.0,0.0,0.0,0.0,0.0,0.0,0.0,0.0,0.0,0.0,0.0,0.0,0.0,0.0,0.0,0.0,0.0,0.0,0.0,0.0,0.0,0.0,0.0,0.0,0.0,0.0,0.0,0.0,0.0,0.0,0.0,0.0,0.0,0.0,0.0,0.0,0.0,0.0,0.0,0.0,0.0,0.0,0.0,0.0,0.0,0.0,0.0,0.0,0.0,0.0,0.0,0.0,0.0,0.0,0.0,0.0,0.0,0.0,0.0,0.0,0.0,0.0,0.0,0.0,0.0,0.0,0.0,0.0,0.0,0.0,0.0,-0.7113,-0.712,-0.7078,-0.6934,-0.7107,-0.7384,0.0,0.0,0.0,0.0,0.0,0.0,0.0,0.0,0.0,0.0,0.0,0.0,0.0,0.0,0.0,0.0,0.0,0.0,0.0,0.0,0.0,0.0,0.0,0.0,0.0,0.0,0.0,0.0,0.0,0.0,0.0,0.0,0.0,0.0,0.0,0.0,0.0,0.0,0.0,0.0,0.0,0.0,0.0,0.0,0.0,0.0,0.0,0.0,0.0,0.0,0.0,0.0,0.0,0.0,0.0,0.0,0.0,0.0,0.0,0.0,0.0,0.0,0.0,0.0,0.0,0.0,0.0,0.0,0.0,0.0,0.0,0.0,0.0,0.0,0.0,0.0,0.0,0.0,0.0,0.0,0.0,0.0,0.0,0.0,0.0,0.0,0.0,0.0,0.0,0.0,0.0,0.0,0.0,0.0,0.0,0.0,0.0,0.0,0.0,0.0,0.0,0.0,0.0,0.0,0.0,0.0,0.0,0.0,-0.7372,-0.728,-0.7295,-0.7269,-0.7157,-0.7326,-0.7554,0.0,0.0,0.0,0.0,0.0,0.0,0.0,0.0,0.0,0.0,0.0,0.0,0.0,0.0,0.0,0.0,0.0,0.0,0.0,0.0,0.0,0.0,0.0,0.0,0.0,0.0,0.0,0.0,0.0,0.0,0.0,0.0,0.0,0.0,0.0,0.0,0.0,0.0,0.0,0.0,0.0,0.0,0.0,0.0,0.0,0.0,0.0,0.0,0.0,0.0,0.0,0.0,0.0,0.0,0.0,0.0,0.0,0.0,0.0,0.0,0.0,0.0,0.0,0.0,0.0,0.0,0.0,0.0,0.0,0.0,0.0,0.0,0.0,0.0,0.0,0.0,0.0,0.0,0.0,0.0,0.0,0.0,0.0,0.0,0.0,0.0,0.0,0.0,0.0,0.0,0.0,0.0,0.0,0.0,0.0,0.0,0.0,0.0,0.0,0.0,0.0,0.0,0.0,0.0,0.0,0.0,0.0,0.0,-0.7361,-0.7515,-0.7514,-0.7528,-0.7543,-0.7735,-0.7908,0.0,0.0,0.0,0.0,0.0,0.0,0.0,0.0,0.0,0.0,0.0,0.0,0.0,0.0,0.0,0.0,0.0,0.0,0.0,0.0,0.0,0.0,0.0,0.0,0.0,0.0,0.0,0.0,0.0,0.0,0.0,0.0,0.0,0.0,0.0,0.0,0.0,0.0,0.0,0.0,0.0,0.0,0.0,0.0,0.0,0.0,0.0,0.0,0.0,0.0,0.0,0.0,0.0,0.0,0.0,0.0,0.0,0.0,0.0,0.0,0.0,0.0,0.0,0.0,0.0,0.0,0.0,0.0,0.0,0.0,0.0,0.0,0.0,0.0,0.0,0.0,0.0,0.0,0.0,0.0,0.0,0.0,0.0,0.0,0.0,0.0,0.0,0.0,0.0,0.0,0.0,0.0,0.0,0.0,0.0,0.0,0.0,0.0,0.0,0.0,0.0,0.0,0.0,0.0,0.0,0.0,0.0,0.0,-0.7311,-0.7643,-0.7703,-0.7739,-0.7739,-0.7934,-0.8029,0.0,0.0,0.0,0.0,0.0,0.0,0.0,0.0,0.0,0.0,0.0,0.0,0.0,0.0,0.0,0.0,0.0,0.0,0.0,0.0,0.0,0.0,0.0,0.0,0.0,0.0,0.0,0.0,0.0,0.0,0.0,0.0,0.0,0.0,0.0,0.0,0.0,0.0,0.0,0.0,0.0,0.0,0.0,0.0,0.0,0.0,0.0,0.0,-0.8759,0.0,0.0,0.0,0.0,0.0,0.0,0.0,0.0,0.0,0.0,0.0,0.0,0.0,0.0,0.0,0.0,0.0,0.0,0.0,0.0,0.0,0.0,0.0,0.0,0.0,0.0,0.0,0.0,0.0,0.0,0.0,0.0,0.0,0.0,0.0,0.0,0.0,0.0,0.0,0.0,0.0,0.0,0.0,0.0,0.0,0.0,0.0,0.0,0.0,0.0,0.0,0.0,0.0,0.0,0.0,0.0,0.0,0.0,0.0,-0.7449,-0.7742,-0.7934,-0.7988,-0.7898,-0.8164,-0.8282,0.0,0.0,0.0,0.0,0.0,0.0,0.0,0.0,0.0,0.0,0.0,0.0,0.0,0.0,0.0,0.0,0.0,0.0,0.0,0.0,0.0,0.0,0.0,0.0,0.0,0.0,0.0,0.0,0.0,0.0,0.0,0.0,0.0,0.0,0.0,0.0,0.0,0.0,0.0,0.0,0.0,0.0,0.0,0.0,0.0,0.0,0.0,0.0,0.0,0.0,0.0,0.0,0.0,0.0,0.0,0.0,0.0,0.0,0.0,0.0,0.0,0.0,0.0,0.0,0.0,0.0,0.0,0.0,0.0,0.0,0.0,0.0,0.0,0.0,0.0,0.0,0.0,0.0,0.0,0.0,0.0,0.0,0.0,0.0,0.0,0.0,0.0,0.0,0.0,0.0,0.0,0.0,0.0,0.0,0.0,0.0,0.0,0.0,0.0,0.0,0.0,0.0,0.0,0.0,0.0,0.0,0.0,-0.7196,-0.7578,-0.7833,-0.8142,-0.8224,-0.802,-0.8386,-0.8509,-0.8322,0.0,0.0,0.0,0.0,0.0,0.0,0.0,0.0,0.0,0.0,0.0,0.0,0.0,0.0,0.0,0.0,0.0,0.0,0.0,0.0,0.0,0.0,0.0,0.0,0.0,0.0,0.0,0.0,0.0,0.0,0.0,0.0,0.0,0.0,0.0,0.0,0.0,0.0,-0.8557,-0.9005,0.0,0.0,0.0,0.0,0.0,0.0,0.0,0.0,-0.9025,0.0,0.0,0.0,0.0,0.0,0.0,0.0,0.0,0.0,0.0,0.0,0.0,0.0,0.0,0.0,0.0,0.0,0.0,0.0,0.0,0.0,0.0,0.0,0.0,0.0,0.0,0.0,0.0,0.0,0.0,0.0,0.0,0.0,0.0,0.0,0.0,0.0,0.0,0.0,0.0,0.0,0.0,0.0,0.0,0.0,0.0,0.0,0.0,0.0,0.0,0.0,0.0,0.0,0.0,0.0,0.0,-0.7081,-0.7209,-0.7483,-0.7959,-0.8199,-0.822,-0.802,-0.8406,-0.8509,-0.8364,0.0,0.0,0.0,0.0,0.0,0.0,0.0,0.0,0.0,0.0,0.0,0.0,0.0,0.0,0.0,0.0,0.0,0.0,0.0,0.0,0.0,0.0,0.0,0.0,0.0,0.0,0.0,0.0,0.0,0.0,0.0,0.0,0.0,0.0,0.0,0.0,0.0,0.0,0.0,-0.9399,-0.9555,0.0,0.0,0.0,0.0,0.0,0.0,0.0,0.0,-0.9362,0.0,0.0,0.0,0.0,0.0,0.0,0.0,0.0,0.0,0.0,0.0,0.0,0.0,0.0,0.0,0.0,0.0,0.0,0.0,0.0,0.0,0.0,0.0,0.0,0.0,0.0,0.0,0.0,0.0,0.0,0.0,0.0,0.0,0.0,0.0,0.0,0.0,0.0,0.0,0.0,0.0,0.0,0.0,0.0,0.0,0.0,0.0,0.0,0.0,0.0,0.0,0.0,0.0,0.0,0.0,-0.7092,-0.737,-0.7715,-0.8142,-0.8362,-0.8343,-0.8172,-0.8439,-0.858,0.0,0.0,0.0,0.0,0.0,0.0,0.0,0.0,0.0,0.0,0.0,0.0,0.0,0.0,0.0,0.0,0.0,0.0,0.0,0.0,0.0,0.0,0.0,0.0,0.0,0.0,0.0,0.0,0.0,0.0,0.0,0.0,0.0,0.0,0.0,0.0,0.0,0.0,0.0,0.0,-0.9875,-1.0095,-0.989,0.0,0.0,0.0,0.0,0.0,0.0,-0.869,-0.898,0.0,0.0,0.0,0.0,0.0,0.0,0.0,0.0,0.0,0.0,0.0,0.0,0.0,0.0,0.0,0.0,0.0,0.0,0.0,0.0,0.0,0.0,0.0,0.0,0.0,0.0,0.0,0.0,0.0,0.0,0.0,0.0,0.0,0.0,0.0,0.0,0.0,0.0,0.0,0.0,0.0,0.0,0.0,0.0,0.0,0.0,0.0,0.0,0.0,0.0,0.0,0.0,0.0,0.0,0.0,-0.7104,-0.7562,-0.7955,-0.8301,-0.8536,-0.8587,-0.8428,-0.8609,-0.878,0.0,0.0,0.0,0.0,0.0,0.0,0.0,0.0,0.0,0.0,0.0,0.0,0.0,0.0,0.0,0.0,0.0,0.0,0.0,0.0,0.0,0.0,0.0,0.0,0.0,0.0,0.0,0.0,0.0,0.0,0.0,0.0,0.0,0.0,0.0,0.0,0.0,0.0,0.0,0.0,0.0,-1.0508,-1.0325,-1.0235,0.0,0.0,0.0,0.0,-0.8016,-0.8236,0.0,0.0,0.0,0.0,0.0,0.0,0.0,0.0,0.0,0.0,0.0,0.0,0.0,0.0,0.0,0.0,0.0,0.0,0.0,0.0,0.0,0.0,0.0,0.0,0.0,0.0,0.0,0.0,0.0,0.0,0.0,0.0,0.0,0.0,0.0,0.0,0.0,0.0,0.0,0.0,0.0,0.0,0.0,0.0,0.0,0.0,0.0,0.0,0.0,0.0,0.0,0.0,0.0,0.0,0.0,0.0,-0.7429,-0.7678,-0.7971,-0.8297,-0.8666,-0.8837,-0.8846,-0.9024,-0.9194,0.0,0.0,0.0,0.0,0.0,0.0,0.0,0.0,0.0,0.0,0.0,0.0,0.0,0.0,0.0,0.0,0.0,0.0,0.0,0.0,0.0,0.0,0.0,0.0,0.0,0.0,0.0,0.0,0.0,0.0,0.0,0.0,0.0,0.0,0.0,0.0,0.0,0.0,0.0,0.0,0.0,-1.0382,-1.0309,-1.0001,-0.9575,0.0,0.0,0.0,-0.8036,-0.8277,0.0,0.0,0.0,0.0,0.0,0.0,0.0,0.0,0.0,0.0,0.0,0.0,0.0,0.0,0.0,0.0,0.0,0.0,0.0,0.0,0.0,0.0,0.0,0.0,0.0,0.0,0.0,0.0,0.0,0.0,0.0,0.0,0.0,0.0,0.0,0.0,0.0,0.0,0.0,0.0,0.0,0.0,0.0,0.0,0.0,0.0,0.0,0.0,0.0,0.0,0.0,0.0,0.0,0.0,0.0,-0.7252,-0.7603,-0.7925,-0.8252,-0.8576,-0.891,-0.9082,-0.9062,-0.9261,-0.944,0.0,0.0,0.0,0.0,0.0,0.0,0.0,0.0,0.0,0.0,0.0,0.0,0.0,0.0,0.0,0.0,0.0,0.0,0.0,0.0,0.0,0.0,0.0,0.0,0.0,0.0,0.0,0.0,0.0,0.0,0.0,0.0,0.0,0.0,0.0,0.0,0.0,0.0,0.0,0.0,0.0,0.0,-1.0165,-1.0013,0.0,0.0,0.0,-0.7994,-0.7799,0.0,0.0,0.0,0.0,0.0,0.0,0.0,0.0,0.0,0.0,0.0,0.0,0.0,0.0,0.0,0.0,0.0,0.0,0.0,0.0,0.0,0.0,0.0,0.0,0.0,0.0,0.0,0.0,0.0,0.0,0.0,0.0,0.0,0.0,0.0,0.0,0.0,0.0,0.0,0.0,0.0,0.0,0.0,0.0,0.0,0.0,0.0,0.0,0.0,0.0,0.0,0.0,0.0,0.0,0.0,0.0,0.0,-0.7897,-0.8209,-0.8532,-0.8877,-0.9139,-0.9314,-0.9341,-0.9459,0.0,0.0,0.0,0.0,0.0,0.0,0.0,0.0,0.0,0.0,0.0,0.0,0.0,0.0,0.0,0.0,0.0,0.0,0.0,0.0,0.0,0.0,0.0,0.0,0.0,0.0,0.0,-0.5586,0.0,0.0,0.0,0.0,0.0,0.0,0.0,0.0,0.0,0.0,0.0,0.0,0.0,0.0,-1.036,-1.0021,-0.9942,-0.9592,0.0,0.0,-0.7855,-0.7737,-0.7761,-0.8008,0.0,0.0,0.0,0.0,0.0,0.0,0.0,0.0,0.0,0.0,0.0,0.0,0.0,0.0,0.0,0.0,0.0,0.0,0.0,0.0,0.0,0.0,0.0,0.0,0.0,0.0,0.0,0.0,0.0,0.0,0.0,0.0,0.0,0.0,0.0,0.0,0.0,0.0,0.0,0.0,0.0,0.0,0.0,0.0,0.0,0.0,0.0,0.0,0.0,0.0,0.0,0.0,0.0,0.0,0.0,-0.8425,-0.8547,-0.8741,-0.9083,-0.9329,-0.9562,-0.9749,-0.9592,-0.96,0.0,0.0,0.0,0.0,0.0,0.0,0.0,0.0,0.0,0.0,0.0,0.0,0.0,0.0,0.0,0.0,0.0,0.0,0.0,0.0,0.0,0.0,0.0,0.0,0.0,0.0,0.0,0.0,0.0,0.0,0.0,0.0,0.0,0.0,0.0,0.0,0.0,0.0,0.0,0.0,0.0,-1.01,-0.9938,-0.9578,-0.9161,0.0,0.0,-0.7983,-0.7996,-0.818,-0.8388,-0.8588,0.0,0.0,0.0,0.0,0.0,0.0,0.0,0.0,0.0,0.0,0.0,0.0,0.0,0.0,0.0,0.0,0.0,0.0,0.0,0.0,0.0,0.0,0.0,0.0,0.0,0.0,0.0,0.0,0.0,0.0,0.0,0.0,0.0,0.0,0.0,0.0,0.0,0.0,0.0,0.0,0.0,0.0,0.0,0.0,0.0,0.0,0.0,0.0,0.0,0.0,0.0,0.0,0.0,-0.8712,-0.8756,-0.8901,-0.9057,-0.9286,-0.9515,-0.9611,-0.9549,-0.9531,-0.9379,0.0,0.0,0.0,0.0,0.0,0.0,0.0,0.0,0.0,0.0,0.0,0.0,0.0,0.0,0.0,0.0,0.0,0.0,0.0,0.0,0.0,0.0,0.0,0.0,0.0,0.0,0.0,0.0,-0.565,-0.6071,-0.6681,0.0,0.0,0.0,0.0,0.0,0.0,0.0,0.0,0.0,0.0,-1.0392,-1.0347,-1.0345,0.0,0.0,-0.9183,-0.8879,-0.8614,-0.8522,-0.8634,-0.8916,-0.9013,0.0,0.0,0.0,0.0,0.0,0.0,0.0,0.0,0.0,0.0,0.0,0.0,0.0,0.0,0.0,0.0,0.0,0.0,0.0,0.0,0.0,0.0,0.0,0.0,0.0,0.0,0.0,0.0,0.0,0.0,0.0,0.0,0.0,0.0,0.0,0.0,0.0,0.0,0.0,0.0,0.0,0.0,0.0,0.0,0.0,0.0,0.0,0.0,0.0,0.0,0.0,0.0,-0.9006,-0.9037,-0.9133,-0.9262,-0.9453,-0.9617,-0.9632,-0.9493,-0.9442,-0.9172,0.0,0.0,0.0,0.0,0.0,0.0,0.0,0.0,0.0,0.0,0.0,0.0,0.0,0.0,0.0,0.0,0.0,0.0,0.0,0.0,0.0,0.0,0.0,0.0,0.0,0.0,0.0,0.0,-0.5656,-0.6041,-0.6674,0.0,0.0,0.0,0.0,0.0,0.0,0.0,0.0,0.0,0.0,-1.0554,-1.0701,-1.0961,-1.0977,-1.048,-1.0189,-0.9899,-0.9486,-0.9218,-0.91,-0.9201,0.0,0.0,0.0,0.0,0.0,0.0,0.0,0.0,0.0,0.0,0.0,0.0,0.0,0.0,0.0,0.0,0.0,0.0,0.0,0.0,0.0,0.0,0.0,0.0,0.0,0.0,0.0,0.0,0.0,0.0,0.0,0.0,0.0,0.0,0.0,0.0,0.0,0.0,0.0,0.0,0.0,0.0,0.0,0.0,0.0,0.0,0.0,0.0,0.0,0.0,0.0,0.0,0.0,0.0,-0.9372,-0.9214,-0.9263,-0.9575,-0.9663,-0.9703,-0.9678,-0.9389,-0.9098,-0.8862,0.0,0.0,0.0,0.0,0.0,0.0,0.0,0.0,0.0,0.0,0.0,0.0,0.0,0.0,0.0,0.0,0.0,0.0,0.0,0.0,0.0,0.0,0.0,0.0,0.0,0.0,-0.5581,-0.5726,-0.5901,0.0,0.0,0.0,0.0,0.0,0.0,0.0,0.0,0.0,0.0,-1.0088,-1.0472,-1.0927,-1.1226,-1.1415,-1.1357,-1.1132,-1.0884,-1.0671,-1.0362,-0.9967,0.0,0.0,0.0,0.0,0.0,0.0,0.0,0.0,0.0,0.0,0.0,0.0,0.0,0.0,0.0,0.0,0.0,0.0,0.0,0.0,0.0,0.0,0.0,0.0,0.0,0.0,0.0,-1.1193,-1.1196,0.0,0.0,0.0,0.0,0.0,0.0,0.0,0.0,0.0,0.0,0.0,-0.9454,-0.9458,0.0,0.0,0.0,0.0,0.0,0.0,0.0,0.0,0.0,0.0,0.0,0.0,-0.946,-0.9467,-0.9377,-0.9386,-0.9612,-0.9616,-0.9599,-0.9496,-0.9134,-0.8673,-0.812,0.0,0.0,0.0,0.0,0.0,0.0,0.0,0.0,0.0,0.0,0.0,0.0,0.0,0.0,0.0,0.0,0.0,0.0,0.0,0.0,0.0,0.0,0.0,0.0,0.0,-0.5562,0.0,0.0,0.0,0.0,0.0,0.0,0.0,0.0,0.0,0.0,0.0,-0.88,-0.9441,-1.0044,-1.0664,-1.1331,-1.1782,-1.2012,0.0,0.0,0.0,0.0,0.0,0.0,0.0,0.0,0.0,0.0,0.0,0.0,0.0,0.0,-0.7953,-0.775,-0.749,-0.7269,-0.7167,0.0,0.0,0.0,0.0,0.0,0.0,0.0,0.0,0.0,0.0,0.0,0.0,0.0,0.0,0.0,0.0,-1.1432,0.0,0.0,0.0,0.0,0.0,0.0,0.0,0.0,-0.9895,-0.9464,-0.9233,-0.9169,-0.9227,0.0,-0.9463,-0.9507,0.0,0.0,0.0,0.0,0.0,0.0,0.0,0.0,-0.9436,-0.931,-0.9368,-0.9423,-0.9464,-0.9554,-0.9547,-0.947,-0.9039,-0.8563,-0.8028,-0.7613,-0.7389,0.0,0.0,0.0,0.0,0.0,0.0,0.0,0.0,0.0,0.0,0.0,0.0,0.0,0.0,0.0,0.0,0.0,0.0,0.0,0.0,0.0,0.0,0.0,-0.5787,0.0,0.0,0.0,0.0,0.0,0.0,0.0,0.0,0.0,-0.7813,-0.8095,-0.8512,-0.9167,-0.9821,-1.0492,-1.1214,0.0,0.0,0.0,0.0,0.0,0.0,0.0,-1.0133,-0.9608,-0.9257,-0.9032,-0.9028,-0.8792,-0.8534,-0.833,0.0,0.0,-0.786,-0.7646,-0.7473,-0.7393,-0.7315,-0.7301,-0.7302,-0.7346,-0.7357,0.0,0.0,0.0,0.0,0.0,0.0,0.0,0.0,-1.1791,-1.1786,0.0,-1.1731,0.0,0.0,0.0,0.0,0.0,0.0,0.0,0.0,-0.9532,-0.9166,-0.9059,-0.8844,-0.8741,-0.8802,-0.8903,-0.8946,-0.8939,-0.9424,0.0,0.0,0.0,0.0,0.0,0.0,-0.9074,-0.9005,-0.9264,-0.934,-0.9223,-0.9467,-0.9603,-0.9575,-0.9089,-0.8755,-0.8574,-0.8098,-0.7774,-0.7712,-0.7485,0.0,0.0,0.0,0.0,0.0,0.0,0.0,0.0,0.0,0.0,0.0,0.0,0.0,0.0,0.0,0.0,0.0,0.0,0.0,0.0,-0.592,0.0,0.0,0.0,0.0,0.0,0.0,0.0,0.0,0.0,0.0,-0.7785,-0.7916,-0.8244,-0.8908,0.0,0.0,0.0,0.0,-1.1702,-1.2069,-1.1923,-1.1617,-1.1276,-1.0798,-1.0229,-0.9503,0.0,0.0,-0.8947,-0.8919,-0.8893,-0.875,-0.8713,-0.8537,-0.795,-0.7896,-0.7867,-0.776,-0.7753,-0.7727,-0.7586,-0.7668,-0.7677,-0.9128,0.0,0.0,0.0,0.0,-1.0501,-1.0949,-1.1798,-1.1822,-1.2094,-1.253,-1.2249,0.0,0.0,0.0,0.0,0.0,0.0,-1.0138,-0.9912,-0.9335,-0.8946,-0.8689,-0.8799,-0.8859,-0.8882,-0.9115,-0.9159,-0.8994,-0.9164,-0.9228,-0.9171,0.0,0.0,0.0,0.0,-0.9123,-0.8891,-0.9036,-0.9167,-0.926,-0.9427,-0.9519,-0.9466,-0.9307,-0.9026,-0.8624,-0.8259,-0.798,-0.7782,-0.7402,0.0,0.0,0.0,0.0,0.0,0.0,0.0,0.0,0.0,0.0,0.0,0.0,0.0,0.0,0.0,0.0,0.0,0.0,0.0,-0.5927,-0.6058,-0.62,0.0,0.0,0.0,0.0,0.0,0.0,0.0,0.0,0.0,-0.8098,-0.808,-0.8231,0.0,0.0,-0.9642,-1.0224,-1.0591,-1.0865,-1.0964,0.0,0.0,0.0,-1.0108,-0.9899,-0.9404,-0.9325,-0.9319,-0.9245,-0.9256,-0.9205,-0.9083,-0.9053,-0.8927,-0.8537,-0.8296,-0.8203,-0.8255,-0.8222,-0.8185,-0.8204,-0.8237,-0.8254,-0.9477,-0.9853,-0.9571,-0.9854,-1.0475,-1.0275,-1.0685,-1.1497,-1.154,-1.1993,-1.2731,-1.2528,-1.2692,-1.3095,-1.2347,0.0,0.0,0.0,-0.9966,-0.9676,-0.9138,-0.8862,-0.8869,-0.9014,-0.9151,-0.9274,-0.9399,-0.9398,-0.9239,-0.9181,-0.912,-0.9041,0.0,0.0,-0.8671,-0.9034,-0.9086,-0.8824,-0.8998,-0.9153,-0.9232,-0.9301,-0.9309,-0.9276,-0.9139,-0.8926,-0.8623,-0.8374,-0.8109,-0.7806,-0.7537,-0.7163,0.0,0.0,0.0,0.0,0.0,0.0,0.0,0.0,0.0,0.0,0.0,-0.6354,0.0,0.0,0.0,0.0,-0.5982,-0.6042,-0.6416,-0.6445,0.0,0.0,0.0,0.0,0.0,0.0,0.0,-0.7603,-0.7842,-0.8109,-0.8427,-0.8364,-0.8405,-0.8708,-0.8965,-0.9253,-0.959,0.0,-1.0128,-1.0199,-1.0271,-1.0178,-0.9813,-0.9798,-0.9753,-0.9461,-0.9434,-0.9493,-0.9547,-0.9557,-0.9503,-0.94,-0.9315,-0.9196,-0.893,-0.8693,-0.8509,-0.8486,-0.844,-0.8413,-0.8469,-0.8509,-0.8509,-1.0062,-1.03,-0.9872,-0.9937,-1.0296,-1.0331,-1.066,-1.1179,-1.1342,-1.188,-1.2677,-1.2747,-1.3057,-1.3502,-1.2657,0.0,0.0,-1.0446,-0.9761,-0.9541,-0.9062,-0.9084,-0.9549,-0.958,-0.9712,-0.9969,-0.9841,-0.9731,-0.9685,-0.9463,-0.928,-0.9083,-0.8934,-0.8768,-0.8634,-0.8947,-0.9016,-0.8857,-0.9165,-0.9257,-0.912,-0.9086,-0.9089,-0.9096,-0.8762,-0.8583,-0.8564,-0.836,-0.8127,-0.7827,-0.7749,-0.7441,-0.6854,0.0,0.0,0.0,0.0,0.0,0.0,0.0,0.0,0.0,0.0,0.0,0.0,0.0,0.0,0.0,-0.6272,0.0,-0.6971,-0.6999,0.0,0.0,0.0,-0.7302,-0.7445,-0.7567,-0.7743,-0.8033,0.0,0.0,0.0,0.0,-0.8686,-0.8574,-0.8758,-0.8947,-0.8934,-0.928,-0.957,-0.9752,-0.9868,-0.9902,-0.9756,-0.9755,-0.9739,-0.9627,-0.9625,-0.9639,-0.9744,-0.9771,-0.9731,-0.9615,-0.949,-0.9376,-0.9226,-0.9052,-0.8882,-0.8661,-0.8589,-0.8576,-0.8566,-0.8596,-0.8626,-1.0259,-1.0583,-1.1043,-1.1306,-1.1348,-1.1405,-1.1883,-1.2593,-1.2908,-1.355,-1.4391,-1.4212,-1.4116,-1.4079,-1.3351,-1.2697,-1.2055,-1.081,-1.021,-1.0122,-0.9987,-1.0262,-1.0842,-1.1098,-1.1284,-1.1393,-1.1375,-1.1033,-1.044,-1.012,-0.9719,-0.92,-0.9124,-0.8984,-0.879,-0.9074,-0.922,-0.9106,-0.9279,-0.9328,-0.9236,-0.9042,-0.9002,-0.9104,-0.8762,-0.853,-0.838,-0.8101,-0.7903,-0.7863,-0.7389,-0.7024,-0.6806,-0.6633,0.0,0.0,0.0,0.0,0.0,0.0,0.0,0.0,0.0,-0.6105,-0.6493,0.0,-0.6221,0.0,-0.6671,-0.6844,-0.7057,-0.7078,0.0,0.0,-0.7509,-0.7613,-0.7821,-0.8019,-0.8225,-0.849,-0.8659,-0.8862,-0.9184,-0.9218,-0.9237,-0.9171,-0.915,-0.9178,-0.9264,-0.9337,-0.9432,-0.9524,-0.9565,-0.9543,-0.9533,-0.9597,-0.9691,-0.9747,-0.9737,-0.9781,-0.9785,-0.9788,-0.9748,-0.9612,-0.9585,-0.9496,-0.9412,-0.9296,-0.9322,-0.9311,-0.9264,-0.9101,-0.8856,-0.8989,-0.9098,-1.0991,-1.1622,-1.2611,-1.3211,-1.3354,-1.2545,-1.2633,-1.3383,-1.3606,-1.429,-1.5322,-1.5497,-1.5429,-1.5157,-1.4395,-1.3626,-1.2758,-1.1698,-1.1102,-1.0993,-1.1105,-1.1532,-1.2168,-1.2589,-1.2932,-1.3096,-1.3096,-1.273,-1.1991,-1.1395,-1.0675,-0.993,-0.9656,-0.9394,-0.9168,-0.9279,-0.9347,-0.9386,-0.94,-0.9324,-0.9134,-0.8859,-0.8727,-0.8751,-0.8417,-0.8206,-0.8093,-0.7853,-0.7701,-0.7681,-0.7325,-0.7055,-0.684,-0.6677,-0.6452,0.0,0.0,0.0,0.0,0.0,0.0,0.0,0.0,0.0,0.0,0.0,-0.66,0.0,-0.7177,0.0,-0.7476,-0.7459,-0.7542,-0.7879,-0.7834,-0.7932,-0.829,-0.8476,-0.8655,-0.8907,-0.9042,-0.9198,-0.9357,-0.941,-0.9408,-0.9473,-0.9408,-0.939,-0.941,-0.9581,-0.9717,-0.9717,-0.9891,-0.9959,-0.9844,-0.9735,-0.9697,-0.9771,-0.9788,-0.9849,-1.0001,-1.0031,-1.0094,-1.0287,-1.0189,-1.0059,-1.0113,-0.9829,-0.9669,-0.9702,-0.9788,-0.9683,-0.9379,-0.9348,-0.9323,-1.194,-1.294,-1.4286,-1.5219,-1.5726,-1.4106,-1.3687,-1.4128,-1.4246,-1.4927,-1.604,-1.6708,-1.6821,-1.6433,-1.5569,-1.4694,-1.3819,-1.2877,-1.2305,-1.2103,-1.2493,-1.2978,-1.359,-1.4204,-1.4621,-1.485,-1.4827,-1.4386,-1.3649,-1.267,-1.1729,-1.0824,-1.0182,-0.9769,-0.9598,-0.9496,-0.9503,-0.9629,-0.9469,-0.9256,-0.897,-0.8659,-0.8447,-0.8318,-0.798,-0.7814,-0.7811,-0.7675,-0.7539,-0.7433,-0.7423,-0.7272,-0.7,-0.6837,-0.6774,0.0,-0.6626,0.0,0.0,0.0,0.0,0.0,0.0,0.0,0.0,-0.7028,-0.7198,-0.7648,-0.7685,-0.7773,-0.7997,-0.7931,-0.7988,-0.8249,-0.8177,-0.8252,-0.8669,-0.8845,-0.9022,-0.9192,-0.9345,-0.9415,-0.9475,-0.9468,-0.9496,-0.9668,-0.9718,-0.9729,-0.9717,-0.9938,-1.0108,-1.0231,-1.0669,-1.0868,-1.0578,-1.0233,-1.0024,-0.994,-0.9879,-0.9977,-1.0282,-1.0404,-1.061,-1.1175,-1.1056,-1.0893,-1.1189,-1.0615,-1.0109,-1.0171,-1.0269,-1.0234,-0.9872,-0.9663,-0.9519,-1.2519,-1.3582,-1.5345,-1.6438,-1.7045,-1.7259,-1.6963,-1.6397,-1.6686,-1.7105,-1.7596,-1.7938,-1.7827,-1.7312,-1.6547,-1.5845,-1.5175,-1.4198,-1.3729,-1.37,-1.4281,-1.4935,-1.5563,-1.6173,-1.6391,-1.6293,-1.6034,-1.5212,-1.3905,-1.2708,-1.168,-1.0795,-1.0032,-0.964,-0.9612,0.0,0.0,0.0,-0.9513,-0.9357,-0.9279,-0.8791,-0.8498,-0.8457,-0.8031,0.0,-0.7807,-0.7675,-0.7587,-0.7556,-0.7556,0.0,0.0,0.0,0.0,0.0,0.0,0.0,0.0,0.0,0.0,0.0,-0.7481,-0.7479,-0.7332,-0.7512,-0.7784,-0.8131,-0.8168,-0.8113,-0.8021,-0.8239,-0.8361,-0.8295,-0.8441,-0.8649,-0.8852,-0.9025,-0.9199,-0.9349,-0.9473,-0.9612,-0.9707,-0.9737,-0.9861,-1.0157,-1.0171,-1.0371,-1.0876,-1.0594,-1.0499,-1.0989,-1.1611,-1.1816,-1.1579,-1.1239,-1.0789,-1.0395,-1.0213,-1.0323,-1.0553,-1.0832,-1.1179,-1.1822,-1.1832,-1.1874,-1.2011,-1.1465,-1.1125,-1.1181,-1.1036,-1.068,-1.0026,-1.0011,-1.0068,-1.3757,0.0,-1.6669,-1.7809,0.0,-1.9102,-1.9028,-1.8577,-1.8261,-1.835,-1.8635,-1.8817,-1.8637,-1.8234,-1.7669,-1.7114,-1.6496,-1.5841,-1.5451,-1.5308,-1.5806,-1.6225,-1.6572,-1.7185,-1.7448,-1.7321,-1.7181,-1.646,-1.523,-1.397,-1.2718,-1.1488,-1.0629,-1.0014,-0.9717,-0.9754,-0.9758,-0.9687,-0.9493,-0.931,-0.9157,-0.8791,-0.856,-0.8502,0.0,0.0,0.0,0.0,0.0,0.0,0.0,0.0,0.0,0.0,0.0,-0.7469,-0.7519,-0.7506,-0.7446,-0.7689,-0.7872,-0.7926,-0.8087,-0.8052,-0.7855,-0.8014,-0.8238,-0.8462,-0.8489,-0.8445,-0.8352,-0.8317,-0.8248,-0.8251,-0.8239,-0.8322,-0.8548,-0.8924,-0.9165,-0.9307,-0.9678,-1.0015,-1.0263,-1.0456,-1.0668,-1.097,-1.1148,-1.142,-1.1834,-1.1571,-1.1571,-1.2535,-1.2801,-1.2886,-1.2711,-1.2148,-1.1696,-1.1303,-1.1118,-1.1282,-1.1745,-1.1962,-1.2477,-1.3548,-1.3708,-1.3578,-1.3933,-1.3332,-1.2608,-1.2388,-1.2073,-1.1631,-1.0961,-1.0708,-1.0507,-1.4784,-1.6324,-1.7673,-1.8846,-1.9887,-2.0143,-2.0296,-2.0313,0.0,0.0,0.0,-1.9398,-1.9243,-1.8968,-1.8625,-1.8211,-1.7743,-1.7385,-1.7062,-1.6779,-1.7091,-1.7214,-1.7203,-1.779,-1.8031,-1.8008,-1.7937,-1.7403,-1.6414,-1.5165,-1.3764,-1.2324,-1.1303,-1.0456,-0.9849,-0.9788,-0.9741,-0.9571,-0.9445,-0.9249,-0.8956,-0.8774,-0.8625,-0.8523,-0.8182,-0.8076,-0.8244,-0.799,-0.7892,-0.8009,-0.8069,-0.8104,-0.8128,-0.8108,-0.8104,-0.8131,-0.8108,-0.8094,-0.8094,-0.8338,-0.8489,-0.8565,-0.8653,-0.8634,-0.8386,-0.8481,-0.8587,-0.8737,-0.872,-0.8687,-0.8642,-0.8389,-0.8177,-0.8272,-0.8154,-0.8223,-0.8498,-0.8962,-0.9347,-0.9493,-1.0111,-1.0607,-1.0997,-1.1273,-1.1682,-1.2129,-1.2418,-1.2841,-1.3238,-1.3181,-1.3269,-1.4306,-1.4426,-1.4257,-1.415,-1.3509,-1.2811,-1.2743,-1.2474,-1.2582,-1.3229,-1.3477,-1.4192,-1.5691,-1.5628,-1.5628,-1.6073,-1.5309,-1.4354,-1.3799,-1.331,-1.2845,-1.2251,-1.1613,-1.1142,-1.4531,-1.5912,-1.7419,-1.883,-2.0087,-2.0397,-2.0705,-2.0891,-2.0042,-1.9684,-1.972,-1.9492,-1.9359,-1.9307,-1.8975,-1.8794,-1.8706,-1.8357,-1.8071,0.0,-1.8071,-1.8071,-1.7884,-1.8194,-1.8223,-1.8002,-1.7696,-1.7097,-1.6113,-1.4897,-1.3704,-1.2629,-1.139,-1.0456,-0.9852,-0.9788,-0.9686,-0.9418,-0.9391,-0.9325,-0.9152,-0.8852,-0.8699,-0.8645,-0.8246,-0.8011,-0.8033,-0.7998,-0.7985,-0.8004,-0.8265,-0.8479,-0.8601,-0.8522,-0.8479,-0.8598,-0.8496,-0.8447,-0.8425,-0.8825,-0.9241,-0.9561,-0.9598,-0.9352,-0.8719,-0.8665,-0.874,-0.8838,-0.8792,-0.8657,-0.8574,-0.8666,-0.8718,-0.8679,-0.8957,-0.9289,-0.9582,-0.9823,-1.0183,-1.0699,-1.0988,-1.1436,-1.1966,-1.2143,-1.2656,-1.3492,-1.3929,-1.444,-1.563,-1.5611,-1.5449,-1.6011,-1.6157,-1.6188,-1.6163,-1.5634,-1.4932,-1.4568,-1.4263,-1.4253,-1.4867,-1.4969,-1.553,-1.6802,-1.6976,-1.7127,-1.7545,-1.6811,-1.6093,-1.5657,-1.4998,-1.4246,-1.365,-1.2936,-1.2209,-1.5158,-1.6498,-1.757,-1.8714,-1.9877,-2.0386,-2.0704,-2.0785,-2.046,-2.0274,-2.0227,-1.9829,-1.9629,-1.9586,-1.9287,-1.9178,-1.9178,-1.9039,-1.8661,-1.8252,-1.8334,-1.8158,-1.7784,-1.7866,-1.7837,-1.7726,-1.7573,-1.7185,-1.6543,-1.5491,-1.4446,-1.3465,-1.1718,-1.0547,-1.0092,-0.9883,-0.9676,-0.942,-0.941,-0.9298,-0.9042,-0.8879,-0.8804,-0.8808,-0.8525,-0.8525,-0.8838,-0.8798,-0.891,-0.9238,-0.9411,-0.9498,-0.9566,-0.9502,-0.9526,-0.957,-0.9505,-0.9549,-0.9743,-1.0138,-1.0497,-1.0683,-1.0579,-1.0497,-1.038,-0.963,-0.9147,-0.9052,-0.8907,-0.8823,-0.8823,-0.8881,-0.8968,-0.9188,-0.9547,-0.9904,-1.027,-1.0729,-1.1161,-1.1643,-1.2327,-1.3026,-1.3571,-1.3979,-1.4427,-1.5243,-1.5719,-1.6541,-1.7509,-1.7827,-1.7793,-1.7749,-1.775,-1.7707,-1.767,-1.7188,-1.6669,-1.6331,-1.6156,-1.6257,-1.6713,-1.6799,-1.736,-1.8425,-1.8619,-1.8676,-1.9063,-1.8661,-1.8107,-1.7582,-1.6935,-1.6153,-1.5389,-1.4414,-1.3242,-1.5368,-1.658,-1.7157,-1.8066,-1.9188,-1.9934,-2.0323,-2.036,-2.0493,-2.0557,-2.0509,-2.0063,-1.99,-1.9843,-1.9599,-1.9495,-1.9488,-1.9363,-1.8946,-1.8415,-1.8334,-1.8012,-1.7537,-1.7485,-1.7485,-1.7485,-1.7485,-1.7309,-1.6932,-1.6207,-1.5224,-1.3998,-1.2079,-1.088,-1.0425,-1.0095,-0.975,-0.9449,-0.9464,-0.9269,-0.8926,-0.8909,-0.8937,-0.9013,-0.8886,-0.9137,-0.9747,-0.9773,-1.0012,-1.0595,-1.0701,-1.0774,-1.0784,-1.0753,-1.0774,-1.078,-1.0782,-1.0932,-1.1302,-1.163,-1.1883,-1.208,-1.1914,-1.1875,-1.1972,-1.1106,-1.0197,-0.9653,-0.9344,-0.929,-0.9474,-0.9422,-0.9533,-1.0059,-1.0398,-1.0882,-1.1367,-1.1904,-1.2456,-1.2957,-1.3889,-1.4699,-1.5308,-1.5794,-1.6239,-1.6754,-1.7671,-1.8395,-1.876,-1.9513,-1.9796,-1.9457,-1.9172,-1.8993,-1.8797,-1.8514,-1.8242,-1.8018,-1.7941,-1.8083,-1.8419,-1.8544,-1.8882,-1.9795,-1.9941,-1.9929,-2.0228,-2.0145,-1.9767,-1.9271,-1.8728,-1.8034,-1.6916,-1.5756,-1.4426,-1.446,-1.5108,-1.5536,-1.6435,-1.7765,-1.8804,-1.9392,-1.9705,-2.0005,-2.0157,-2.0182,-2.0178,-2.017,-2.0124,-1.9863,-1.973,-1.9674,-1.921,-1.8748,-1.8398,-1.8142,-1.7843,-1.7514,-1.7485,-1.7485,-1.7485,-1.7485,-1.7344,-1.7026,-1.6602,-1.5521,-1.3814,-1.2625,-1.1635,-1.0846,-1.0425,-1.0042,-0.9591,-0.9588,-0.9345,-0.894,-0.8909,-0.9047,-0.9351,-0.9248,-0.9571,-1.0497,-1.0687,-1.106,-1.161,-1.1967,-1.2185,-1.2271,-1.2174,-1.2185,-1.2289,-1.2207,-1.236,-1.2908,-1.3003,-1.3278,-1.3795,-1.3793,-1.3566,-1.3155,-1.3067,-1.2322,-1.1074,-1.0292,-1.0215,-1.0597,-1.0625,-1.0927,-1.1664,-1.1932,-1.2453,-1.3459,-1.3838,-1.43,-1.5448,-1.5597,-1.5996,-1.6556,-1.6827,-1.7168,-1.7856,-1.8883,-1.9644,-1.977,-2.037,-2.081,-2.0676,-2.0244,-1.9942,-2.0065,-1.9876,-1.9581,-1.9669,-1.9548,-1.9542,-1.9675,-1.9662,-1.9712,-2.0278,-2.0507,-2.0608,-2.081,-2.0961,-2.0854,-2.0546,-2.0103,-1.9532,-1.8147,-1.7063,-1.584,-1.4464,-1.4922,-1.5057,-1.5536,-1.6375,-1.7609,-1.8355,-1.8708,-1.9667,-2.0189,-2.043,-2.0636,-2.0445,-1.9903,-1.9605,-1.9438,-1.9419,-1.9028,-1.8669,-1.839,-1.8135,-1.782,-1.7514,-1.7485,-1.7485,-1.7485,-1.7485,-1.7426,-1.725,-1.6744,-1.5911,-1.4827,-1.3849,-1.2891,-1.1937,-1.1239,-1.056,-0.9912,-0.9697,-0.9476,-0.9239,-0.9201,-0.9369,-0.9688,-0.9999,-1.0651,-1.1636,-1.2147,-1.2705,-1.3371,-1.359,-1.3687,-1.3744,-1.3697,-1.3692,-1.374,-1.3878,-1.4004,-1.4135,-1.4476,-1.4798,-1.5095,-1.4961,-1.485,-1.4874,-1.4525,-1.3917,-1.334,-1.2133,-1.1427,-1.1642,-1.1812,-1.2252,-1.3104,-1.3606,-1.4221,-1.5095,-1.5544,-1.602,-1.6614,-1.7033,-1.7414,-1.7834,-1.809,-1.8321,-1.877,-1.9534,-2.0074,-2.0138,-2.0672,-2.1039,-2.1044,-2.0763,-2.0587,-2.062,-2.0612,-2.0498,-2.0436,-2.0475,-2.057,-2.0564,-2.0602,-2.0596,-2.0862,-2.0862,-2.0926,-2.1007,-2.1481,-2.1647,-2.1458,-2.1269,-2.0762,-1.973,-1.9063,-1.8181,-1.4473,-1.4572,-1.4408,-1.4534,-1.4977,-1.6241,-1.705,-1.7641,-1.9048,-1.9858,-2.0227,-2.0539,-2.0302,-1.9713,-1.9527,-1.943,-1.9294,-1.8925,-1.8641,-1.8393,-1.8105,-1.7799,-1.752,-1.7485,-1.7485,-1.7485,-1.7485,-1.7544,-1.7504,-1.6944,-1.6418,-1.5869,-1.5042,-1.4088,-1.3105,-1.2174,-1.1244,-1.0483,-1.0025,-0.9704,-0.9546,-0.95,-0.9667,-1.003,-1.0665,-1.1587,-1.2831,-1.3589,-1.4346,-1.5159,-1.5287,-1.5358,-1.5328,-1.5323,-1.5297,-1.5254,-1.538,-1.5456,-1.5396,-1.5827,-1.6124,-1.6228,-1.6069,-1.6091,-1.6194,-1.5836,-1.5505,-1.5322,-1.4345,-1.3569,-1.305,-1.3216,-1.3744,-1.465,-1.518,-1.573,-1.6508,-1.705,-1.7366,-1.7714,-1.8113,-1.85,-1.8704,-1.89,-1.9048,-1.9246,-1.9711,-2.0176,-2.0291,-2.0736,-2.1102,-2.1102,-2.1096,-2.1007,-2.0799,-2.0874,-2.0951,-2.0887,-2.0887,-2.0976,-2.1102,-2.1077,-2.1077,-2.0982,-2.1071,-2.1102,-2.1141,-2.1544,-2.2111,-2.2163,-2.2022,-2.1775,-2.1265,-2.0909,-2.049,-1.424,-1.3875,-1.3194,-1.3194,-1.3608,-1.4651,-1.5461,-1.6338,-1.799,-1.8906,-1.9302,-1.9647,-1.9661,-1.9661,-1.9964,-1.9948,-1.9605,-1.9,-1.8599,-1.8401,-1.8075,-1.778,-1.7491,-1.7485,-1.752,-1.7515,-1.7521,-1.7665,-1.7835,-1.731,-1.6936,-1.6797,-1.5967,-1.5075,-1.4122,-1.3135,-1.2174,-1.1276,-1.0578,-1.0101,-0.9822,-0.9788,-0.9921,-1.0357,-1.1069,-1.2228,-1.3722,-1.4835,-1.5818,-1.6741,-1.6986,-1.7122,-1.7159,-1.7122,-1.7003,-1.6782,-1.6561,-1.6584,-1.682,-1.6908,-1.7056,-1.7332,-1.7326,-1.7261,-1.7032,-1.7064,-1.6923,-1.6486,-1.6658,-1.6273,-1.5206,-1.4979,-1.5341,-1.618,-1.6381,-1.6945,-1.7929,-1.8007,-1.8392,-1.8778,-1.8922,-1.8966,-1.904,-1.9104,-1.9264,-1.952,-1.9877,-2.0208,-2.0513,-2.0862,-2.1077,-2.1102,-2.1102,-2.1071,-2.1077,-2.1077,-2.1077,-2.1046,-2.1014,-2.1102,-2.1102,-2.1102,-2.1102,-2.1102,-2.1134,-2.1166,-2.1166,-2.1481,-2.2017,-2.2285,-2.2497,-2.2357,-2.232,-2.2183,-2.1899,-1.4207,-1.3842,-1.3095,-1.2898,-1.3128,-1.4137,-1.5113,-1.6143,-1.7791,-1.8996,-1.9749,-2.031,-2.0316,-1.9934,-2.0062,-1.9827,-1.9321,-1.8875,-1.8673,-1.8545,-1.8131,-1.7853,-1.7756,-1.7599,-1.7611,-1.7744,-1.7762,-1.7907,-1.8112,-1.7925,-1.7708,-1.7505,-1.7038,-1.622,-1.5126,-1.4152,-1.3075,-1.1937,-1.1061,-1.0456,-1.0122,-0.9913,-1.0229,-1.1114,-1.2034,-1.3187,-1.457,-1.5909,-1.7007,-1.7777,-1.7908,-1.7949,-1.7919,-1.7955,-1.7883,-1.7813,-1.7718,-1.7695,-1.7792,-1.7822,-1.7883,-1.8004,-1.8004,-1.7949,-1.7895,-1.7906,-1.7868,-1.7739,-1.7786,-1.7617,-1.7255,-1.678,-1.6722,-1.7215,-1.7488,-1.7787,-1.8368,-1.8661,-1.8874,-1.9054,-1.9104,-1.9104,-1.9168,-1.9264,-1.9456,-1.9641,-2.0062,-2.0418,-2.0609,-2.0894,-2.1102,-2.1102,-2.1102,-2.1102,-2.1102,-2.1071,-2.1071,-2.1071,-2.1102,-2.1102,-2.1102,-2.1102,-2.1102,-2.1134,-2.1204,-2.1387,-2.145,-2.1859,-2.2299,-2.2613,-2.2825,-2.3008,-2.3194,-2.3028,-2.301,-1.3949,-1.3654,-1.2931,-1.2638,-1.277,-1.3785,-1.4786,-1.5819,-1.7662,-1.9022,-1.9934,-2.064,-2.0672,-2.0265,-2.0036,-1.9717,-1.9246,-1.898,-1.8796,-1.8693,-1.833,-1.8119,-1.8022,-1.7859,-1.7859,-1.7986,-1.8034,-1.8149,-1.8378,-1.8336,-1.8239,-1.8112,-1.7852,-1.7226,-1.6284,-1.5355,-1.4238,-1.3002,-1.1924,-1.1153,-1.0683,-1.0395,-1.0779,-1.1907,-1.3062,-1.4142,-1.5253,-1.6662,-1.7733,-1.8339,-1.8499,-1.8578,-1.8547,-1.8469,-1.842,-1.8414,-1.8336,-1.83,-1.83,-1.83,-1.8294,-1.8324,-1.8294,-1.83,-1.83,-1.8397,-1.8408,-1.8457,-1.8542,-1.8572,-1.8485,-1.8136,-1.7945,-1.8078,-1.8253,-1.8496,-1.8775,-1.9001,-1.908,-1.9104,-1.9104,-1.9136,-1.9264,-1.945,-1.9673,-1.9864,-2.0354,-2.0609,-2.0767,-2.0919,-2.1102,-2.1102,-2.1102,-2.1102,-2.1102,-2.1102,-2.1102,-2.1102,-2.1102,-2.1102,-2.1102,-2.1102,-2.1102,-2.1166,-2.1324,-2.1544,-2.1891,-2.2268,-2.262,-2.2933,-2.3158,-2.3318,-2.3557,-2.3801,-2.3771,-1.3433,-1.3338,-1.2638,-1.2408,-1.2601,-1.358,-1.4362,-1.5461,-1.7534,-1.9028,-1.9839,-2.0386,-2.0672,-2.0482,-1.9998,-1.9641,-1.9539,-1.9266,-1.8985,-1.8753,-1.8681,-1.8493,-1.83,-1.8264,-1.8239,-1.8294,-1.8336,-1.8438,-1.8662,-1.8487,-1.8487,-1.8608,-1.8365,-1.8012,-1.7699,-1.6616,-1.5612,-1.4417,-1.3215,-1.2218,-1.1421,-1.1346,-1.1772,-1.2732,-1.4074,-1.5151,-1.5836,-1.7067,-1.8057,-1.8616,-1.8935,-1.9086,-1.9007,-1.8813,-1.8686,-1.8687,-1.8494,-1.8367,-1.833,-1.836,-1.8415,-1.8415,-1.8373,-1.8415,-1.8432,-1.8571,-1.8692,-1.8747,-1.8899,-1.9056,-1.9038,-1.8962,-1.8852,-1.874,-1.8691,-1.8819,-1.8988,-1.9092,-1.9104,-1.9104,-1.9136,-1.9232,-1.9482,-1.9673,-1.9928,-2.0348,-2.0609,-2.0767,-2.0951,-2.1077,-2.1071,-2.1102,-2.1102,-2.1102,-2.1102,-2.1102,-2.1102,-2.1102,-2.1102,-2.1102,-2.1102,-2.1102,-2.1102,-2.1166,-2.1513,-2.1765,-2.2237,-2.2589,-2.2709,-2.3003,-2.3265,-2.361,-2.3874,-2.4148,-2.439,-1.3404,-1.3338,-1.2836,-1.2803,-1.3165,-1.4165,-1.5238,-1.6478,-1.8194,-1.9424,-2.0253,-2.0729,-2.0831,-2.0609,-2.0354,-2.0164,-1.9909,-1.9577,-1.9273,-1.8991,-1.8802,-1.865,-1.8547,-1.8378,-1.839,-1.8571,-1.8746,-1.8899,-1.8947,-1.8893,-1.8838,-1.8686,-1.8607,-1.8302,-1.7844,-1.7002,-1.6211,-1.5432,-1.4177,-1.3323,-1.3048,-1.2645,-1.2926,-1.4019,-1.4952,-1.5907,-1.6935,-1.7827,-1.8511,-1.8977,-1.9062,-1.9104,-1.9086,-1.9032,-1.8989,-1.8983,-1.8917,-1.8862,-1.8831,-1.8825,-1.8838,-1.8856,-1.885,-1.8862,-1.8831,-1.8917,-1.8977,-1.8977,-1.9062,-1.9104,-1.9104,-1.9104,-1.9062,-1.8995,-1.8983,-1.8995,-1.908,-1.9104,-1.9104,-1.9136,-1.9296,-1.9482,-1.9641,-1.9896,-2.0316,-2.057,-2.0792,-2.0982,-2.1039,-2.1102,-2.1102,-2.1102,-2.1102,-2.1102,-2.1102,-2.1102,-2.1102,-2.1102,-2.1102,-2.1102,-2.1102,-2.1102,-2.1102,-2.1292,-2.1639,-2.2041,-2.2512,-2.2827,-2.293,-2.3162,-2.3496,-2.3845,-2.4214,-2.447,-2.4683,-1.3005,-1.2972,-1.3005,-1.3334,-1.3855,-1.4856,-1.6089,-1.7453,-1.8708,-1.9775,-2.0539,-2.0951,-2.0982,-2.0799,-2.0672,-2.0482,-2.0265,-1.9941,-1.9679,-1.9412,-1.9016,-1.8862,-1.885,-1.8674,-1.8687,-1.8825,-1.9032,-1.9104,-1.9104,-1.9098,-1.9026,-1.8886,-1.8856,-1.8689,-1.8271,-1.7727,-1.7166,-1.6494,-1.5517,-1.4845,-1.462,-1.4226,-1.4487,-1.5368,-1.6107,-1.6903,-1.7867,-1.8469,-1.8886,-1.9072,-1.9104,-1.9104,-1.9104,-1.9098,-1.9104,-1.9104,-1.9104,-1.9098,-1.9104,-1.9074,-1.9104,-1.9104,-1.9104,-1.9098,-1.9098,-1.9104,-1.9104,-1.9104,-1.9104,-1.9104,-1.9104,-1.9104,-1.9104,-1.9104,-1.9098,-1.9104,-1.9104,-1.9104,-1.92,-1.9296,-1.945,-1.9699,-2.0024,-2.0253,-2.0672,-2.0761,-2.0951,-2.1102,-2.1102,-2.1102,-2.1102,-2.1102,-2.1102,-2.1102,-2.1102,-2.1102,-2.1102,-2.1102,-2.1102,-2.1102,-2.1102,-2.1102,-2.1102,-2.1481,-2.1828,-2.2174,-2.2613,-2.2911,-2.3089,-2.3415,-2.3747,-2.413,-2.4492,-2.469,-2.488,-1.2309,-1.2408,-1.3137,-1.3822,-1.4567,-1.5644,-1.6839,-1.8098,-1.9226,-2.003,-2.0634,-2.0951,-2.1077,-2.1014,-2.0799,-2.0666,-2.0577,-2.0297,-2.0106,-1.9915,-1.9527,-1.9189,-1.9152,-1.9057,-1.9026,-1.9068,-1.9098,-1.9104,-1.9104,-1.9104,-1.9104,-1.9074,-1.9062,-1.9092,-1.8898,-1.874,-1.8183,-1.7619,-1.6984,-1.6402,-1.6039,-1.5924,-1.6165,-1.6699,-1.734,-1.7929,-1.8434,-1.8854,-1.9072,-1.9104,-1.9104,-1.9104,-1.9104,-1.9104,-1.9104,-1.9104,-1.9104,-1.9104,-1.9104,-1.9104,-1.9104,-1.9104,-1.9104,-1.9104,-1.9104,-1.9104,-1.9104,-1.9104,-1.9104,-1.9104,-1.9104,-1.9104,-1.9104,-1.9104,-1.9104,-1.9104,-1.9104,-1.9136,-1.9296,-1.952,-1.9641,-1.9864,-2.045,-2.0577,-2.0792,-2.0951,-2.1077,-2.1071,-2.1102,-2.1102,-2.1102,-2.1102,-2.1109,-2.1102,-2.1102,-2.1102,-2.1102,-2.1102,-2.1102,-2.1102,-2.1102,-2.1102,-2.1235,-2.1576,-2.1856,-2.2258,-2.2619,-2.2892,-2.3249,-2.3594,-2.3992,-2.4419,-2.4719,-2.4902,-2.4976,-1.2441,-1.2737,-1.3457,-1.4301,-1.5276,-1.6537,-1.7738,-1.888,-1.9903,-2.0507,-2.0919,-2.1052,-2.1102,-2.1071,-2.1014,-2.0951,-2.0862,-2.0609,-2.045,-2.0418,-2.0074,-1.9679,-1.9456,-1.9232,-1.9104,-1.9104,-1.9136,-1.9104,-1.9104,-1.9104,-1.9104,-1.9104,-1.9104,-1.9104,-1.904,-1.879,-1.8574,-1.8291,-1.7659,-1.739,-1.7419,-1.7174,-1.7261,-1.7658,-1.8102,-1.8431,-1.8635,-1.8918,-1.9104,-1.9104,-1.9104,-1.9104,-1.9104,-1.9104,-1.9104,-1.9104,-1.9104,-1.9104,-1.9104,-1.9104,-1.9104,-1.9104,-1.9104,-1.9104,-1.9104,-1.9104,-1.9104,-1.9104,-1.9104,-1.9104,-1.9104,-1.9104,-1.9104,-1.9104,-1.9104,-1.9136,-1.9168,-1.9322,-1.9514,-1.9641,-2.0024,-2.038,-2.0609,-2.0831,-2.0982,-2.1071,-2.1102,-2.1102,-2.1102,-2.1109,-2.1109,-2.1109,-2.1109,-2.1109,-2.1102,-2.1102,-2.1102,-2.1102,-2.1102,-2.1102,-2.1102,-2.1102,-2.1292,-2.1576,-2.169,-2.1995,-2.2497,-2.2897,-2.3314,-2.3804,-2.4247,-2.4657,-2.488,-2.5056,-2.5049,-1.2371,-1.2894,-1.3908,-1.5075,-1.637,-1.7507,-1.8638,-1.9679,-2.0316,-2.0767,-2.1039,-2.1102,-2.1102,-2.1102,-2.1071,-2.1071,-2.1077,-2.0887,-2.0824,-2.0736,-2.0456,-2.0138,-1.9813,-1.959,-1.9456,-1.9296,-1.9296,-1.9232,-1.9136,-1.9104,-1.9104,-1.9104,-1.9104,-1.9104,-1.9078,-1.895,-1.8796,-1.8726,-1.8372,-1.8296,-1.8425,-1.8296,-1.8264,-1.8457,-1.872,-1.8828,-1.886,-1.9008,-1.9104,-1.9104,-1.9104,-1.9104,-1.9104,-1.9104,-1.9104,-1.9104,-1.9104,-1.9104,-1.9104,-1.9104,-1.9104,-1.9104,-1.9104,-1.9104,-1.9104,-1.9104,-1.9104,-1.9104,-1.9104,-1.9104,-1.9104,-1.9104,-1.9104,-1.9104,-1.92,-1.929,-1.9328,-1.9482,-1.9737,-1.9998,-2.0354,-2.0672,-2.0767,-2.0982,-2.1077,-2.1102,-2.1102,-2.1102,-2.1102,-2.1116,-2.1182,-2.1256,-2.1301,-2.1289,-2.1283,-2.1276,-2.1182,-2.1169,-2.1169,-2.1156,-2.1221,-2.1208,-2.1319,-2.1504,-2.1554,-2.1829,-2.247,-2.3088,-2.3564,-2.4067,-2.4502,-2.4796,-2.5012,-2.5093,-2.5093,-1.2235,-1.2984,-1.445,-1.6014,-1.7507,-1.8413,-1.9412,-2.0412,-2.064,-2.0824,-2.1046,-2.1102,-2.1102,-2.1102,-2.1102,-2.1102,-2.1102,-2.1046,-2.1077,-2.0982,-2.0767,-2.0482,-2.0265,-2.0043,-1.9845,-1.9577,-1.9577,-1.9392,-1.9168,-1.9104,-1.9104,-1.9104,-1.9104,-1.9104,-1.9104,-1.9078,-1.9104,-1.9072,-1.8976,-1.8912,-1.8976,-1.8944,-1.8912,-1.8944,-1.9008,-1.904,-1.904,-1.9104,-1.9104,-1.9104,-1.9104,-1.9104,-1.9104,-1.9104,-1.9104,-1.9104,-1.9104,-1.9104,-1.9104,-1.9104,-1.9104,-1.9104,-1.9104,-1.9104,-1.9104,-1.9104,-1.9104,-1.9104,-1.9104,-1.9104,-1.9104,-1.9104,-1.9168,-1.92,-1.9456,-1.9577,-1.9705,-1.9705,-1.9928,-2.0475,-2.0609,-2.0799,-2.0982,-2.1109,-2.1129,-2.1269,-2.1263,-2.1316,-2.1356,-2.143,-2.1529,-2.1609,-2.1596,-2.1555,-2.1529,-2.1502,-2.1375,-2.1256,-2.1263,-2.1308,-2.1491,-2.1496,-2.142,-2.1459,-2.1629,-2.2095,-2.2778,-2.3346,-2.3816,-2.4257,-2.4691,-2.4916,-2.5093,-2.5093,-2.5093,-1.2597,-1.3346,-1.5331,-1.6834,-1.8001,-1.9214,-2.0087,-2.0609,-2.0887,-2.1014,-2.1077,-2.1102,-2.1102,-2.1102,-2.1102,-2.1102,-2.1102,-2.1102,-2.1102,-2.1077,-2.1052,-2.0951,-2.0729,-2.0393,-1.9941,-1.9679,-1.9609,-1.9424,-1.9168,-1.9104,-1.9104,-1.9104,-1.9104,-1.9104,-1.9104,-1.9104,-1.9104,-1.9104,-1.9104,-1.9104,-1.9104,-1.9104,-1.9104,-1.9104,-1.9104,-1.9104,-1.9104,-1.9104,-1.9104,-1.9104,-1.9104,-1.9104,-1.9104,-1.9104,-1.9104,-1.9104,-1.911,-1.911,-1.911,-1.9128,-1.911,-1.9128,-1.914,-1.9104,-1.9104,-1.9104,-1.9104,-1.9104,-1.9104,-1.9104,-1.9104,-1.9104,-1.9232,-1.9424,-1.9577,-1.9833,-2.0253,-2.0354,-2.0412,-2.0609,-2.0831,-2.1014,-2.1084,-2.1136,-2.1223,-2.1422,-2.1529,-2.1602,-2.1669,-2.171,-2.1783,-2.183,-2.1763,-2.1676,-2.1542,-2.1495,-2.1395,-2.1368,-2.1402,-2.1495,-2.1672,-2.1779,-2.1711,-2.1726,-2.1782,-2.2368,-2.2985,-2.3419,-2.3842,-2.4355,-2.4803,-2.4955,-2.5093,-2.5093,-2.5093,-1.3025,-1.4002,-1.5926,-1.7421,-1.8617,-1.9794,-2.0532,-2.0824,-2.1014,-2.1102,-2.1102,-2.1102,-2.1102,-2.1102,-2.1102,-2.1102,-2.1102,-2.1102,-2.1102,-2.1077,-2.1077,-2.1071,-2.1014,-2.0609,-2.0164,-1.9877,-1.9845,-1.959,-1.9232,-1.9104,-1.9104,-1.9104,-1.9104,-1.9104,-1.9104,-1.9104,-1.9104,-1.9104,-1.9104,-1.9104,-1.9104,-1.9104,-1.9104,-1.9104,-1.9104,-1.9104,-1.9104,-1.9104,-1.9104,-1.9104,-1.9104,-1.9104,-1.9104,-1.9104,-1.9104,-1.9104,-1.9104,-1.9189,-1.9243,-1.9285,-1.9298,-1.9285,-1.9285,-1.9207,-1.9146,-1.9104,-1.9104,-1.9104,-1.9104,-1.9104,-1.9104,-1.9264,-1.9424,-1.9577,-1.9896,-2.0221,-2.0513,-2.0609,-2.0672,-2.0799,-2.0989,-2.1046,-2.1116,-2.1209,-2.1349,-2.1569,-2.1744,-2.185,-2.1843,-2.1903,-2.193,-2.1943,-2.187,-2.1756,-2.1569,-2.1455,-2.1336,-2.1408,-2.1522,-2.1669,-2.1888,-2.1969,-2.2029,-2.2096,-2.2221,-2.2483,-2.3045,-2.3473,-2.3942,-2.4381,-2.4752,-2.4977,-2.5093,-2.5093,-2.5093,-1.3682,-1.4698,-1.6483,-1.7969,-1.9232,-2.0259,-2.0824,-2.1046,-2.1102,-2.1102,-2.1102,-2.1102,-2.1102,-2.1102,-2.1102,-2.1102,-2.1102,-2.1102,-2.1102,-2.1102,-2.1102,-2.1102,-2.1014,-2.0729,-2.0386,-2.0106,-1.9979,-1.9622,-1.9232,-1.9104,-1.9104,-1.9104,-1.9104,-1.9104,-1.9104,-1.9104,-1.9104,-1.9104,-1.9104,-1.9104,-1.9104,-1.9104,-1.9104,-1.9104,-1.9104,-1.9104,-1.9104,-1.9104,-1.9104,-1.9104,-1.9104,-1.9104,-1.9104,-1.9104,-1.9104,-1.9104,-1.9104,-1.9219,-1.9382,-1.9425,-1.9406,-1.9479,-1.9431,-1.9328,-1.9159,-1.9104,-1.9104,-1.9104,-1.9104,-1.9136,-1.92,-1.9386,-1.9609,-1.9833,-2.0284,-2.0577,-2.0672,-2.0672,-2.0831,-2.0982,-2.1091,-2.1097,-2.1249,-2.1408,-2.1555,-2.1729,-2.1911,-2.2071,-2.2078,-2.2144,-2.2218,-2.2178,-2.2178,-2.1856,-2.1622,-2.1555,-2.1416,-2.1557,-2.1703,-2.1976,-2.2177,-2.2345,-2.2459,-2.2577,-2.2751,-2.2982,-2.3314,-2.385,-2.4233,-2.4522,-2.4747,-2.5025,-2.5093,-2.5093,-2.5093,-1.4814,-1.5406,-1.741,-1.8734,-1.9609,-2.0602,-2.1014,-2.1071,-2.1102,-2.1102,-2.1102,-2.1102,-2.1102,-2.1102,-2.1102,-2.1102,-2.1102,-2.1102,-2.1102,-2.1102,-2.1102,-2.1102,-2.1007,-2.0767,-2.0425,-2.01,-1.9877,-1.9494,-1.9206,-1.9104,-1.9104,-1.9104,-1.9104,-1.9104,-1.9104,-1.9104,-1.9104,-1.9104,-1.9104,-1.9104,-1.9104,-1.9104,-1.9104,-1.9104,-1.9104,-1.9104,-1.911,-1.9104,-1.9104,-1.9104,-1.9104,-1.9122,-1.9165,-1.9165,-1.9159,-1.9146,-1.9183,-1.9334,-1.9527,-1.9346,-1.934,-1.9382,-1.9346,-1.9207,-1.9122,-1.9104,-1.9136,-1.9136,-1.9168,-1.92,-1.9482,-1.9641,-1.9934,-2.0253,-2.0507,-2.0736,-2.0919,-2.1016,-2.1029,-2.1169,-2.1169,-2.1209,-2.1408,-2.1622,-2.1856,-2.205,-2.2225,-2.2418,-2.2546,-2.2592,-2.2659,-2.2612,-2.2505,-2.2104,-2.1676,-2.1656,-2.1629,-2.1824,-2.2017,-2.2364,-2.2586,-2.2795,-2.2916,-2.2957,-2.3132,-2.3357,-2.3773,-2.4162,-2.4338,-2.4469,-2.4747,-2.5059,-2.5093,-2.5093,-2.5093,-1.5921,-1.6418,-1.8098,-1.913,-1.9737,-2.0666,-2.1102,-2.1102,-2.1102,-2.1102,-2.1102,-2.1102,-2.1102,-2.1102,-2.1102,-2.1102,-2.1102,-2.1102,-2.1102,-2.1102,-2.1102,-2.1102,-2.1046,-2.0767,-2.0545,-2.0259,-1.9871,-1.9424,-1.9136,-1.9104,-1.9104,-1.9104,-1.9104,-1.9104,-1.9104,-1.9104,-1.9104,-1.9104,-1.9104,-1.9104,-1.9104,-1.9104,-1.9104,-1.9104,-1.911,-1.9104,-1.9134,-1.9267,-1.9304,-1.934,-1.9455,-1.9509,-1.9515,-1.9503,-1.9428,-1.937,-1.9437,-1.9636,-1.9817,-1.9684,-1.9624,-1.9666,-1.9461,-1.9249,-1.9146,-1.9104,-1.9174,-1.9296,-1.9354,-1.9488,-1.9845,-1.9966,-2.0284,-2.0539,-2.0729,-2.0919,-2.1079,-2.1249,-2.1289,-2.1348,-2.1422,-2.1489,-2.1562,-2.1816,-2.2131,-2.2338,-2.2539,-2.2733,-2.2887,-2.2893,-2.288,-2.2699,-2.2519,-2.2225,-2.1863,-2.181,-2.1817,-2.2038,-2.2205,-2.2553,-2.2788,-2.2902,-2.3058,-2.3188,-2.3413,-2.3611,-2.3747,-2.3972,-2.419,-2.4435,-2.4747,-2.5025,-2.5059,-2.5093,-2.5093,-1.7163,-1.7556,-1.8778,-1.9488,-1.9896,-2.0722,-2.1102,-2.1102,-2.1102,-2.1102,-2.1102,-2.1102,-2.1102,-2.1102,-2.1102,-2.1102,-2.1102,-2.1102,-2.1102,-2.1102,-2.1102,-2.1102,-2.1014,-2.0799,-2.0577,-2.045,-1.9903,-1.9482,-1.9264,-1.9136,-1.9104,-1.9104,-1.9104,-1.9104,-1.9104,-1.9104,-1.9104,-1.9104,-1.9104,-1.9104,-1.9104,-1.9104,-1.9104,-1.9122,-1.9159,-1.9201,-1.9237,-1.9461,-1.957,-1.9636,-1.9757,-1.9857,-1.9881,-1.9963,-1.989,-1.9739,-1.9808,-2.0008,-2.0122,-2.0035,-1.9842,-1.9854,-1.9642,-1.9388,-1.9215,-1.92,-1.9322,-1.9545,-1.9679,-1.9839,-2.0164,-2.0418,-2.0609,-2.0767,-2.0951,-2.1122,-2.1189,-2.1296,-2.1502,-2.1562,-2.1695,-2.1796,-2.1923,-2.2017,-2.2298,-2.2539,-2.274,-2.2766,-2.29,-2.29,-2.284,-2.2592,-2.2418,-2.2251,-2.2044,-2.1964,-2.2051,-2.2238,-2.2345,-2.2512,-2.2733,-2.2887,-2.3065,-2.3174,-2.3474,-2.3645,-2.3713,-2.3884,-2.4231,-2.457,-2.4815,-2.4984,-2.5059,-2.5093,-2.5093,-1.8816,-1.8912,-1.9641,-2.0183,-2.0507,-2.0919,-2.1102,-2.1102,-2.1102,-2.1102,-2.1102,-2.1102,-2.1102,-2.1102,-2.1102,-2.1102,-2.1102,-2.1102,-2.1102,-2.1102,-2.1102,-2.1102,-2.1039,-2.0767,-2.0672,-2.0545,-1.9966,-1.9641,-1.945,-1.9264,-1.9104,-1.9104,-1.9104,-1.9104,-1.9104,-1.9152,-1.9104,-1.911,-1.9128,-1.914,-1.9146,-1.9159,-1.9159,-1.9207,-1.9334,-1.9455,-1.9491,-1.9715,-1.9827,-1.9878,-1.9908,-1.9899,-1.9917,-2.015,-2.0235,-2.0156,-2.0083,-2.0035,-2.0247,-2.008,-1.9935,-1.9893,-1.9697,-1.94,-1.937,-1.9484,-1.9638,-1.9577,-1.9908,-2.0279,-2.0592,-2.0629,-2.0787,-2.0985,-2.1179,-2.1209,-2.1236,-2.1603,-2.1776,-2.1897,-2.203,-2.2204,-2.2325,-2.2392,-2.2492,-2.2686,-2.2867,-2.2887,-2.29,-2.29,-2.29,-2.2686,-2.2492,-2.2325,-2.2298,-2.2211,-2.2265,-2.2405,-2.2478,-2.2572,-2.2712,-2.29,-2.29,-2.3051,-2.3338,-2.3679,-2.385,-2.4088,-2.4401,-2.4604,-2.4781,-2.495,-2.5093,-2.5093,-2.5093,-2.0004,-1.9717,-2.0189,-2.0475,-2.064,-2.0951,-2.1102,-2.1102,-2.1102,-2.1102,-2.1102,-2.1102,-2.1102,-2.1102,-2.1102,-2.1102,-2.1102,-2.1102,-2.1102,-2.1102,-2.1102,-2.1102,-2.1077,-2.0951,-2.0894,-2.0704,-2.0291,-1.9941,-1.9743,-1.9392,-1.9104,-1.9104,-1.911,-1.9104,-1.9159,-1.9261,-1.9322,-1.9382,-1.944,-1.9537,-1.9537,-1.9531,-1.9558,-1.9558,-1.9672,-1.9727,-1.9799,-1.9993,-2.0132,-2.0174,-2.0253,-2.0362,-2.0346,-2.047,-2.0531,-2.0525,-2.044,-2.0434,-2.0495,-2.0277,-2.014,-2.0038,-1.9896,-1.9769,-1.9805,-1.9964,-2.0291,-2.0675,-2.0805,-2.1046,-2.1292,-2.1383,-2.1448,-2.1564,-2.1516,-2.1537,-2.1603,-2.1884,-2.2131,-2.2245,-2.2385,-2.2492,-2.2612,-2.2639,-2.2659,-2.2746,-2.288,-2.2893,-2.29,-2.29,-2.29,-2.2873,-2.2645,-2.2458,-2.2485,-2.2478,-2.2485,-2.2612,-2.2692,-2.2746,-2.2792,-2.29,-2.29,-2.29,-2.3071,-2.3406,-2.385,-2.4163,-2.4401,-2.4536,-2.4672,-2.4883,-2.5093,-2.5093,-2.5093,-2.0799,-2.0393,-2.064,-2.0729,-2.0736,-2.0982,-2.1102,-2.1102,-2.1102,-2.1102,-2.1102,-2.1102,-2.1102,-2.1102,-2.1102,-2.1102,-2.1102,-2.1102,-2.1102,-2.1102,-2.1102,-2.1102,-2.1071,-2.1071,-2.1071,-2.1071,-2.0507,-2.0195,-1.9909,-1.9558,-1.92,-1.911,-1.9213,-1.9219,-1.9285,-1.9455,-1.9606,-1.9618,-1.9775,-1.986,-1.9839,-1.9845,-1.9851,-1.9914,-1.9975,-2.0017,-2.002,-2.0265,-2.0404,-2.0446,-2.0549,-2.0622,-2.0646,-2.0646,-2.0664,-2.0664,-2.0622,-2.0634,-2.0622,-2.0507,-2.0398,-2.0253,-2.0184,-2.0093,-2.0298,-2.0508,-2.08,-2.1325,-2.1496,-2.1707,-2.1912,-2.1951,-2.1911,-2.1891,-2.1943,-2.1997,-2.2031,-2.2198,-2.2311,-2.2365,-2.2492,-2.274,-2.2833,-2.286,-2.288,-2.2887,-2.29,-2.29,-2.29,-2.29,-2.29,-2.2887,-2.2645,-2.2519,-2.2639,-2.2713,-2.2753,-2.278,-2.286,-2.29,-2.29,-2.29,-2.29,-2.29,-2.29,-2.3167,-2.3645,-2.402,-2.4401,-2.4679,-2.4883,-2.4991,-2.5093,-2.5093,-2.5093,-2.1077,-2.1046,-2.1039,-2.1039,-2.1039,-2.1071,-2.1102,-2.1102,-2.1102,-2.1102,-2.1102,-2.1102,-2.1102,-2.1102,-2.1102,-2.1102,-2.1102,-2.1102,-2.1102,-2.1102,-2.1102,-2.1102,-2.1102,-2.1102,-2.1071,-2.1046,-2.0672,-2.0354,-2.0068,-1.9711,-1.936,-1.9198,-1.9304,-1.9418,-1.9545,-1.9709,-1.9875,-1.9899,-1.9989,-2.0011,-2.0005,-1.9999,-1.9959,-2.0023,-2.0162,-2.0289,-2.0301,-2.0507,-2.0628,-2.0628,-2.0676,-2.07,-2.07,-2.07,-2.07,-2.07,-2.07,-2.07,-2.067,-2.0652,-2.0549,-2.0387,-2.034,-2.0392,-2.0651,-2.113,-2.1423,-2.1633,-2.1932,-2.2005,-2.2064,-2.2037,-2.2164,-2.2198,-2.2251,-2.2238,-2.2291,-2.2352,-2.2458,-2.2485,-2.2612,-2.2833,-2.29,-2.29,-2.29,-2.29,-2.29,-2.29,-2.29,-2.29,-2.29,-2.284,-2.2592,-2.2559,-2.2786,-2.28,-2.2645,-2.276,-2.288,-2.29,-2.29,-2.29,-2.29,-2.2934,-2.2969,-2.3167,-2.3441,-2.3959,-2.4435,-2.4849,-2.5093,-2.5093,-2.5093,-2.5093,-2.5093,-2.1102,-2.1102,-2.1102,-2.1102,-2.1102,-2.1102,-2.1102,-2.1102,-2.1102,-2.1102,-2.1102,-2.1102,-2.1102,-2.1102,-2.1102,-2.1102,-2.1102,-2.1102,-2.1102,-2.1102,-2.1102,-2.1077,-2.1077,-2.1122,-2.1071,-2.1027,-2.0767,-2.0418,-2.0068,-1.9775,-1.9424,-1.9285,-1.94,-1.9461,-1.9618,-1.9905,-2.0204,-2.0321,-2.0346,-2.0392,-2.0398,-2.0404,-2.037,-2.0416,-2.0458,-2.0549,-2.0567,-2.064,-2.0688,-2.07,-2.07,-2.07,-2.07,-2.07,-2.07,-2.07,-2.07,-2.07,-2.07,-2.07,-2.0646,-2.0597,-2.0595,-2.0743,-2.1079,-2.1565,-2.195,-2.2234,-2.2424,-2.2445,-2.2546,-2.2559,-2.2592,-2.2566,-2.2532,-2.2499,-2.2525,-2.2572,-2.2612,-2.2645,-2.2719,-2.288,-2.29,-2.29,-2.29,-2.29,-2.29,-2.29,-2.29,-2.29,-2.29,-2.2867,-2.2639,-2.2605,-2.2827,-2.2692,-2.2552,-2.2699,-2.29,-2.29,-2.29,-2.29,-2.29,-2.2934,-2.3106,-2.3372,-2.3679,-2.4061,-2.4442,-2.4781,-2.4991,-2.5093,-2.5093,-2.5093,-2.5093,-2.1029,-2.1102,-2.1102,-2.1102,-2.1102,-2.1102,-2.1102,-2.1102,-2.1102,-2.1102,-2.1102,-2.1102,-2.1102,-2.1102,-2.1102,-2.1102,-2.1102,-2.1102,-2.1102,-2.1142,-2.1196,-2.1229,-2.1243,-2.1249,-2.1283,-2.1166,-2.0876,-2.0577,-2.0106,-1.9877,-1.9594,-1.9427,-1.9473,-1.9612,-1.9763,-2.0138,-2.0525,-2.0658,-2.07,-2.07,-2.0682,-2.0676,-2.0676,-2.0664,-2.067,-2.0676,-2.067,-2.0694,-2.0694,-2.07,-2.07,-2.07,-2.07,-2.07,-2.07,-2.07,-2.07,-2.07,-2.07,-2.07,-2.07,-2.0664,-2.0802,-2.117,-2.1628,-2.1904,-2.2232,-2.2703,-2.2832,-2.29,-2.29,-2.2827,-2.28,-2.2746,-2.276,-2.274,-2.2753,-2.2806,-2.2827,-2.2853,-2.29,-2.29,-2.29,-2.29,-2.2934,-2.2934,-2.29,-2.29,-2.29,-2.29,-2.29,-2.2853,-2.2753,-2.2786,-2.2847,-2.278,-2.2692,-2.2739,-2.29,-2.29,-2.29,-2.2907,-2.301,-2.3133,-2.3304,-2.3577,-2.385,-2.4163,-2.4435,-2.4672,-2.4883,-2.5093,-2.5093,-2.5093,-2.5093,-2.0855,-2.1096,-2.1102,-2.1102,-2.1102,-2.1102,-2.1102,-2.1102,-2.1102,-2.1102,-2.1109,-2.1129,-2.1149,-2.1156,-2.1209,-2.1229,-2.1176,-2.1162,-2.1136,-2.1162,-2.1276,-2.1482,-2.1509,-2.1482,-2.1442,-2.1475,-2.1227,-2.0776,-2.0145,-2.0138,-1.9874,-1.9752,-1.9913,-1.9999,-1.9969,-2.0422,-2.0676,-2.07,-2.07,-2.07,-2.07,-2.07,-2.07,-2.07,-2.07,-2.07,-2.07,-2.07,-2.07,-2.07,-2.07,-2.07,-2.07,-2.07,-2.07,-2.07,-2.07,-2.07,-2.07,-2.07,-2.07,-2.07,-2.0873,-2.1214,-2.1697,-2.2042,-2.2351,-2.2688,-2.2859,-2.29,-2.29,-2.29,-2.29,-2.29,-2.29,-2.29,-2.29,-2.29,-2.29,-2.29,-2.29,-2.29,-2.29,-2.2934,-2.2969,-2.2969,-2.29,-2.29,-2.29,-2.29,-2.29,-2.2873,-2.2813,-2.284,-2.2873,-2.2887,-2.2873,-2.29,-2.29,-2.29,-2.2934,-2.298,-2.3098,-2.3256,-2.3468,-2.3632,-2.3954,-2.4265,-2.4536,-2.4849,-2.495,-2.5093,-2.5093,-2.5093,-2.5093,-2.0766,-2.0835,-2.1029,-2.1102,-2.1102,-2.1102,-2.1102,-2.1102,-2.1102,-2.1102,-2.1156,-2.1328,-2.1435,-2.1475,-2.1582,-2.155,-2.1448,-2.1428,-2.1388,-2.1156,-2.1303,-2.1236,-2.1329,-2.1535,-2.1502,-2.1375,-2.1237,-2.1071,-2.0456,-2.0386,-2.0362,-2.0285,-2.0524,-2.0693,-2.0559,-2.0658,-2.07,-2.07,-2.07,-2.07,-2.07,-2.07,-2.07,-2.07,-2.07,-2.07,-2.07,-2.07,-2.07,-2.07,-2.07,-2.07,-2.07,-2.07,-2.07,-2.07,-2.07,-2.07,-2.07,-2.07,-2.07,-2.0735,-2.0839,-2.1075,-2.138,-2.1766,-2.2104,-2.2448,-2.2688,-2.2763,-2.29,-2.29,-2.29,-2.29,-2.29,-2.29,-2.29,-2.29,-2.29,-2.29,-2.29,-2.2934,-2.2941,-2.3208,-2.3311,-2.3345,-2.3345,-2.3065,-2.2996,-2.2934,-2.29,-2.29,-2.2873,-2.2887,-2.29,-2.29,-2.29,-2.29,-2.29,-2.29,-2.2947,-2.2993,-2.3103,-2.3248,-2.346,-2.3701,-2.4002,-2.4333,-2.4747,-2.5025,-2.5059,-2.5093,-2.5093,-2.5093,-2.5093,-2.0581,-2.0739,-2.0989,-2.1102,-2.1102,-2.1102,-2.1102,-2.1102,-2.1102,-2.1102,-2.1149,-2.1348,-2.1489,-2.1602,-2.1743,-2.191,-2.1723,-2.1729,-2.1696,-2.1436,-2.1518,-2.1544,-2.1603,-2.163,-2.1683,-2.1475,-2.139,-2.1249,-2.059,-2.0577,-2.0586,-2.0762,-2.124,-2.1143,-2.0985,-2.0896,-2.0839,-2.077,-2.07,-2.07,-2.07,-2.07,-2.07,-2.07,-2.07,-2.07,-2.07,-2.07,-2.07,-2.07,-2.07,-2.07,-2.07,-2.07,-2.07,-2.07,-2.07,-2.07,-2.07,-2.07,-2.07,-2.07,-2.07,-2.0873,-2.1144,-2.1449,-2.1766,-2.207,-2.242,-2.2585,-2.2688,-2.2688,-2.2783,-2.279,-2.2947,-2.2947,-2.2974,-2.2974,-2.2973,-2.2959,-2.2987,-2.3008,-2.3147,-2.3447,-2.3713,-2.3789,-2.3823,-2.3577,-2.3304,-2.3167,-2.3106,-2.3071,-2.2969,-2.2928,-2.2934,-2.29,-2.29,-2.29,-2.2934,-2.2987,-2.2994,-2.304,-2.3122,-2.3218,-2.3437,-2.368,-2.4064,-2.4442,-2.4856,-2.5059,-2.5059,-2.5093,-2.5093,-2.5093,-2.5093,-2.0388,-2.0719,-2.0975,-2.1096,-2.1102,-2.1102,-2.1102,-2.1102,-2.1102,-2.1102,-2.1109,-2.1149,-2.1368,-2.1569,-2.1642,-2.1796,-2.1977,-2.1964,-2.193,-2.1944,-2.1971,-2.1971,-2.1984,-2.2078,-2.1883,-2.1683,-2.1555,-2.1313,-2.0705,-2.0868,-2.0948,-2.1106,-2.1654,-2.1596,-2.1408,-2.1214,-2.1047,-2.0804,-2.07,-2.07,-2.07,-2.07,-2.07,-2.07,-2.07,-2.07,-2.07,-2.07,-2.07,-2.07,-2.07,-2.07,-2.07,-2.07,-2.07,-2.07,-2.07,-2.07,-2.07,-2.07,-2.07,-2.07,-2.07,-2.0908,-2.1075,-2.1214,-2.1455,-2.1697,-2.1973,-2.2138,-2.2269,-2.2453,-2.263,-2.2794,-2.2993,-2.3054,-2.3087,-2.308,-2.312,-2.3161,-2.3202,-2.328,-2.3516,-2.3816,-2.4556,-2.509,-2.5218,-2.5184,-2.4745,-2.3706,-2.3611,-2.3345,-2.3242,-2.303,-2.301,-2.3119,-2.3062,-2.3102,-2.3121,-2.3161,-2.312,-2.3194,-2.335,-2.3445,-2.3453,-2.3658,-2.403,-2.4483,-2.4958,-2.5093,-2.5093,-2.5093,-2.5093,-2.5093,-2.5093,-2.01,-2.0357,-2.0675,-2.0915,-2.1089,-2.1102,-2.1102,-2.1102,-2.1102,-2.1102,-2.1116,-2.1361,-2.1468,-2.1616,-2.1977,-2.2038,-2.2098,-2.2111,-2.1944,-2.1977,-2.2078,-2.1911,-2.1911,-2.2044,-2.1883,-2.1716,-2.1555,-2.1418,-2.1168,-2.1276,-2.1574,-2.1786,-2.2185,-2.208,-2.1794,-2.1628,-2.1214,-2.0873,-2.0735,-2.07,-2.07,-2.07,-2.07,-2.07,-2.07,-2.07,-2.07,-2.07,-2.07,-2.07,-2.07,-2.07,-2.07,-2.07,-2.07,-2.07,-2.07,-2.07,-2.07,-2.07,-2.07,-2.07,-2.07,-2.0706,-2.0873,-2.1041,-2.1214,-2.1386,-2.1603,-2.1836,-2.2211,-2.2443,-2.2751,-2.3067,-2.326,-2.3382,-2.3422,-2.344,-2.3467,-2.3395,-2.3465,-2.3666,-2.3899,-2.482,-2.5588,-2.6285,-2.672,-2.6753,-2.6252,-2.5218,-2.4413,-2.4183,-2.3857,-2.3747,-2.3543,-2.3536,-2.3403,-2.3318,-2.3378,-2.3403,-2.336,-2.3469,-2.3638,-2.3737,-2.3763,-2.3831,-2.3988,-2.4483,-2.5059,-2.5093,-2.5093,-2.5093,-2.5093,-2.5093,-2.5093,-1.987,-2.0094,-2.0374,-2.0668,-2.0909,-2.0942,-2.0989,-2.1089,-2.1102,-2.1102,-2.1097,-2.1283,-2.1475,-2.1622,-2.1871,-2.2004,-2.2004,-2.2104,-2.2078,-2.2124,-2.2051,-2.2064,-2.2044,-2.2117,-2.203,-2.1816,-2.1649,-2.1649,-2.149,-2.181,-2.2131,-2.2178,-2.2665,-2.2464,-2.2138,-2.18,-2.1455,-2.1075,-2.0804,-2.0735,-2.07,-2.07,-2.07,-2.07,-2.07,-2.07,-2.07,-2.07,-2.07,-2.07,-2.07,-2.07,-2.07,-2.07,-2.07,-2.07,-2.07,-2.07,-2.07,-2.07,-2.07,-2.0706,-2.0706,-2.07,-2.0741,-2.0873,-2.0943,-2.1047,-2.1354,-2.1685,-2.2128,-2.2574,-2.3001,-2.343,-2.3585,-2.3777,-2.3843,-2.3904,-2.3817,-2.3718,-2.3833,-2.4081,-2.4694,-2.5704,-2.6694,-2.7526,-2.8213,-2.8567,-2.7908,-2.6853,-2.5984,-2.5487,-2.4962,-2.4597,-2.4392,-2.4232,-2.4088,-2.3968,-2.3845,-2.3836,-2.37,-2.3694,-2.3857,-2.3998,-2.4132,-2.4143,-2.4133,-2.4613,-2.5093,-2.5093,-2.5093,-2.5093,-2.5093,-2.5093,-2.5093,-1.978,-1.9833,-2.0053,-2.034,-2.059,-2.061,-2.0771,-2.1031,-2.1017,-2.1082,-2.1102,-2.1109,-2.1269,-2.1489,-2.1669,-2.1816,-2.1903,-2.1997,-2.2144,-2.2331,-2.2331,-2.2278,-2.2311,-2.2592,-2.2124,-2.185,-2.1689,-2.1616,-2.1763,-2.2024,-2.2345,-2.2438,-2.2746,-2.2619,-2.2138,-2.1904,-2.1524,-2.1047,-2.0804,-2.07,-2.07,-2.07,-2.07,-2.07,-2.07,-2.07,-2.07,-2.07,-2.07,-2.07,-2.07,-2.07,-2.07,-2.0767,-2.0761,-2.07,-2.07,-2.07,-2.07,-2.07,-2.07,-2.0712,-2.0724,-2.073,-2.0771,-2.0747,-2.0804,-2.0926,-2.1245,-2.1726,-2.2185,-2.2637,-2.3077,-2.3598,-2.3948,-2.4042,-2.4108,-2.4115,-2.4015,-2.4004,-2.4171,-2.4456,-2.5332,-2.6344,-2.7831,-2.8717,-2.9543,-3.0098,-2.9846,-2.8765,-2.7874,-2.7069,-2.6512,-2.6071,-2.5639,-2.5425,-2.4977,-2.4743,-2.4593,-2.4251,-2.4127,-2.4098,-2.4082,-2.4194,-2.4275,-2.4303,-2.4384,-2.4789,-2.5074,-2.5093,-2.5093,-2.5093,-2.5093,-2.51,-2.5188,-1.9599,-1.9797,-1.9886,-1.9959,-2.0012,-2.0018,-2.0176,-2.0432,-2.0688,-2.0902,-2.1082,-2.1109,-2.1142,-2.1249,-2.1482,-2.1622,-2.1689,-2.1797,-2.1997,-2.2164,-2.2285,-2.2338,-2.2171,-2.2331,-2.203,-2.1676,-2.1463,-2.1563,-2.1757,-2.2124,-2.2432,-2.2465,-2.2712,-2.2619,-2.2035,-2.1835,-2.1524,-2.0977,-2.0804,-2.07,-2.07,-2.07,-2.07,-2.07,-2.07,-2.07,-2.0706,-2.0718,-2.0706,-2.07,-2.07,-2.07,-2.0706,-2.0894,-2.0875,-2.0749,-2.07,-2.07,-2.07,-2.0706,-2.0718,-2.0791,-2.0827,-2.0815,-2.0785,-2.073,-2.0785,-2.0977,-2.127,-2.1794,-2.2296,-2.2745,-2.3239,-2.3783,-2.4292,-2.4359,-2.4382,-2.4352,-2.4272,-2.4343,-2.4483,-2.515,-2.598,-2.7236,-2.8718,-2.9896,-3.0874,-3.1502,-3.1773,-3.1128,-3.0055,-2.9235,-2.8403,-2.7856,-2.7302,-2.6817,-2.647,-2.5979,-2.5727,-2.5253,-2.4629,-2.4325,-2.4135,-2.4314,-2.4382,-2.4358,-2.4439,-2.4797,-2.5009,-2.5074,-2.5093,-2.5093,-2.5115,-2.513,-2.5276,-1.9488,-1.9597,-1.9453,-1.9388,-1.9402,-1.9385,-1.9607,-1.9994,-2.0211,-2.0524,-2.0922,-2.1036,-2.1102,-2.1071,-2.1296,-2.1402,-2.1428,-2.1535,-2.1764,-2.1977,-2.2131,-2.2325,-2.2258,-2.2191,-2.2158,-2.1891,-2.181,-2.1877,-2.1957,-2.2358,-2.2673,-2.2591,-2.2772,-2.2592,-2.2035,-2.1835,-2.149,-2.0971,-2.077,-2.0706,-2.07,-2.07,-2.07,-2.07,-2.07,-2.0706,-2.0755,-2.0779,-2.0797,-2.0803,-2.0815,-2.0888,-2.0918,-2.1008,-2.0936,-2.0785,-2.07,-2.07,-2.0718,-2.0742,-2.0791,-2.0906,-2.0978,-2.0978,-2.1243,-2.1206,-2.1343,-2.152,-2.1844,-2.2332,-2.2898,-2.3402,-2.394,-2.4516,-2.4726,-2.4803,-2.4823,-2.4789,-2.4639,-2.4469,-2.49,-2.5696,-2.665,-2.7861,-2.9327,-3.0647,-3.1681,-3.2565,-3.292,-3.3078,-3.2129,-3.1329,-3.0437,-2.9652,-2.9052,-2.8556,-2.8137,-2.7582,-2.698,-2.5919,-2.5128,-2.4544,-2.4198,-2.4235,-2.4275,-2.4358,-2.4521,-2.4816,-2.5009,-2.5066,-2.5093,-2.5093,-2.513,-2.5217,-2.5396,-1.9354,-1.9336,-1.8988,-1.8855,-1.883,-1.885,-1.9165,-1.9646,-1.977,-2.0174,-2.0702,-2.0949,-2.1056,-2.1077,-2.1077,-2.1077,-2.1142,-2.1243,-2.151,-2.1816,-2.1943,-2.2151,-2.2352,-2.2412,-2.2258,-2.2245,-2.2238,-2.2191,-2.2191,-2.2503,-2.2669,-2.275,-2.2694,-2.2557,-2.2173,-2.1869,-2.1421,-2.1041,-2.0839,-2.07,-2.07,-2.07,-2.07,-2.07,-2.0706,-2.0718,-2.0815,-2.0894,-2.093,-2.1045,-2.1099,-2.116,-2.1208,-2.125,-2.1123,-2.1002,-2.0936,-2.0918,-2.0888,-2.0918,-2.1008,-2.1099,-2.1148,-2.131,-2.1546,-2.1768,-2.1866,-2.2182,-2.2475,-2.2921,-2.3488,-2.4073,-2.4639,-2.5339,-2.5462,-2.5586,-2.5586,-2.5543,-2.5279,-2.5015,-2.5657,-2.6447,-2.752,-2.8697,-2.9992,-3.131,-3.2296,-3.3152,-3.3783,-3.3807,-3.3396,-3.2907,-3.232,-3.1588,-3.0884,-3.0368,-2.9878,-2.9098,-2.8349,-2.6871,-2.5587,-2.491,-2.4345,-2.3995,-2.4058,-2.433,-2.4541,-2.4787,-2.4933,-2.51,-2.5093,-2.5122,-2.5249,-2.5366,-2.5615,-1.9145,-1.9372,-1.8742,-1.8489,-1.8504,-1.8504,-1.8722,-1.9137,-1.9625,-2.0144,-2.0555,-2.0715,-2.0869,-2.1096,-2.1071,-2.1102,-2.1102,-2.1109,-2.1289,-2.1616,-2.1723,-2.1937,-2.2184,-2.2365,-2.2131,-2.2184,-2.2311,-2.2257,-2.2215,-2.233,-2.2276,-2.211,-2.2076,-2.1869,-2.1518,-2.1317,-2.1214,-2.0902,-2.0804,-2.07,-2.07,-2.07,-2.07,-2.07,-2.07,-2.0839,-2.0972,-2.1057,-2.1202,-2.1383,-2.1547,-2.1547,-2.154,-2.1547,-2.1474,-2.1263,-2.1232,-2.1244,-2.1226,-2.1226,-2.1323,-2.1414,-2.1486,-2.1595,-2.1867,-2.2129,-2.2363,-2.28,-2.3156,-2.3647,-2.4186,-2.4803,-2.5419,-2.6502,-2.7019,-2.7136,-2.7172,-2.6918,-2.6626,-2.6655,-2.6939,-2.7776,-2.8614,-2.9845,-3.1085,-3.2232,-3.2988,-3.3841,-3.4489,-3.4566,-3.4557,-3.4247,-3.3885,-3.3477,-3.2744,-3.2196,-3.1641,-3.0779,-2.9567,-2.787,-2.6394,-2.5221,-2.4678,-2.4348,-2.4316,-2.4553,-2.4714,-2.4879,-2.4975,-2.5115,-2.51,-2.5152,-2.5308,-2.5471,-2.5641]},{"header":{"parameterUnit":"m.s-1","parameterCategory":1,"la1":31.0,"la2":29.5877,"lo1":-88.7671,"lo2":-86.6584,"dy":0.0162,"dx":0.0185,"nx":115,"ny":88,"refTime":"2024-03-04T06:00:00:Z","depth":0,"parameterNumber":3,"parameterNumberName":"V-component_of_WINDS"},"data":[0.0,0.0,0.0,0.0,0.0,0.0,0.0,0.0,0.0,0.0,0.0,0.0,0.0,0.0,0.0,0.0,0.0,0.0,0.0,0.0,0.0,0.0,0.0,0.0,0.0,0.0,0.0,0.0,0.0,0.0,0.0,0.0,0.0,0.0,0.0,0.0,0.0,0.0,0.0,0.0,0.0,0.0,0.0,0.0,0.0,0.0,0.0,0.0,0.0,0.0,0.0,0.0,0.0,0.0,0.0,0.0,0.0,0.0,0.0,0.0,0.0,0.0,0.0,0.0,0.0,0.0,0.0,0.0,0.0,0.0,0.0,0.0,0.0,0.0,0.0,0.0,0.0,0.0,0.0,0.0,0.0,0.0,0.0,0.0,0.0,0.0,0.0,0.0,0.0,0.0,0.0,0.0,0.0,0.0,0.0,0.0,0.0,0.0,0.0,0.0,0.0,0.0,0.0,0.0,0.0,0.0,0.0,0.0,0.0,0.0,0.0,0.0,0.0,0.0,0.0,0.0,0.0,0.0,0.0,0.0,0.0,0.0,0.0,0.0,0.0,0.0,0.0,0.0,0.0,0.0,0.0,0.0,0.0,0.0,0.0,0.0,0.0,0.0,0.0,0.0,0.0,0.0,0.0,0.0,0.0,0.0,0.0,0.0,0.0,0.0,0.0,0.0,0.0,0.0,0.0,0.0,0.0,0.0,0.0,0.0,0.0,0.0,0.0,0.0,0.0,0.0,0.0,0.0,0.0,0.0,0.0,0.0,0.0,0.0,0.0,0.0,0.0,0.0,0.0,0.0,0.0,0.0,0.0,0.0,0.0,0.0,0.0,0.0,0.0,0.0,0.0,0.0,0.0,0.0,0.0,0.0,0.0,0.0,0.0,0.0,0.0,0.0,0.0,0.0,0.0,0.0,0.0,0.0,0.0,0.0,0.0,0.0,0.0,0.0,0.0,0.0,0.0,0.0,0.0,0.0,0.0,0.0,0.0,0.0,0.0,0.0,0.0,0.0,0.0,0.0,0.0,0.0,0.0,0.0,0.0,0.0,0.0,0.0,0.0,0.0,0.0,0.0,0.0,0.0,0.0,0.0,0.0,0.0,0.0,0.0,0.0,0.0,0.0,0.0,0.0,0.0,0.0,0.0,0.0,0.0,0.0,0.0,0.0,0.0,0.0,0.0,0.0,0.0,0.0,0.0,0.0,0.0,0.0,0.0,0.0,0.0,0.0,0.0,0.0,0.0,0.0,0.0,0.0,0.0,0.0,0.0,0.0,0.0,0.0,0.0,0.0,0.0,0.0,0.0,0.0,0.0,0.0,0.0,0.0,0.0,0.0,0.0,0.0,0.0,0.0,0.0,0.0,0.0,0.0,0.0,0.0,0.0,0.0,0.0,0.0,0.0,0.0,0.0,0.0,0.0,0.0,0.0,0.0,0.0,0.0,0.0,0.0,0.0,0.0,0.0,0.0,0.0,0.0,0.0,0.0,0.0,0.0,0.0,0.0,0.0,0.0,0.0,0.0,0.0,0.0,0.0,0.0,0.0,0.0,0.0,0.0,0.0,0.0,0.0,0.0,0.0,0.0,0.0,0.0,0.0,0.0,0.0,0.0,0.0,0.0,0.0,0.0,0.0,0.0,0.0,0.0,0.0,0.0,0.0,0.0,0.0,0.0,0.0,0.0,0.0,0.0,0.0,0.0,0.0,0.0,0.0,0.0,0.0,0.0,0.0,0.0,0.0,0.0,0.0,0.0,0.0,0.0,0.0,0.0,0.0,0.0,0.0,0.0,0.0,0.0,0.0,0.0,0.0,0.0,0.0,0.0,0.0,0.0,0.0,0.0,0.0,0.0,0.0,0.0,0.0,0.0,0.0,0.0,0.0,0.0,0.0,0.0,0.0,0.0,0.0,0.0,0.0,0.0,0.0,0.0,0.0,0.0,0.0,0.0,0.0,0.0,0.0,0.0,0.0,0.0,0.0,0.0,0.0,0.0,0.0,0.0,0.0,0.0,0.0,0.0,0.0,0.0,0.0,0.0,0.0,0.0,0.0,0.0,0.0,0.0,0.0,0.0,0.0,0.0,0.0,0.0,0.0,0.0,0.0,0.0,0.0,0.0,0.0,0.0,0.0,0.0,0.0,0.0,0.0,0.0,0.0,0.0,0.0,0.0,0.0,0.0,0.0,0.0,0.0,0.0,0.0,0.0,0.0,0.0,0.0,0.0,0.0,0.0,0.0,0.0,0.0,0.0,0.0,0.0,0.0,0.0,0.0,0.0,0.0,0.0,0.0,0.0,0.0,0.0,0.0,0.0,0.0,0.0,0.0,0.0,0.0,0.0,0.0,0.0,0.0,0.0,0.0,0.0,0.0,0.0,0.0,0.0,0.0,0.0,0.0,0.0,0.0,0.0,0.0,0.0,0.0,0.0,0.0,0.0,0.0,0.0,0.0,0.0,0.0,0.0,0.0,0.0,0.0,0.0,0.0,0.0,0.0,0.0,0.0,0.0,0.0,0.0,0.0,0.0,0.0,0.0,0.0,0.0,0.0,0.0,0.0,0.0,0.0,0.0,0.0,0.0,0.0,0.0,0.0,0.0,0.0,0.0,0.0,0.0,0.0,0.0,0.0,0.0,0.0,0.0,0.0,0.0,0.0,0.0,0.0,0.0,0.0,0.0,0.0,0.0,0.0,0.0,0.0,0.0,0.0,0.0,0.0,0.0,0.0,0.0,0.0,0.0,0.0,0.0,0.0,0.0,0.0,0.0,0.0,0.0,0.0,0.0,0.0,0.0,0.0,0.0,0.0,0.0,0.0,0.0,0.0,0.0,0.0,0.0,0.0,0.0,0.0,0.0,0.0,0.0,0.0,0.0,0.0,0.0,0.0,0.0,0.0,0.0,0.0,0.0,0.0,0.0,0.0,0.0,0.0,0.0,0.0,0.0,0.0,0.0,0.0,0.0,0.0,0.0,0.0,0.0,0.0,0.0,0.0,0.0,0.0,0.0,0.0,0.0,0.0,0.0,0.0,0.0,0.0,0.0,0.0,0.0,0.0,0.0,0.0,0.0,0.0,0.0,0.0,0.0,0.0,0.0,0.0,0.0,0.0,0.0,0.0,0.0,0.0,0.0,0.0,0.0,0.0,0.0,0.0,0.0,0.0,0.0,0.0,0.0,0.0,0.0,0.0,0.0,0.0,0.0,0.0,0.0,0.0,0.0,0.0,0.0,0.0,0.0,0.0,0.0,0.0,0.0,0.0,0.0,0.0,0.0,0.0,0.0,0.0,0.0,0.0,0.0,0.0,0.0,0.0,0.0,0.0,0.0,0.0,0.0,0.0,0.0,0.0,0.0,0.0,0.0,0.0,0.0,0.0,0.0,0.0,0.0,0.0,0.0,0.0,0.0,0.0,0.0,0.0,0.0,0.0,0.0,0.0,0.0,0.0,0.0,0.0,0.0,0.0,0.0,0.0,0.0,0.0,0.0,0.0,0.0,0.0,0.0,0.0,0.0,0.0,0.0,0.0,0.0,0.0,0.0,0.0,0.0,0.0,0.0,0.0,0.0,0.0,0.0,0.0,0.0,0.0,0.0,0.0,0.0,0.0,0.0,0.0,0.0,0.0,0.0,0.0,0.0,0.0,0.0,0.0,0.0,0.0,0.0,0.0,0.0,0.0,0.0,0.0,0.0,0.0,0.0,0.0,0.0,0.0,0.0,0.0,0.0,0.0,0.0,0.0,0.0,0.0,0.0,0.0,0.0,0.0,0.0,0.0,0.0,0.0,0.0,0.0,0.0,0.0,0.0,0.0,0.0,0.0,0.0,0.0,0.0,0.0,0.0,0.0,0.0,0.0,0.0,0.0,0.0,0.0,0.0,0.0,0.0,0.0,0.0,0.0,0.0,0.0,0.0,0.0,0.0,0.0,0.0,0.0,0.0,0.0,0.0,0.0,0.0,0.0,0.0,0.0,0.0,0.0,0.0,0.0,0.0,0.0,0.0,0.0,0.0,0.0,0.0,0.0,0.0,0.0,0.0,0.0,0.0,0.0,0.0,0.0,0.0,0.0,0.0,0.0,0.0,0.0,0.0,0.0,0.0,0.0,0.0,0.0,0.0,0.0,0.0,0.0,0.0,0.0,0.0,0.0,0.0,0.0,0.0,0.0,0.0,0.0,0.0,0.0,0.0,0.0,0.0,0.0,0.0,0.0,0.0,0.0,0.0,0.0,0.0,0.0,0.0,0.0,0.0,0.0,0.0,0.0,0.0,0.0,0.0,0.0,0.0,0.0,2.2337,0.0,0.0,0.0,0.0,0.0,0.0,0.0,0.0,0.0,0.0,0.0,0.0,0.0,0.0,0.0,0.0,0.0,0.0,0.0,0.0,0.0,0.0,0.0,0.0,0.0,0.0,0.0,0.0,0.0,0.0,0.0,0.0,0.0,0.0,0.0,0.0,0.0,0.0,0.0,0.0,0.0,0.0,0.0,0.0,0.0,0.0,0.0,0.0,0.0,0.0,0.0,0.0,0.0,0.0,0.0,0.0,0.0,0.0,0.0,0.0,0.0,0.0,0.0,0.0,0.0,0.0,0.0,0.0,0.0,0.0,0.0,0.0,0.0,0.0,0.0,0.0,0.0,0.0,0.0,0.0,0.0,0.0,0.0,0.0,0.0,0.0,0.0,0.0,0.0,0.0,0.0,0.0,0.0,0.0,0.0,0.0,0.0,0.0,0.0,0.0,0.0,0.0,0.0,0.0,0.0,0.0,0.0,0.0,0.0,0.0,2.1698,2.2077,2.2128,2.2319,2.2699,0.0,0.0,0.0,0.0,0.0,0.0,0.0,0.0,0.0,0.0,0.0,0.0,0.0,0.0,0.0,0.0,0.0,0.0,0.0,0.0,0.0,0.0,0.0,0.0,0.0,0.0,0.0,0.0,0.0,0.0,0.0,0.0,0.0,0.0,0.0,0.0,0.0,0.0,0.0,0.0,0.0,0.0,0.0,0.0,0.0,0.0,0.0,0.0,0.0,0.0,0.0,0.0,0.0,0.0,0.0,0.0,0.0,0.0,0.0,0.0,0.0,0.0,0.0,0.0,0.0,0.0,0.0,0.0,0.0,0.0,0.0,0.0,0.0,0.0,0.0,0.0,0.0,0.0,0.0,0.0,0.0,0.0,0.0,0.0,0.0,0.0,0.0,0.0,0.0,0.0,0.0,0.0,0.0,0.0,0.0,0.0,0.0,0.0,0.0,0.0,0.0,0.0,0.0,0.0,0.0,0.0,0.0,0.0,0.0,0.0,0.0,0.0,2.2967,2.2967,2.2993,0.0,0.0,0.0,0.0,0.0,0.0,0.0,0.0,0.0,0.0,0.0,0.0,0.0,0.0,0.0,0.0,0.0,0.0,0.0,0.0,0.0,0.0,0.0,0.0,0.0,0.0,0.0,0.0,0.0,0.0,0.0,0.0,0.0,0.0,0.0,0.0,0.0,0.0,0.0,0.0,0.0,0.0,0.0,0.0,0.0,0.0,0.0,0.0,0.0,0.0,0.0,0.0,0.0,0.0,0.0,0.0,0.0,0.0,0.0,0.0,0.0,0.0,0.0,0.0,0.0,0.0,0.0,0.0,0.0,0.0,0.0,0.0,0.0,0.0,0.0,0.0,0.0,0.0,0.0,0.0,0.0,0.0,0.0,0.0,0.0,0.0,0.0,0.0,0.0,0.0,0.0,0.0,0.0,0.0,0.0,0.0,0.0,0.0,0.0,0.0,0.0,0.0,0.0,0.0,0.0,0.0,0.0,0.0,0.0,0.0,2.3689,2.3692,2.3757,0.0,2.3775,0.0,0.0,0.0,0.0,0.0,0.0,0.0,0.0,0.0,0.0,0.0,0.0,0.0,0.0,0.0,0.0,0.0,0.0,0.0,0.0,0.0,0.0,0.0,0.0,0.0,0.0,0.0,0.0,0.0,0.0,0.0,0.0,0.0,0.0,0.0,0.0,0.0,0.0,0.0,0.0,0.0,0.0,0.0,0.0,0.0,0.0,0.0,0.0,0.0,0.0,0.0,0.0,0.0,0.0,0.0,0.0,0.0,0.0,0.0,0.0,0.0,0.0,0.0,0.0,0.0,0.0,0.0,0.0,0.0,0.0,0.0,0.0,0.0,0.0,0.0,0.0,0.0,0.0,0.0,0.0,0.0,0.0,0.0,0.0,0.0,0.0,0.0,0.0,0.0,0.0,0.0,0.0,0.0,0.0,0.0,0.0,0.0,0.0,0.0,0.0,0.0,0.0,0.0,0.0,0.0,0.0,0.0,0.0,0.0,0.0,2.3891,2.3871,2.3842,2.3845,0.0,0.0,0.0,0.0,0.0,0.0,0.0,0.0,0.0,0.0,0.0,0.0,0.0,0.0,0.0,0.0,0.0,0.0,0.0,0.0,0.0,0.0,0.0,0.0,0.0,0.0,0.0,0.0,0.0,0.0,0.0,0.0,0.0,0.0,0.0,0.0,0.0,0.0,0.0,0.0,0.0,0.0,0.0,0.0,0.0,0.0,0.0,0.0,0.0,0.0,0.0,0.0,0.0,0.0,0.0,0.0,0.0,0.0,0.0,0.0,0.0,0.0,0.0,0.0,0.0,0.0,0.0,0.0,0.0,0.0,0.0,0.0,0.0,0.0,0.0,0.0,0.0,0.0,0.0,0.0,0.0,0.0,0.0,0.0,0.0,0.0,0.0,0.0,0.0,0.0,0.0,0.0,0.0,0.0,0.0,0.0,0.0,0.0,0.0,0.0,0.0,0.0,0.0,0.0,0.0,0.0,0.0,0.0,0.0,0.0,2.3932,2.3942,2.3966,2.3858,2.384,2.3845,0.0,0.0,0.0,0.0,0.0,0.0,0.0,0.0,0.0,0.0,0.0,0.0,0.0,0.0,0.0,0.0,0.0,0.0,0.0,0.0,0.0,0.0,0.0,0.0,0.0,0.0,0.0,0.0,0.0,0.0,0.0,0.0,0.0,0.0,0.0,0.0,0.0,0.0,0.0,0.0,0.0,0.0,0.0,0.0,0.0,0.0,0.0,0.0,0.0,0.0,0.0,0.0,0.0,0.0,0.0,0.0,0.0,0.0,0.0,0.0,0.0,0.0,0.0,0.0,0.0,0.0,0.0,0.0,0.0,0.0,0.0,0.0,0.0,0.0,0.0,0.0,0.0,0.0,0.0,0.0,0.0,0.0,0.0,0.0,0.0,0.0,0.0,0.0,0.0,0.0,0.0,0.0,0.0,0.0,0.0,0.0,0.0,0.0,0.0,0.0,0.0,0.0,0.0,0.0,0.0,0.0,0.0,0.0,2.3888,2.4016,2.4089,2.4089,2.3952,2.3896,0.0,0.0,0.0,0.0,0.0,0.0,0.0,0.0,0.0,0.0,0.0,0.0,0.0,0.0,0.0,0.0,0.0,0.0,0.0,0.0,0.0,0.0,0.0,0.0,0.0,0.0,0.0,0.0,0.0,0.0,0.0,0.0,0.0,0.0,0.0,0.0,0.0,0.0,0.0,0.0,0.0,0.0,0.0,0.0,0.0,0.0,0.0,0.0,0.0,0.0,0.0,0.0,0.0,0.0,0.0,0.0,0.0,0.0,0.0,0.0,0.0,0.0,0.0,0.0,0.0,0.0,0.0,0.0,0.0,0.0,0.0,0.0,0.0,0.0,0.0,0.0,0.0,0.0,0.0,0.0,0.0,0.0,0.0,0.0,0.0,0.0,0.0,0.0,0.0,0.0,0.0,0.0,0.0,0.0,0.0,0.0,0.0,0.0,0.0,0.0,0.0,0.0,0.0,0.0,0.0,0.0,0.0,0.0,0.0,2.4003,2.4108,2.417,2.4166,2.4079,2.3991,0.0,0.0,0.0,0.0,0.0,0.0,0.0,0.0,0.0,0.0,0.0,0.0,0.0,0.0,0.0,0.0,0.0,0.0,0.0,0.0,0.0,0.0,0.0,0.0,0.0,0.0,0.0,0.0,0.0,0.0,0.0,0.0,0.0,0.0,0.0,0.0,0.0,0.0,0.0,0.0,0.0,0.0,0.0,0.0,0.0,0.0,0.0,0.0,0.0,0.0,0.0,0.0,0.0,0.0,0.0,0.0,0.0,0.0,0.0,0.0,0.0,0.0,0.0,0.0,0.0,0.0,0.0,0.0,0.0,0.0,0.0,0.0,0.0,0.0,0.0,0.0,0.0,0.0,0.0,0.0,0.0,0.0,0.0,0.0,0.0,0.0,0.0,0.0,0.0,0.0,0.0,0.0,0.0,0.0,0.0,0.0,0.0,0.0,0.0,0.0,0.0,0.0,0.0,0.0,0.0,0.0,0.0,0.0,0.0,2.4172,0.0,2.4257,2.4252,2.4186,2.4091,0.0,0.0,0.0,0.0,0.0,0.0,0.0,0.0,0.0,0.0,0.0,0.0,0.0,0.0,0.0,0.0,0.0,0.0,0.0,0.0,0.0,0.0,0.0,0.0,0.0,0.0,0.0,0.0,0.0,0.0,0.0,0.0,0.0,0.0,0.0,0.0,0.0,0.0,0.0,0.0,0.0,0.0,0.0,0.0,0.0,0.0,0.0,0.0,0.0,0.0,0.0,0.0,0.0,0.0,0.0,0.0,0.0,0.0,0.0,0.0,0.0,0.0,0.0,0.0,0.0,0.0,0.0,0.0,0.0,0.0,0.0,0.0,0.0,0.0,0.0,0.0,0.0,0.0,0.0,0.0,0.0,0.0,0.0,0.0,0.0,0.0,0.0,0.0,0.0,0.0,0.0,0.0,0.0,0.0,0.0,0.0,0.0,0.0,0.0,0.0,0.0,0.0,0.0,0.0,0.0,0.0,0.0,0.0,2.42,2.4375,2.4386,2.4417,2.4417,2.4352,2.4271,0.0,0.0,0.0,0.0,0.0,0.0,0.0,0.0,0.0,0.0,0.0,0.0,0.0,0.0,0.0,0.0,0.0,0.0,0.0,0.0,0.0,0.0,0.0,0.0,0.0,0.0,0.0,0.0,0.0,0.0,0.0,0.0,0.0,0.0,0.0,0.0,0.0,0.0,0.0,0.0,0.0,0.0,0.0,0.0,0.0,0.0,0.0,0.0,0.0,0.0,0.0,0.0,0.0,0.0,0.0,0.0,0.0,0.0,0.0,0.0,0.0,0.0,0.0,0.0,0.0,0.0,0.0,0.0,0.0,0.0,0.0,0.0,0.0,0.0,0.0,0.0,0.0,0.0,0.0,0.0,0.0,0.0,0.0,0.0,0.0,0.0,0.0,0.0,0.0,0.0,0.0,0.0,0.0,0.0,0.0,0.0,0.0,0.0,0.0,0.0,0.0,0.0,0.0,0.0,0.0,0.0,0.0,0.0,0.0,2.3758,2.4246,2.4816,2.539,2.4833,2.4724,0.0,0.0,0.0,0.0,0.0,0.0,0.0,0.0,0.0,0.0,0.0,0.0,0.0,0.0,0.0,0.0,0.0,0.0,0.0,0.0,0.0,0.0,0.0,0.0,0.0,0.0,0.0,0.0,0.0,0.0,0.0,0.0,0.0,0.0,0.0,0.0,0.0,0.0,0.0,0.0,0.0,0.0,0.0,0.0,0.0,0.0,0.0,0.0,0.0,0.0,0.0,0.0,0.0,0.0,0.0,0.0,0.0,0.0,0.0,0.0,0.0,0.0,0.0,0.0,0.0,0.0,0.0,0.0,0.0,0.0,0.0,0.0,0.0,0.0,0.0,0.0,0.0,0.0,0.0,0.0,0.0,0.0,0.0,0.0,0.0,0.0,0.0,0.0,0.0,0.0,0.0,0.0,0.0,0.0,0.0,0.0,0.0,0.0,0.0,0.0,0.0,0.0,0.0,0.0,0.0,0.0,0.0,0.0,0.0,2.5408,2.5535,2.5901,2.645,2.5901,2.5618,2.567,0.0,0.0,0.0,0.0,0.0,0.0,0.0,0.0,0.0,0.0,0.0,0.0,0.0,0.0,0.0,0.0,0.0,0.0,0.0,0.0,0.0,0.0,0.0,0.0,0.0,0.0,0.0,0.0,0.0,0.0,0.0,0.0,0.0,0.0,0.0,0.0,0.0,0.0,0.0,0.0,0.0,0.0,0.0,0.0,0.0,0.0,0.0,0.0,0.0,0.0,0.0,0.0,0.0,0.0,0.0,0.0,0.0,0.0,0.0,0.0,0.0,0.0,0.0,0.0,0.0,0.0,0.0,0.0,0.0,0.0,0.0,0.0,0.0,0.0,0.0,0.0,0.0,0.0,0.0,0.0,0.0,0.0,0.0,0.0,0.0,0.0,0.0,0.0,0.0,0.0,0.0,0.0,0.0,0.0,0.0,0.0,0.0,0.0,0.0,0.0,0.0,0.0,0.0,0.0,0.0,0.0,0.0,0.0,2.8741,2.8074,2.7657,2.7562,2.7424,2.6942,0.0,0.0,0.0,0.0,0.0,0.0,0.0,0.0,0.0,0.0,0.0,0.0,0.0,0.0,0.0,0.0,0.0,0.0,0.0,0.0,0.0,0.0,0.0,0.0,0.0,0.0,0.0,0.0,0.0,0.0,0.0,0.0,0.0,0.0,0.0,0.0,0.0,0.0,0.0,0.0,0.0,0.0,0.0,0.0,0.0,0.0,0.0,0.0,0.0,0.0,0.0,0.0,0.0,0.0,0.0,0.0,0.0,0.0,0.0,0.0,0.0,0.0,0.0,0.0,0.0,0.0,0.0,0.0,0.0,0.0,0.0,0.0,0.0,0.0,0.0,0.0,0.0,0.0,0.0,0.0,0.0,0.0,0.0,0.0,0.0,0.0,0.0,0.0,0.0,0.0,0.0,0.0,0.0,0.0,0.0,0.0,0.0,0.0,0.0,0.0,0.0,0.0,0.0,0.0,0.0,0.0,0.0,0.0,0.0,2.9627,3.0689,3.0658,2.9448,2.8704,2.8169,0.0,0.0,0.0,0.0,0.0,0.0,0.0,0.0,0.0,0.0,0.0,0.0,0.0,0.0,0.0,0.0,0.0,0.0,0.0,0.0,0.0,0.0,0.0,0.0,0.0,0.0,0.0,0.0,0.0,0.0,0.0,0.0,0.0,0.0,0.0,0.0,0.0,0.0,0.0,0.0,0.0,0.0,0.0,0.0,0.0,0.0,0.0,0.0,0.0,0.0,0.0,0.0,0.0,0.0,0.0,0.0,0.0,0.0,0.0,0.0,0.0,0.0,0.0,0.0,0.0,0.0,0.0,0.0,0.0,0.0,0.0,0.0,0.0,0.0,0.0,0.0,0.0,0.0,0.0,0.0,0.0,0.0,0.0,0.0,0.0,0.0,0.0,0.0,0.0,0.0,0.0,0.0,0.0,0.0,0.0,0.0,0.0,0.0,0.0,0.0,0.0,0.0,0.0,0.0,0.0,0.0,0.0,0.0,2.9986,3.1614,3.2992,3.3218,3.2283,3.0961,2.988,0.0,0.0,0.0,0.0,0.0,0.0,0.0,0.0,0.0,0.0,0.0,0.0,0.0,0.0,0.0,0.0,0.0,0.0,0.0,0.0,0.0,0.0,0.0,0.0,0.0,0.0,0.0,0.0,0.0,0.0,0.0,0.0,0.0,0.0,0.0,0.0,0.0,0.0,0.0,0.0,0.0,0.0,0.0,0.0,0.0,0.0,0.0,0.0,0.0,0.0,0.0,0.0,0.0,0.0,0.0,0.0,0.0,0.0,0.0,0.0,0.0,0.0,0.0,0.0,0.0,0.0,0.0,0.0,0.0,0.0,0.0,0.0,0.0,0.0,0.0,0.0,0.0,0.0,0.0,0.0,0.0,0.0,0.0,0.0,0.0,0.0,0.0,0.0,0.0,0.0,0.0,0.0,0.0,0.0,0.0,0.0,0.0,0.0,0.0,0.0,0.0,0.0,0.0,0.0,0.0,0.0,0.0,0.0,3.1415,3.3984,3.4883,3.532,3.5297,3.3674,3.1865,0.0,0.0,0.0,0.0,0.0,0.0,0.0,0.0,0.0,0.0,0.0,0.0,0.0,0.0,0.0,0.0,0.0,0.0,0.0,0.0,0.0,0.0,0.0,0.0,0.0,0.0,0.0,0.0,0.0,0.0,0.0,0.0,0.0,0.0,0.0,0.0,0.0,0.0,0.0,0.0,0.0,0.0,0.0,0.0,0.0,0.0,0.0,0.0,0.0,0.0,0.0,0.0,0.0,0.0,0.0,0.0,0.0,0.0,0.0,0.0,0.0,0.0,0.0,0.0,0.0,0.0,0.0,0.0,0.0,0.0,0.0,0.0,0.0,0.0,0.0,0.0,0.0,0.0,0.0,0.0,0.0,0.0,0.0,0.0,0.0,0.0,0.0,0.0,0.0,0.0,0.0,0.0,0.0,0.0,0.0,0.0,0.0,0.0,0.0,0.0,0.0,0.0,0.0,0.0,0.0,0.0,0.0,0.0,3.2308,3.4835,3.5762,3.6214,3.6214,3.5151,3.3364,0.0,0.0,0.0,0.0,0.0,0.0,0.0,0.0,0.0,0.0,0.0,0.0,0.0,0.0,0.0,0.0,0.0,0.0,0.0,0.0,0.0,0.0,0.0,0.0,0.0,0.0,0.0,0.0,0.0,0.0,0.0,0.0,0.0,0.0,0.0,0.0,0.0,0.0,0.0,0.0,0.0,0.0,0.0,0.0,0.0,0.0,0.0,0.0,2.1444,0.0,0.0,0.0,0.0,0.0,0.0,0.0,0.0,0.0,0.0,0.0,0.0,0.0,0.0,0.0,0.0,0.0,0.0,0.0,0.0,0.0,0.0,0.0,0.0,0.0,0.0,0.0,0.0,0.0,0.0,0.0,0.0,0.0,0.0,0.0,0.0,0.0,0.0,0.0,0.0,0.0,0.0,0.0,0.0,0.0,0.0,0.0,0.0,0.0,0.0,0.0,0.0,0.0,0.0,0.0,0.0,0.0,0.0,0.0,3.3598,3.5753,3.7031,3.7478,3.7058,3.6541,3.483,0.0,0.0,0.0,0.0,0.0,0.0,0.0,0.0,0.0,0.0,0.0,0.0,0.0,0.0,0.0,0.0,0.0,0.0,0.0,0.0,0.0,0.0,0.0,0.0,0.0,0.0,0.0,0.0,0.0,0.0,0.0,0.0,0.0,0.0,0.0,0.0,0.0,0.0,0.0,0.0,0.0,0.0,0.0,0.0,0.0,0.0,0.0,0.0,0.0,0.0,0.0,0.0,0.0,0.0,0.0,0.0,0.0,0.0,0.0,0.0,0.0,0.0,0.0,0.0,0.0,0.0,0.0,0.0,0.0,0.0,0.0,0.0,0.0,0.0,0.0,0.0,0.0,0.0,0.0,0.0,0.0,0.0,0.0,0.0,0.0,0.0,0.0,0.0,0.0,0.0,0.0,0.0,0.0,0.0,0.0,0.0,0.0,0.0,0.0,0.0,0.0,0.0,0.0,0.0,0.0,0.0,0.0,3.2374,3.481,3.6653,3.8204,3.8586,3.7731,3.7632,3.596,3.2546,0.0,0.0,0.0,0.0,0.0,0.0,0.0,0.0,0.0,0.0,0.0,0.0,0.0,0.0,0.0,0.0,0.0,0.0,0.0,0.0,0.0,0.0,0.0,0.0,0.0,0.0,0.0,0.0,0.0,0.0,0.0,0.0,0.0,0.0,0.0,0.0,0.0,0.0,2.3157,2.4615,0.0,0.0,0.0,0.0,0.0,0.0,0.0,0.0,2.4504,0.0,0.0,0.0,0.0,0.0,0.0,0.0,0.0,0.0,0.0,0.0,0.0,0.0,0.0,0.0,0.0,0.0,0.0,0.0,0.0,0.0,0.0,0.0,0.0,0.0,0.0,0.0,0.0,0.0,0.0,0.0,0.0,0.0,0.0,0.0,0.0,0.0,0.0,0.0,0.0,0.0,0.0,0.0,0.0,0.0,0.0,0.0,0.0,0.0,0.0,0.0,0.0,0.0,0.0,0.0,0.0,3.1939,3.3291,3.511,3.7445,3.8472,3.8567,3.7731,3.7627,3.596,3.2637,0.0,0.0,0.0,0.0,0.0,0.0,0.0,0.0,0.0,0.0,0.0,0.0,0.0,0.0,0.0,0.0,0.0,0.0,0.0,0.0,0.0,0.0,0.0,0.0,0.0,0.0,0.0,0.0,0.0,0.0,0.0,0.0,0.0,0.0,0.0,0.0,0.0,0.0,0.0,2.5823,2.6431,0.0,0.0,0.0,0.0,0.0,0.0,0.0,0.0,2.5941,0.0,0.0,0.0,0.0,0.0,0.0,0.0,0.0,0.0,0.0,0.0,0.0,0.0,0.0,0.0,0.0,0.0,0.0,0.0,0.0,0.0,0.0,0.0,0.0,0.0,0.0,0.0,0.0,0.0,0.0,0.0,0.0,0.0,0.0,0.0,0.0,0.0,0.0,0.0,0.0,0.0,0.0,0.0,0.0,0.0,0.0,0.0,0.0,0.0,0.0,0.0,0.0,0.0,0.0,0.0,3.2577,3.4395,3.6298,3.8304,3.9236,3.904,3.7738,3.7199,3.5481,0.0,0.0,0.0,0.0,0.0,0.0,0.0,0.0,0.0,0.0,0.0,0.0,0.0,0.0,0.0,0.0,0.0,0.0,0.0,0.0,0.0,0.0,0.0,0.0,0.0,0.0,0.0,0.0,0.0,0.0,0.0,0.0,0.0,0.0,0.0,0.0,0.0,0.0,0.0,0.0,2.7084,2.7877,2.7929,0.0,0.0,0.0,0.0,0.0,0.0,2.72,2.6838,0.0,0.0,0.0,0.0,0.0,0.0,0.0,0.0,0.0,0.0,0.0,0.0,0.0,0.0,0.0,0.0,0.0,0.0,0.0,0.0,0.0,0.0,0.0,0.0,0.0,0.0,0.0,0.0,0.0,0.0,0.0,0.0,0.0,0.0,0.0,0.0,0.0,0.0,0.0,0.0,0.0,0.0,0.0,0.0,0.0,0.0,0.0,0.0,0.0,0.0,0.0,0.0,0.0,0.0,0.0,3.2894,3.5293,3.7326,3.8949,3.9838,3.9447,3.7722,3.6739,3.4969,0.0,0.0,0.0,0.0,0.0,0.0,0.0,0.0,0.0,0.0,0.0,0.0,0.0,0.0,0.0,0.0,0.0,0.0,0.0,0.0,0.0,0.0,0.0,0.0,0.0,0.0,0.0,0.0,0.0,0.0,0.0,0.0,0.0,0.0,0.0,0.0,0.0,0.0,0.0,0.0,0.0,2.9368,2.9619,2.9671,0.0,0.0,0.0,0.0,2.9152,2.8604,0.0,0.0,0.0,0.0,0.0,0.0,0.0,0.0,0.0,0.0,0.0,0.0,0.0,0.0,0.0,0.0,0.0,0.0,0.0,0.0,0.0,0.0,0.0,0.0,0.0,0.0,0.0,0.0,0.0,0.0,0.0,0.0,0.0,0.0,0.0,0.0,0.0,0.0,0.0,0.0,0.0,0.0,0.0,0.0,0.0,0.0,0.0,0.0,0.0,0.0,0.0,0.0,0.0,0.0,0.0,0.0,3.3683,3.5547,3.7302,3.893,3.981,3.9352,3.7566,3.6619,3.4843,0.0,0.0,0.0,0.0,0.0,0.0,0.0,0.0,0.0,0.0,0.0,0.0,0.0,0.0,0.0,0.0,0.0,0.0,0.0,0.0,0.0,0.0,0.0,0.0,0.0,0.0,0.0,0.0,0.0,0.0,0.0,0.0,0.0,0.0,0.0,0.0,0.0,0.0,0.0,0.0,0.0,3.0529,3.1377,3.16,3.169,0.0,0.0,0.0,3.1934,3.1792,0.0,0.0,0.0,0.0,0.0,0.0,0.0,0.0,0.0,0.0,0.0,0.0,0.0,0.0,0.0,0.0,0.0,0.0,0.0,0.0,0.0,0.0,0.0,0.0,0.0,0.0,0.0,0.0,0.0,0.0,0.0,0.0,0.0,0.0,0.0,0.0,0.0,0.0,0.0,0.0,0.0,0.0,0.0,0.0,0.0,0.0,0.0,0.0,0.0,0.0,0.0,0.0,0.0,0.0,0.0,3.1179,3.4564,3.6793,3.872,4.0348,4.0716,4.0037,3.8298,3.6802,3.4776,0.0,0.0,0.0,0.0,0.0,0.0,0.0,0.0,0.0,0.0,0.0,0.0,0.0,0.0,0.0,0.0,0.0,0.0,0.0,0.0,0.0,0.0,0.0,0.0,0.0,0.0,0.0,0.0,0.0,0.0,0.0,0.0,0.0,0.0,0.0,0.0,0.0,0.0,0.0,0.0,0.0,0.0,3.3185,3.3802,0.0,0.0,0.0,3.4115,3.4641,0.0,0.0,0.0,0.0,0.0,0.0,0.0,0.0,0.0,0.0,0.0,0.0,0.0,0.0,0.0,0.0,0.0,0.0,0.0,0.0,0.0,0.0,0.0,0.0,0.0,0.0,0.0,0.0,0.0,0.0,0.0,0.0,0.0,0.0,0.0,0.0,0.0,0.0,0.0,0.0,0.0,0.0,0.0,0.0,0.0,0.0,0.0,0.0,0.0,0.0,0.0,0.0,0.0,0.0,0.0,0.0,0.0,3.5439,3.801,4.0138,4.1762,4.1546,4.0646,3.9095,3.7074,0.0,0.0,0.0,0.0,0.0,0.0,0.0,0.0,0.0,0.0,0.0,0.0,0.0,0.0,0.0,0.0,0.0,0.0,0.0,0.0,0.0,0.0,0.0,0.0,0.0,0.0,0.0,2.1453,0.0,0.0,0.0,0.0,0.0,0.0,0.0,0.0,0.0,0.0,0.0,0.0,0.0,0.0,3.382,3.502,3.5773,3.6273,0.0,0.0,3.5989,3.6693,3.5649,3.4773,0.0,0.0,0.0,0.0,0.0,0.0,0.0,0.0,0.0,0.0,0.0,0.0,0.0,0.0,0.0,0.0,0.0,0.0,0.0,0.0,0.0,0.0,0.0,0.0,0.0,0.0,0.0,0.0,0.0,0.0,0.0,0.0,0.0,0.0,0.0,0.0,0.0,0.0,0.0,0.0,0.0,0.0,0.0,0.0,0.0,0.0,0.0,0.0,0.0,0.0,0.0,0.0,0.0,0.0,0.0,3.6221,3.8856,4.1012,4.2617,4.1864,4.0909,3.984,3.7342,3.5138,0.0,0.0,0.0,0.0,0.0,0.0,0.0,0.0,0.0,0.0,0.0,0.0,0.0,0.0,0.0,0.0,0.0,0.0,0.0,0.0,0.0,0.0,0.0,0.0,0.0,0.0,0.0,0.0,0.0,0.0,0.0,0.0,0.0,0.0,0.0,0.0,0.0,0.0,0.0,0.0,0.0,3.5079,3.6847,3.7205,3.735,0.0,0.0,3.7559,3.7617,3.7477,3.679,3.5178,0.0,0.0,0.0,0.0,0.0,0.0,0.0,0.0,0.0,0.0,0.0,0.0,0.0,0.0,0.0,0.0,0.0,0.0,0.0,0.0,0.0,0.0,0.0,0.0,0.0,0.0,0.0,0.0,0.0,0.0,0.0,0.0,0.0,0.0,0.0,0.0,0.0,0.0,0.0,0.0,0.0,0.0,0.0,0.0,0.0,0.0,0.0,0.0,0.0,0.0,0.0,0.0,0.0,3.3838,3.7005,3.9638,4.1823,4.3452,4.3143,4.2261,4.0852,3.8767,3.6348,0.0,0.0,0.0,0.0,0.0,0.0,0.0,0.0,0.0,0.0,0.0,0.0,0.0,0.0,0.0,0.0,0.0,0.0,0.0,0.0,0.0,0.0,0.0,0.0,0.0,0.0,0.0,0.0,2.5355,2.61,2.5951,0.0,0.0,0.0,0.0,0.0,0.0,0.0,0.0,0.0,0.0,3.7553,3.9386,4.0093,0.0,0.0,3.9874,3.9743,3.9261,3.8742,3.8156,3.7409,3.5898,0.0,0.0,0.0,0.0,0.0,0.0,0.0,0.0,0.0,0.0,0.0,0.0,0.0,0.0,0.0,0.0,0.0,0.0,0.0,0.0,0.0,0.0,0.0,0.0,0.0,0.0,0.0,0.0,0.0,0.0,0.0,0.0,0.0,0.0,0.0,0.0,0.0,0.0,0.0,0.0,0.0,0.0,0.0,0.0,0.0,0.0,0.0,0.0,0.0,0.0,0.0,0.0,3.4589,3.7822,4.0466,4.2658,4.4355,4.406,4.3337,4.2167,4.0195,3.7749,0.0,0.0,0.0,0.0,0.0,0.0,0.0,0.0,0.0,0.0,0.0,0.0,0.0,0.0,0.0,0.0,0.0,0.0,0.0,0.0,0.0,0.0,0.0,0.0,0.0,0.0,0.0,0.0,2.6752,2.7249,2.708,0.0,0.0,0.0,0.0,0.0,0.0,0.0,0.0,0.0,0.0,3.9473,4.1191,4.1911,4.2068,4.155,4.1542,4.1431,4.0886,4.0327,3.9813,3.9268,0.0,0.0,0.0,0.0,0.0,0.0,0.0,0.0,0.0,0.0,0.0,0.0,0.0,0.0,0.0,0.0,0.0,0.0,0.0,0.0,0.0,0.0,0.0,0.0,0.0,0.0,0.0,0.0,0.0,0.0,0.0,0.0,0.0,0.0,0.0,0.0,0.0,0.0,0.0,0.0,0.0,0.0,0.0,0.0,0.0,0.0,0.0,0.0,0.0,0.0,0.0,0.0,0.0,0.0,3.8665,4.1349,4.3577,4.5168,4.439,4.3881,4.3767,4.139,3.9212,3.7362,0.0,0.0,0.0,0.0,0.0,0.0,0.0,0.0,0.0,0.0,0.0,0.0,0.0,0.0,0.0,0.0,0.0,0.0,0.0,0.0,0.0,0.0,0.0,0.0,0.0,0.0,2.7665,2.6937,2.6479,0.0,0.0,0.0,0.0,0.0,0.0,0.0,0.0,0.0,0.0,3.9272,4.0403,4.2061,4.2265,4.2234,4.2109,4.2189,4.2274,4.2308,4.2344,4.1917,0.0,0.0,0.0,0.0,0.0,0.0,0.0,0.0,0.0,0.0,0.0,0.0,0.0,0.0,0.0,0.0,0.0,0.0,0.0,0.0,0.0,0.0,0.0,0.0,0.0,0.0,0.0,3.2336,3.1507,0.0,0.0,0.0,0.0,0.0,0.0,0.0,0.0,0.0,0.0,0.0,3.8183,3.8202,0.0,0.0,0.0,0.0,0.0,0.0,0.0,0.0,0.0,0.0,0.0,0.0,3.6912,3.9527,4.1653,4.3571,4.522,4.5,4.4564,4.3967,4.2067,3.9428,3.607,0.0,0.0,0.0,0.0,0.0,0.0,0.0,0.0,0.0,0.0,0.0,0.0,0.0,0.0,0.0,0.0,0.0,0.0,0.0,0.0,0.0,0.0,0.0,0.0,0.0,2.8864,0.0,0.0,0.0,0.0,0.0,0.0,0.0,0.0,0.0,0.0,0.0,3.8499,4.0997,4.1939,4.2773,4.3812,4.3875,4.359,0.0,0.0,0.0,0.0,0.0,0.0,0.0,0.0,0.0,0.0,0.0,0.0,0.0,0.0,4.1153,3.8306,3.6405,3.5434,3.6032,0.0,0.0,0.0,0.0,0.0,0.0,0.0,0.0,0.0,0.0,0.0,0.0,0.0,0.0,0.0,0.0,3.4668,0.0,0.0,0.0,0.0,0.0,0.0,0.0,0.0,4.0247,4.0992,4.1865,4.1899,4.1726,0.0,4.019,3.813,0.0,0.0,0.0,0.0,0.0,0.0,0.0,0.0,3.7845,4.0426,4.2255,4.3862,4.5251,4.5312,4.5034,4.4432,4.2526,4.0072,3.707,3.5062,3.3331,0.0,0.0,0.0,0.0,0.0,0.0,0.0,0.0,0.0,0.0,0.0,0.0,0.0,0.0,0.0,0.0,0.0,0.0,0.0,0.0,0.0,0.0,0.0,3.0033,0.0,0.0,0.0,0.0,0.0,0.0,0.0,0.0,0.0,3.7356,3.8813,4.0701,4.2899,4.3515,4.4021,4.4769,0.0,0.0,0.0,0.0,0.0,0.0,0.0,4.4445,4.4841,4.4995,4.5539,4.6992,4.7295,4.7045,4.6208,0.0,0.0,4.1648,3.9799,3.8898,3.9172,3.853,3.8116,3.8692,3.9041,3.9218,0.0,0.0,0.0,0.0,0.0,0.0,0.0,0.0,3.9569,3.9082,0.0,3.8221,0.0,0.0,0.0,0.0,0.0,0.0,0.0,0.0,4.3559,4.4555,4.5414,4.5496,4.5098,4.425,4.413,4.3244,4.1389,3.6276,0.0,0.0,0.0,0.0,0.0,0.0,3.8917,4.1475,4.3237,4.4539,4.546,4.539,4.5302,4.5168,4.2875,4.1189,4.0229,3.7894,3.6186,3.524,3.359,0.0,0.0,0.0,0.0,0.0,0.0,0.0,0.0,0.0,0.0,0.0,0.0,0.0,0.0,0.0,0.0,0.0,0.0,0.0,0.0,3.1181,0.0,0.0,0.0,0.0,0.0,0.0,0.0,0.0,0.0,0.0,3.9474,4.0841,4.2409,4.403,0.0,0.0,0.0,0.0,4.5149,4.584,4.5999,4.638,4.7307,4.7599,4.7485,4.6839,0.0,0.0,5.0582,5.0745,5.0433,4.9625,4.9413,4.8413,4.5086,4.3667,4.2838,4.2123,4.133,4.0699,4.0805,4.1624,4.2059,4.3526,0.0,0.0,0.0,0.0,4.1827,4.2337,4.3183,4.3176,4.2614,4.1632,4.1104,0.0,0.0,0.0,0.0,0.0,0.0,4.274,4.5295,4.5757,4.6431,4.7314,4.7333,4.7223,4.6921,4.6219,4.5653,4.5088,4.232,3.9382,3.6361,0.0,0.0,0.0,0.0,4.1909,4.3336,4.504,4.6348,4.7226,4.6595,4.5639,4.4413,4.3668,4.235,4.0358,3.9597,3.8259,3.6224,3.5107,0.0,0.0,0.0,0.0,0.0,0.0,0.0,0.0,0.0,0.0,0.0,0.0,0.0,0.0,0.0,0.0,0.0,0.0,0.0,3.2074,3.2388,3.2659,0.0,0.0,0.0,0.0,0.0,0.0,0.0,0.0,0.0,4.4504,4.4546,4.5095,0.0,0.0,4.687,4.6966,4.6925,4.6943,4.714,0.0,0.0,0.0,4.8329,4.893,4.9386,5.0931,5.2182,5.2433,5.2491,5.2202,5.1351,5.1178,5.0466,4.8413,4.675,4.5933,4.6083,4.5612,4.5262,4.5794,4.6126,4.6222,4.8755,4.6606,4.5269,4.5148,4.583,4.5875,4.6282,4.6872,4.65,4.5961,4.5235,4.4419,4.3458,4.2419,4.1768,0.0,0.0,0.0,4.5303,4.7561,4.7707,4.8255,4.9048,4.9081,4.9076,4.8993,4.8074,4.7656,4.7668,4.6286,4.4086,4.1207,0.0,0.0,3.9729,4.2388,4.4412,4.5659,4.6699,4.7644,4.8484,4.7297,4.6141,4.5091,4.4421,4.3388,4.1915,4.1507,4.0306,3.8155,3.7572,3.6013,0.0,0.0,0.0,0.0,0.0,0.0,0.0,0.0,0.0,0.0,0.0,2.7658,0.0,0.0,0.0,0.0,3.1984,3.3105,3.4725,3.4878,0.0,0.0,0.0,0.0,0.0,0.0,0.0,4.231,4.4192,4.599,4.7639,4.7432,4.7365,4.8006,4.8077,4.8023,4.7937,0.0,4.8425,4.8769,4.9113,4.9472,4.9904,5.0404,5.1069,5.1998,5.2995,5.3837,5.4145,5.4203,5.3895,5.314,5.2659,5.1986,5.0644,4.9298,4.8259,4.8125,4.7716,4.7562,4.8029,4.8101,4.8101,5.3157,5.2833,4.9772,4.8843,4.9367,4.94,4.975,5.0296,4.9498,4.901,4.8689,4.7782,4.6786,4.5765,4.5255,0.0,0.0,4.6757,4.7842,4.9519,4.9648,5.0081,5.075,5.0764,5.0699,5.055,4.9759,4.9342,4.9252,4.8539,4.7739,4.6862,4.4662,4.346,4.3407,4.4978,4.6656,4.8375,4.8417,4.8758,4.936,4.7717,4.6761,4.6661,4.5074,4.4154,4.4058,4.3262,4.2054,4.0501,4.0336,3.8844,3.5676,0.0,0.0,0.0,0.0,0.0,0.0,0.0,0.0,0.0,0.0,0.0,0.0,0.0,0.0,0.0,3.4791,0.0,3.7959,3.8113,0.0,0.0,0.0,3.9884,4.0791,4.2376,4.4051,4.5706,0.0,0.0,0.0,0.0,4.9418,4.8625,4.8433,4.8419,4.85,4.9171,4.9812,5.0612,5.1365,5.2154,5.2639,5.2957,5.3357,5.425,5.4587,5.4843,5.5439,5.5593,5.5362,5.453,5.3818,5.3005,5.2159,5.1337,5.0375,4.8808,4.8404,4.8327,4.8428,4.8442,4.8457,5.4035,5.3972,5.368,5.2907,5.1859,5.1846,5.1859,5.1832,5.1533,5.0903,4.9981,4.9159,4.8332,4.7529,4.8144,4.8987,4.9973,5.0317,5.1039,5.2072,5.2138,5.2184,5.2266,5.2212,5.1833,5.1129,5.0913,5.0548,5.0056,4.9882,4.9424,4.8749,4.9379,4.8769,4.6997,4.8514,4.9897,5.099,5.1634,5.1426,5.0292,4.8639,4.7415,4.6699,4.5074,4.3886,4.3238,4.2417,4.15,4.0454,3.9868,3.8604,3.65,3.536,0.0,0.0,0.0,0.0,0.0,0.0,0.0,0.0,0.0,3.0867,3.302,0.0,3.4403,0.0,3.7358,3.8815,3.9769,3.9885,0.0,0.0,4.205,4.2765,4.4216,4.5331,4.6644,4.8302,4.9264,5.0418,5.2087,5.2279,5.2217,5.201,5.1399,5.1235,5.1875,5.2119,5.2321,5.2502,5.2733,5.2936,5.3215,5.374,5.4437,5.528,5.5401,5.5472,5.567,5.5689,5.5458,5.4689,5.4357,5.3857,5.3038,5.2722,5.2201,5.1171,5.0445,5.0018,5.0063,5.0019,4.9999,5.4787,5.4677,5.4898,5.4375,5.3435,5.367,5.365,5.3427,5.2968,5.2302,5.152,5.059,4.9977,4.9672,5.0305,5.0964,5.1651,5.1961,5.2371,5.2853,5.281,5.2698,5.2575,5.2436,5.2111,5.1566,5.1566,5.1416,5.1172,5.1268,5.1184,5.0936,5.1942,5.195,5.1019,5.1475,5.2177,5.3063,5.314,5.238,5.0668,4.8991,4.7665,4.6786,4.514,4.4007,4.3531,4.2761,4.1935,4.1065,4.0634,3.9631,3.7943,3.704,3.5572,0.0,0.0,0.0,0.0,0.0,0.0,0.0,0.0,0.0,0.0,0.0,3.7311,0.0,4.0442,0.0,4.267,4.3129,4.3749,4.4682,4.5146,4.5862,4.7167,4.8067,4.9086,5.0351,5.1279,5.2164,5.3068,5.3197,5.3356,5.3722,5.3356,5.3082,5.3197,5.3484,5.3738,5.3738,5.4024,5.423,5.4271,5.4687,5.517,5.5593,5.5689,5.5678,5.5651,5.5646,5.5476,5.5003,5.4644,5.4271,5.3744,5.336,5.2972,5.2509,5.2017,5.146,5.0762,5.0589,5.0613,5.5428,5.5223,5.4991,5.476,5.4617,5.5037,5.5022,5.4628,5.3871,5.326,5.2772,5.1806,5.1482,5.1627,5.1935,5.221,5.2489,5.2748,5.2904,5.2951,5.28,5.2663,5.2548,5.2325,5.2169,5.2003,5.203,5.2093,5.219,5.2396,5.2635,5.2908,5.3155,5.3689,5.4434,5.3857,5.3895,5.4607,5.3703,5.2491,5.1034,4.9106,4.7755,4.7024,4.5259,4.4316,4.4297,4.3528,4.2758,4.2023,4.1966,4.1239,3.97,3.8896,3.8054,0.0,3.6414,0.0,0.0,0.0,0.0,0.0,0.0,0.0,0.0,3.9358,4.0954,4.3374,4.3585,4.4224,4.5791,4.6615,4.7101,4.7234,4.7901,4.8661,4.9481,5.0322,5.1164,5.1967,5.2832,5.3395,5.3563,5.3524,5.3857,5.4481,5.4591,5.4311,5.3738,5.4114,5.454,5.4537,5.505,5.527,5.5386,5.555,5.5607,5.5662,5.5673,5.5695,5.5819,5.5796,5.5717,5.5547,5.5113,5.4608,5.4388,5.3826,5.3407,5.3256,5.3138,5.2647,5.1384,5.1047,5.0895,5.618,5.6034,5.6285,5.6281,5.608,5.6015,5.5268,5.4052,5.3841,5.3237,5.2398,5.2096,5.2051,5.2307,5.3188,5.3707,5.3921,5.4166,5.4307,5.4314,5.4124,5.3968,5.383,5.363,5.3196,5.2572,5.2652,5.2509,5.2122,5.2427,5.2686,5.2914,5.3799,5.4327,5.4511,0.0,0.0,0.0,5.3953,5.3068,5.2626,4.9697,4.8043,4.7812,4.5547,0.0,4.4278,4.3528,4.3028,4.2854,4.2854,0.0,0.0,0.0,0.0,0.0,0.0,0.0,0.0,0.0,0.0,0.0,4.2293,4.2015,4.1188,4.2466,4.4143,4.5966,4.6178,4.6604,4.761,4.7791,4.8186,4.8911,4.9124,4.9524,5.0361,5.1183,5.2005,5.2851,5.3722,5.4511,5.5049,5.5222,5.522,5.5305,5.5382,5.5285,5.4989,5.5144,5.5301,5.5246,5.5218,5.5294,5.5365,5.5395,5.5504,5.5579,5.5613,5.5871,5.6424,5.655,5.6522,5.6371,5.6269,5.5861,5.5173,5.4969,5.468,5.4051,5.3941,5.3694,5.2807,5.2571,5.256,5.6755,0.0,5.6499,5.6375,0.0,5.5971,5.5459,5.4726,5.4873,5.4349,5.3363,5.2864,5.2721,5.2861,5.3485,5.387,5.4063,5.4238,5.433,5.4391,5.4228,5.4124,5.4101,5.3889,5.3599,5.3209,5.3274,5.3215,5.3113,5.3418,5.375,5.4046,5.468,5.5034,5.5107,5.5497,5.5516,5.5112,5.3837,5.2799,5.1933,4.9856,4.8548,4.8062,0.0,0.0,0.0,0.0,0.0,0.0,0.0,0.0,0.0,0.0,0.0,4.2493,4.2782,4.2843,4.2497,4.3605,4.4504,4.4951,4.5716,4.5663,4.4408,4.5451,4.6721,4.799,4.8144,4.8667,4.9911,4.9699,4.979,5.0661,5.0761,5.0926,5.1423,5.2449,5.3339,5.381,5.4538,5.5212,5.5544,5.5568,5.5527,5.5468,5.5413,5.5358,5.5231,5.5326,5.5326,5.5116,5.5035,5.4995,5.5056,5.5222,5.532,5.5402,5.5419,5.5765,5.6467,5.6581,5.657,5.6705,5.6827,5.6557,5.5625,5.5531,5.544,5.4749,5.4599,5.4575,5.4176,5.3529,5.2972,5.7424,5.7046,5.6806,5.6531,5.6256,5.6103,5.6048,5.6,0.0,0.0,0.0,5.3568,5.323,5.3287,5.3429,5.3551,5.3708,5.3804,5.3907,5.4037,5.3898,5.3879,5.3944,5.3754,5.3694,5.3722,5.3705,5.386,5.4108,5.4451,5.4822,5.5163,5.5402,5.5568,5.5678,5.5689,5.5241,5.428,5.3568,5.2452,5.0957,4.9918,4.9072,4.8336,4.6849,4.6392,4.7057,4.5753,4.5334,4.6007,4.6056,4.6109,4.6244,4.6129,4.6109,4.6263,4.6129,4.6052,4.6052,4.6842,4.739,4.7515,4.8154,4.8197,4.7408,4.7947,4.8702,4.9548,4.9769,5.0389,5.1645,5.1509,5.1444,5.2042,5.2219,5.2287,5.2362,5.3552,5.4398,5.4531,5.5056,5.5539,5.5443,5.5408,5.5403,5.5427,5.5443,5.5346,5.5273,5.5166,5.5004,5.4945,5.4793,5.4756,5.5086,5.5207,5.5353,5.5609,5.569,5.5886,5.6459,5.6681,5.6789,5.7062,5.72,5.6836,5.594,5.5911,5.5881,5.5216,5.5175,5.5225,5.512,5.4199,5.3421,5.8415,5.8115,5.8456,5.8386,5.8028,5.7899,5.7768,5.7494,5.5537,5.4545,5.4366,5.3555,5.3188,5.3227,5.3305,5.3349,5.338,5.3501,5.3619,0.0,5.3619,5.3619,5.3743,5.3598,5.3588,5.3704,5.3764,5.3917,5.4178,5.4525,5.4837,5.5114,5.5364,5.5568,5.5698,5.5689,5.4934,5.3414,5.326,5.2717,5.1736,5.0202,4.9336,4.9187,4.8305,4.7869,4.8004,4.7792,4.7715,4.7831,4.7787,4.8086,4.8779,4.8178,4.8086,4.8759,4.8182,4.7755,4.7778,4.85,4.9258,4.9913,5.0105,4.9853,4.9135,4.9144,4.9567,5.0442,5.1164,5.1385,5.1062,5.2136,5.2623,5.2213,5.2642,5.302,5.2988,5.3818,5.4446,5.4407,5.4927,5.5434,5.5402,5.5344,5.5509,5.5794,5.5868,5.596,5.6004,5.5239,5.4777,5.5043,5.4654,5.4869,5.5792,5.5902,5.5972,5.6713,5.6811,5.7035,5.7746,5.7881,5.7834,5.7762,5.7772,5.7361,5.6396,5.6415,5.6239,5.5632,5.561,5.5586,5.5132,5.4802,5.4789,5.9143,5.8865,5.8961,5.8793,5.8451,5.8275,5.8163,5.7989,5.6404,5.5702,5.5574,5.4388,5.3838,5.3812,5.3443,5.3233,5.3233,5.3303,5.3437,5.3578,5.3529,5.3589,5.3735,5.3687,5.3697,5.3754,5.3784,5.3889,5.411,5.4359,5.4626,5.4896,5.5275,5.5551,5.5635,5.5692,5.4876,5.3255,5.3197,5.2563,5.1279,5.0515,5.0091,5.0111,4.9288,4.9288,5.0125,4.9736,4.9894,5.0768,5.0776,5.0938,5.1303,5.0957,5.0933,5.1322,5.0977,5.075,5.0713,5.0536,5.0602,5.0943,5.0585,5.0602,5.1165,5.0874,5.0903,5.1337,5.2175,5.2724,5.2724,5.3071,5.3234,5.3296,5.3629,5.3763,5.3774,5.4401,5.5012,5.5371,5.5603,5.5865,5.6257,5.6197,5.6165,5.6394,5.6324,5.6292,5.6387,5.5693,5.5273,5.5656,5.5451,5.5526,5.6255,5.622,5.6274,5.6719,5.681,5.7167,5.7808,5.7987,5.8025,5.8106,5.8167,5.78,5.687,5.6798,5.6567,5.5975,5.5501,5.5306,5.5139,5.5361,5.5693,5.9694,5.9409,5.9225,5.8975,5.8619,5.8411,5.8297,5.8201,5.7471,5.7158,5.6926,5.5405,5.4675,5.4612,5.3849,5.3471,5.3453,5.329,5.3316,5.3481,5.3529,5.3638,5.3775,5.3813,5.3813,5.3813,5.3813,5.387,5.401,5.417,5.4434,5.4742,5.5198,5.5486,5.5573,5.5654,5.4942,5.3587,5.3505,5.2568,5.0784,5.0688,5.0683,5.063,5.0236,5.0528,5.1647,5.1324,5.1656,5.2815,5.2893,5.2958,5.3155,5.3002,5.2958,5.3136,5.2996,5.2846,5.2748,5.2056,5.1599,5.1553,5.097,5.1179,5.2379,5.239,5.2157,5.2241,5.2991,5.3714,5.39,5.3949,5.389,5.4271,5.4445,5.455,5.465,5.5116,5.5754,5.6402,5.6361,5.6457,5.6882,5.6952,5.6867,5.6901,5.6909,5.6823,5.6683,5.647,5.6392,5.6406,5.6277,5.6255,5.6486,5.6559,5.6667,5.6821,5.7009,5.7353,5.7759,5.7822,5.7897,5.821,5.8326,5.8082,5.742,5.7284,5.7002,5.6367,5.587,5.5503,5.5548,5.5867,5.6286,5.9941,5.976,5.9671,5.9389,5.9025,5.8743,5.8593,5.8468,5.8304,5.8231,5.7995,5.6298,5.5511,5.5383,5.4667,5.43,5.4237,5.3595,5.3406,5.3528,5.3636,5.3716,5.3803,5.3813,5.3813,5.3813,5.3813,5.3879,5.4,5.4091,5.4351,5.4769,5.5095,5.5333,5.5473,5.5573,5.5187,5.4395,5.4376,5.3169,5.0861,5.0688,5.0663,5.0608,5.1302,5.164,5.1739,5.2238,5.26,5.2641,5.2621,5.2912,5.3553,5.2995,5.2912,5.3629,5.3007,5.249,5.2378,5.2274,5.2165,5.2051,5.193,5.1989,5.2397,5.3023,5.3241,5.3096,5.373,5.3963,5.3273,5.4342,5.478,5.4148,5.467,5.5315,5.5661,5.589,5.6177,5.6784,5.6844,5.6835,5.6918,5.692,5.7043,5.7506,5.7794,5.7973,5.793,5.7722,5.7565,5.7489,5.6772,5.6609,5.7457,5.7419,5.7376,5.7944,5.8212,5.8193,5.8169,5.8235,5.8383,5.8168,5.8212,5.8094,5.7959,5.7884,5.759,5.6933,5.6573,5.6525,5.6267,5.636,5.6757,5.996,5.9847,5.9834,5.9671,5.9426,5.9092,5.8885,5.8774,5.846,5.8323,5.8198,5.7378,5.6845,5.6499,5.5652,5.5275,5.522,5.4488,5.4219,5.4273,5.3906,5.3744,5.3803,5.3813,5.3813,5.3813,5.3813,5.3832,5.3888,5.4027,5.4258,5.4503,5.478,5.5014,5.5268,5.5395,5.513,5.4477,5.4475,5.3741,5.2395,5.2183,5.2134,5.2115,5.2354,5.2644,5.2895,5.3141,5.3432,5.3752,5.3758,5.3894,5.4243,5.3932,5.3913,5.4224,5.3906,5.3429,5.2869,5.2757,5.2688,5.2644,5.2175,5.2328,5.3295,5.3391,5.3452,5.3881,5.4446,5.4638,5.4333,5.4836,5.4979,5.4582,5.5083,5.5613,5.5726,5.617,5.6686,5.7349,5.7389,5.7519,5.7881,5.7924,5.7995,5.82,5.8381,5.8404,5.8382,5.8174,5.8001,5.7916,5.7436,5.7438,5.8027,5.7906,5.7884,5.8113,5.8223,5.819,5.8171,5.8179,5.816,5.8106,5.8106,5.8084,5.8013,5.7839,5.761,5.7201,5.6792,5.6564,5.6498,5.6664,5.7118,5.9998,5.9974,6.0013,5.9963,5.9793,5.9442,5.9215,5.9082,5.8624,5.8395,5.8331,5.8201,5.7932,5.7454,5.661,5.623,5.6132,5.5453,5.5013,5.487,5.4307,5.3977,5.3822,5.3813,5.3813,5.3813,5.3813,5.3896,5.4073,5.4047,5.4229,5.4555,5.4586,5.4719,5.4983,5.5197,5.5115,5.4728,5.4754,5.4514,5.3967,5.3876,5.3628,5.3144,5.3159,5.3366,5.3703,5.4,5.437,5.4777,5.5005,5.5147,5.5156,5.5137,5.5043,5.4771,5.4533,5.4125,5.3472,5.3326,5.3257,5.3185,5.2661,5.2838,5.3807,5.3893,5.4071,5.4671,5.5218,5.5454,5.5016,5.4916,5.4867,5.4915,5.544,5.5773,5.6179,5.665,5.7248,5.7938,5.7999,5.8123,5.8652,5.8712,5.8624,5.8579,5.8486,5.839,5.8308,5.8152,5.7978,5.7978,5.796,5.8013,5.8129,5.804,5.8054,5.8077,5.8077,5.8024,5.7978,5.8008,5.8008,5.8042,5.799,5.7978,5.7985,5.7815,5.7601,5.7455,5.7091,5.6726,5.6877,5.7155,5.7762,6.0033,6.0099,6.0292,6.0292,6.014,5.9874,5.965,5.9416,5.8957,5.8731,5.8643,5.8508,5.8442,5.8338,5.7368,5.7022,5.7037,5.6376,5.5687,5.5094,5.4914,5.4518,5.3831,5.3813,5.3822,5.3905,5.3924,5.4267,5.489,5.4382,5.4438,5.5155,5.4669,5.4476,5.4731,5.4976,5.5197,5.5268,5.5386,5.5514,5.5525,5.5511,5.4693,5.3439,5.3655,5.3904,5.3785,5.4886,5.5505,5.5295,5.5996,5.6444,5.6454,5.6444,5.6052,5.5323,5.4594,5.4138,5.4065,5.4037,5.3991,5.3841,5.3823,5.3823,5.4224,5.4746,5.5137,5.5432,5.6013,5.5943,5.4946,5.4826,5.497,5.54,5.5524,5.6192,5.7299,5.7439,5.7891,5.8444,5.8562,5.8589,5.8708,5.8687,5.8635,5.8551,5.8451,5.8379,5.8231,5.8106,5.8008,5.7978,5.7978,5.799,5.8008,5.8008,5.8008,5.802,5.8031,5.7978,5.7978,5.7978,5.7978,5.7978,5.7967,5.7955,5.7955,5.7839,5.7637,5.7492,5.7388,5.7213,5.7395,5.8263,5.8767,6.0041,6.0106,6.0313,6.0356,6.0306,6.0038,5.9779,5.9469,5.8997,5.8681,5.8494,5.8261,5.8279,5.8411,5.8057,5.7993,5.8061,5.7345,5.6835,5.6446,5.5492,5.4843,5.4546,5.4063,5.41,5.4509,5.4564,5.501,5.5744,5.5579,5.5321,5.5099,5.4979,5.4757,5.4543,5.4723,5.499,5.5268,5.545,5.5568,5.5629,5.5687,5.553,5.54,5.5427,5.5325,5.4977,5.5824,5.6173,5.5955,5.6262,5.6392,5.6402,5.641,5.629,5.5964,5.5666,5.5489,5.5478,5.5469,5.5449,5.541,5.541,5.5346,5.5486,5.5729,5.5926,5.6049,5.6198,5.6087,5.5893,5.5752,5.5892,5.6089,5.6537,5.6955,5.7488,5.7969,5.8413,5.8642,5.8687,5.8687,5.8667,5.8635,5.8572,5.8489,5.8367,5.8264,5.8197,5.8095,5.7978,5.7978,5.7978,5.7978,5.7978,5.799,5.799,5.799,5.7978,5.7978,5.7978,5.7978,5.7978,5.7967,5.7962,5.7874,5.7851,5.7697,5.7528,5.7406,5.7301,5.767,5.7953,5.8649,5.9075,6.0122,6.0189,6.0349,6.0431,6.0403,6.0159,5.9861,5.9556,5.9035,5.8653,5.8411,5.8186,5.8174,5.8338,5.8396,5.8505,5.8579,5.8091,5.774,5.7425,5.631,5.566,5.5363,5.4862,5.4862,5.5354,5.54,5.5856,5.6562,5.6432,5.6134,5.5847,5.5664,5.537,5.5085,5.525,5.5427,5.5489,5.5651,5.5751,5.5604,5.5579,5.5943,5.6473,5.6578,5.6459,5.6189,5.6704,5.689,5.6759,5.6933,5.7072,5.7082,5.684,5.6692,5.6673,5.6432,5.632,5.632,5.632,5.6302,5.6292,5.6302,5.632,5.632,5.6515,5.6655,5.67,5.696,5.7053,5.7102,5.7193,5.7131,5.6904,5.7238,5.7673,5.7891,5.8372,5.8613,5.8687,5.8687,5.8677,5.8635,5.8553,5.8479,5.8414,5.8286,5.8197,5.8141,5.8065,5.7978,5.7978,5.7978,5.7978,5.7978,5.7978,5.7978,5.7978,5.7978,5.7978,5.7978,5.7978,5.7978,5.7955,5.7897,5.7815,5.7685,5.7541,5.7424,5.73,5.7588,5.7987,5.8396,5.8909,5.9489,6.0279,6.032,6.0431,6.0479,6.0418,6.0166,5.9964,5.965,5.9074,5.8671,5.8443,5.8275,5.8174,5.8242,5.8389,5.8489,5.8503,5.8532,5.8213,5.761,5.7387,5.6915,5.632,5.6106,5.6134,5.6302,5.6329,5.6747,5.7435,5.6896,5.6793,5.7165,5.6627,5.6269,5.6348,5.6433,5.6415,5.6127,5.6262,5.6127,5.5517,5.5612,5.5983,5.6553,5.6979,5.7167,5.6981,5.7501,5.7709,5.7614,5.8167,5.8632,5.839,5.7899,5.7509,5.7406,5.6812,5.6422,5.6413,5.6506,5.657,5.657,5.644,5.657,5.6729,5.7156,5.7528,5.7592,5.8056,5.8539,5.8483,5.8467,5.8236,5.7676,5.7631,5.7918,5.8438,5.865,5.8687,5.8687,5.8677,5.8646,5.8543,5.8479,5.8392,5.8268,5.8197,5.8141,5.8054,5.8008,5.799,5.7978,5.7978,5.7978,5.7978,5.7978,5.7978,5.7978,5.7978,5.7978,5.7978,5.7978,5.7978,5.7955,5.7827,5.7733,5.7553,5.7436,5.7557,5.7566,5.7945,5.8438,5.909,5.9674,6.0272,6.0306,6.032,6.0389,6.0396,6.0318,6.0011,5.9727,5.9417,5.8935,5.8582,5.8301,5.8133,5.8118,5.8197,5.8286,5.8353,5.844,5.8511,5.8447,5.8231,5.7759,5.7398,5.7082,5.6562,5.6599,5.7156,5.7695,5.8056,5.8205,5.8037,5.787,5.7509,5.7268,5.6853,5.6487,5.6603,5.6652,5.6727,5.6994,5.6999,5.6802,5.6893,5.727,5.7837,5.7946,5.8096,5.8456,5.8537,5.8488,5.8297,5.8557,5.8687,5.8632,5.8465,5.8335,5.8316,5.8112,5.7945,5.7955,5.7936,5.787,5.7926,5.7907,5.7945,5.7955,5.8112,5.8297,5.8297,5.8557,5.8687,5.8687,5.8687,5.8557,5.8353,5.8316,5.8353,5.8613,5.8687,5.8687,5.8677,5.8625,5.8543,5.8489,5.8403,5.8279,5.819,5.8111,5.8042,5.8001,5.7978,5.7978,5.7978,5.7978,5.7978,5.7978,5.7978,5.7978,5.7978,5.7978,5.7978,5.7978,5.7978,5.7978,5.7909,5.778,5.7607,5.7425,5.7489,5.7658,5.7965,5.8337,5.9017,5.9837,6.0471,6.0996,6.0373,6.038,6.0373,6.0301,6.0163,5.9864,5.9524,5.9159,5.8774,5.8465,5.8201,5.8054,5.8042,5.8129,5.8174,5.8242,5.8338,5.8429,5.8497,5.8545,5.8202,5.7945,5.7907,5.7472,5.7406,5.7936,5.8465,5.8687,5.8687,5.8669,5.8446,5.8019,5.7926,5.7734,5.7294,5.7423,5.7492,5.7404,5.7534,5.753,5.7305,5.7324,5.7701,5.8241,5.8203,5.8465,5.9015,5.8911,5.8779,5.8698,5.8687,5.8687,5.8687,5.8669,5.8687,5.8687,5.8687,5.8669,5.8687,5.8595,5.8687,5.8687,5.8687,5.8669,5.8669,5.8687,5.8687,5.8687,5.8687,5.8687,5.8687,5.8687,5.8687,5.8687,5.8669,5.8687,5.8687,5.8687,5.8656,5.8625,5.8553,5.8449,5.8359,5.8301,5.8174,5.8122,5.8054,5.7978,5.7978,5.7978,5.7978,5.7978,5.7978,5.7978,5.7978,5.7978,5.7978,5.7978,5.7978,5.7978,5.7978,5.7978,5.7978,5.7839,5.7709,5.7577,5.7406,5.7792,5.8058,5.8411,5.8867,5.9724,6.0525,6.1014,6.1485,6.0499,6.0479,6.0344,6.0171,5.9955,5.9683,5.9336,5.8965,5.8627,5.8378,5.8167,5.8054,5.8008,5.8031,5.8129,5.8156,5.8208,5.8327,5.8393,5.8459,5.8466,5.8516,5.8508,5.8436,5.8446,5.8576,5.8669,5.8687,5.8687,5.8687,5.8687,5.8595,5.8557,5.865,5.8487,5.8764,5.8448,5.7967,5.8034,5.7796,5.7228,5.7179,5.7436,5.8117,5.8072,5.8301,5.8799,5.8789,5.8698,5.8687,5.8687,5.8687,5.8687,5.8687,5.8687,5.8687,5.8687,5.8687,5.8687,5.8687,5.8687,5.8687,5.8687,5.8687,5.8687,5.8687,5.8687,5.8687,5.8687,5.8687,5.8687,5.8687,5.8687,5.8687,5.8687,5.8687,5.8687,5.8677,5.8625,5.8551,5.8489,5.8414,5.8253,5.8208,5.8111,5.8054,5.8008,5.799,5.7978,5.7978,5.7978,5.7978,5.7997,5.7978,5.7978,5.7978,5.7978,5.7978,5.7978,5.7978,5.7978,5.7978,5.795,5.7804,5.7782,5.7607,5.7697,5.8115,5.8646,5.9139,5.9758,6.0534,6.1086,6.1539,6.172,6.0472,6.041,6.0234,5.9999,5.9738,5.9381,5.9054,5.876,5.8422,5.8212,5.8065,5.8038,5.7978,5.799,5.8031,5.8054,5.8106,5.8197,5.8253,5.8264,5.8404,5.8497,5.8572,5.8646,5.8687,5.8687,5.8677,5.8687,5.8687,5.8687,5.8687,5.8687,5.8687,5.8687,5.8708,5.8809,5.8796,5.868,5.8792,5.8709,5.8456,5.8447,5.8625,5.867,5.8636,5.8677,5.8879,5.8768,5.8687,5.8687,5.8687,5.8687,5.8687,5.8687,5.8687,5.8687,5.8687,5.8687,5.8687,5.8687,5.8687,5.8687,5.8687,5.8687,5.8687,5.8687,5.8687,5.8687,5.8687,5.8687,5.8687,5.8687,5.8687,5.8687,5.8687,5.8677,5.8667,5.8596,5.8532,5.8489,5.8359,5.8257,5.8197,5.8118,5.8042,5.799,5.7978,5.7978,5.7978,5.7997,5.7997,5.7997,5.7997,5.7997,5.7978,5.7978,5.7978,5.7978,5.7978,5.7978,5.7978,5.7978,5.7909,5.7804,5.8011,5.7959,5.8227,5.8595,5.9187,5.9854,6.0392,6.1027,6.1485,6.1919,6.1901,6.0466,6.0337,6.0091,5.9769,5.9407,5.9102,5.8776,5.8497,5.8279,5.8141,5.8001,5.7978,5.7978,5.7978,5.799,5.799,5.8008,5.8077,5.8099,5.8152,5.8271,5.8382,5.8473,5.8548,5.8572,5.8625,5.8625,5.8646,5.8677,5.8687,5.8687,5.8687,5.8687,5.8687,5.8716,5.8758,5.8828,5.883,5.8941,5.8924,5.8884,5.8924,5.8934,5.8874,5.8811,5.8818,5.8807,5.8719,5.8687,5.8687,5.8687,5.8687,5.8687,5.8687,5.8687,5.8687,5.8687,5.8687,5.8687,5.8687,5.8687,5.8687,5.8687,5.8687,5.8687,5.8687,5.8687,5.8687,5.8687,5.8687,5.8687,5.8687,5.8687,5.8687,5.8656,5.8606,5.8614,5.8543,5.8457,5.8389,5.8286,5.8174,5.8141,5.8042,5.8008,5.7978,5.7978,5.7978,5.7978,5.8015,5.8198,5.84,5.8425,5.8492,5.8474,5.8455,5.8198,5.8162,5.8162,5.8125,5.8205,5.8168,5.7982,5.7997,5.8229,5.8481,5.8823,5.9275,6.0012,6.0611,6.1027,6.1371,6.1811,6.201,6.201,6.0474,6.0277,5.9903,5.9504,5.9102,5.8847,5.8545,5.8246,5.8186,5.8099,5.802,5.7978,5.7978,5.7978,5.7978,5.7978,5.7978,5.802,5.8008,5.8042,5.8141,5.8242,5.8338,5.8415,5.8462,5.8511,5.8511,5.8593,5.8667,5.8687,5.8687,5.8687,5.8687,5.8687,5.8687,5.8716,5.8687,5.8698,5.8729,5.875,5.8729,5.8739,5.875,5.8739,5.8719,5.8708,5.8708,5.8687,5.8687,5.8687,5.8687,5.8687,5.8687,5.8687,5.8687,5.8687,5.8687,5.8687,5.8687,5.8687,5.8687,5.8687,5.8687,5.8687,5.8687,5.8687,5.8687,5.8687,5.8687,5.8687,5.8687,5.8687,5.8667,5.8656,5.8572,5.8511,5.8468,5.8468,5.8392,5.8223,5.8197,5.8129,5.8042,5.7997,5.8052,5.8437,5.8419,5.8565,5.8676,5.8877,5.9049,5.9269,5.9233,5.9123,5.9049,5.8976,5.8627,5.84,5.8419,5.8444,5.8647,5.8562,5.8257,5.8264,5.8825,5.9194,5.9437,6.0034,6.0752,6.1187,6.1498,6.1765,6.201,6.201,6.201,6.0399,6.0198,5.9683,5.9318,5.8994,5.859,5.8338,5.8197,5.8077,5.8031,5.8008,5.7978,5.7978,5.7978,5.7978,5.7978,5.7978,5.7978,5.7978,5.8008,5.8038,5.8054,5.8133,5.8294,5.8429,5.8497,5.85,5.8582,5.8667,5.8687,5.8687,5.8687,5.8687,5.8687,5.8687,5.8687,5.8687,5.8687,5.8687,5.8687,5.8687,5.8687,5.8687,5.8687,5.8687,5.8687,5.8687,5.8687,5.8687,5.8687,5.8687,5.8687,5.8687,5.8687,5.8687,5.8687,5.8706,5.8706,5.8706,5.8762,5.8706,5.8762,5.8799,5.8687,5.8687,5.8687,5.8687,5.8687,5.8687,5.8687,5.8687,5.8687,5.8646,5.8582,5.8511,5.8425,5.8301,5.8286,5.8246,5.8197,5.8118,5.8031,5.8026,5.807,5.8309,5.8756,5.9049,5.9251,5.9435,5.9648,5.9747,5.9875,5.9692,5.9453,5.9086,5.8958,5.8682,5.8609,5.8701,5.8958,5.9142,5.9332,5.9149,5.9289,5.9643,5.9926,6.0173,6.0613,6.1308,6.1632,6.1874,6.196,6.201,6.201,6.201,6.0309,6.0049,5.9568,5.9168,5.8823,5.8417,5.8183,5.8099,5.8031,5.7978,5.7978,5.7978,5.7978,5.7978,5.7978,5.7978,5.7978,5.7978,5.7978,5.8008,5.8008,5.799,5.8031,5.8197,5.8353,5.8451,5.8462,5.8548,5.8646,5.8687,5.8687,5.8687,5.8687,5.8687,5.8687,5.8687,5.8687,5.8687,5.8687,5.8687,5.8687,5.8687,5.8687,5.8687,5.8687,5.8687,5.8687,5.8687,5.8687,5.8687,5.8687,5.8687,5.8687,5.8687,5.8687,5.8687,5.8687,5.8947,5.9115,5.9245,5.9282,5.9245,5.9245,5.9003,5.8817,5.8687,5.8687,5.8687,5.8687,5.8687,5.8687,5.8635,5.8582,5.8511,5.8403,5.8312,5.8231,5.8197,5.8174,5.8129,5.8061,5.802,5.8015,5.8272,5.8657,5.9159,5.974,5.993,5.9912,6.0077,6.015,6.0187,5.9985,5.9673,5.9159,5.8847,5.8621,5.8719,5.9031,5.9435,5.9833,6.0053,6.0218,6.0298,6.0335,6.0738,6.1028,6.145,6.1667,6.1894,6.2041,6.2014,6.201,6.201,6.201,6.0163,5.9923,5.9436,5.9004,5.8646,5.832,5.8099,5.802,5.7978,5.7978,5.7978,5.7978,5.7978,5.7978,5.7978,5.7978,5.7978,5.7978,5.7978,5.7978,5.7978,5.7978,5.8031,5.8133,5.8275,5.8393,5.8437,5.8537,5.8646,5.8687,5.8687,5.8687,5.8687,5.8687,5.8687,5.8687,5.8687,5.8687,5.8687,5.8687,5.8687,5.8687,5.8687,5.8687,5.8687,5.8687,5.8687,5.8687,5.8687,5.8687,5.8687,5.8687,5.8687,5.8687,5.8687,5.8687,5.8687,5.904,5.9542,5.9672,5.9616,5.9839,5.969,5.9375,5.8855,5.8687,5.8687,5.8687,5.8687,5.8677,5.8656,5.8574,5.85,5.8425,5.829,5.8208,5.8174,5.8174,5.8118,5.8042,5.8045,5.8063,5.8382,5.8719,5.9123,5.96,6.0199,6.0639,6.0658,6.0737,6.0939,6.0933,6.0829,5.9948,5.9306,5.9123,5.8841,5.9226,5.9526,6.0071,6.0622,6.108,6.1288,6.089,6.0951,6.1365,6.1637,6.1829,6.2015,6.2154,6.2128,6.2037,6.201,6.201,6.201,5.9834,5.9704,5.9131,5.8745,5.85,5.8179,5.8031,5.799,5.7978,5.7978,5.7978,5.7978,5.7978,5.7978,5.7978,5.7978,5.7978,5.7978,5.7978,5.7978,5.7978,5.7978,5.8013,5.8141,5.8282,5.8375,5.8451,5.858,5.8675,5.8687,5.8687,5.8687,5.8687,5.8687,5.8687,5.8687,5.8687,5.8687,5.8687,5.8687,5.8687,5.8687,5.8687,5.8687,5.8687,5.8687,5.8706,5.8687,5.8687,5.8687,5.8687,5.8743,5.8873,5.8873,5.8855,5.8817,5.8929,5.9393,5.9988,5.943,5.9412,5.9542,5.943,5.9003,5.8743,5.8687,5.8677,5.8677,5.8667,5.8656,5.8543,5.8489,5.8411,5.8301,5.8212,5.8152,5.8065,5.8134,5.8171,5.8162,5.8162,5.8272,5.8719,5.9306,5.9948,6.0481,6.1062,6.1594,6.1838,6.1967,6.215,6.2022,6.1832,6.0627,5.9453,5.9398,5.9325,5.996,6.0389,6.0927,6.1532,6.2205,6.2327,6.1708,6.1663,6.2058,6.2235,6.2232,6.2184,6.2217,6.2128,6.2023,6.201,6.201,6.201,5.9549,5.9454,5.8965,5.8658,5.8457,5.8156,5.7978,5.7978,5.7978,5.7978,5.7978,5.7978,5.7978,5.7978,5.7978,5.7978,5.7978,5.7978,5.7978,5.7978,5.7978,5.7978,5.802,5.8141,5.8219,5.832,5.8432,5.8582,5.8677,5.8687,5.8687,5.8687,5.8687,5.8687,5.8687,5.8687,5.8687,5.8687,5.8687,5.8687,5.8687,5.8687,5.8687,5.8687,5.8706,5.8687,5.878,5.9189,5.93,5.9412,5.9765,5.9932,5.995,5.9913,5.9794,5.9505,5.9709,6.0322,6.0879,6.047,6.0285,6.0415,5.9783,5.9133,5.8817,5.8687,5.8685,5.8625,5.8585,5.8561,5.8462,5.84,5.829,5.8201,5.8133,5.8065,5.8111,5.8382,5.8492,5.8554,5.8756,5.8939,5.9141,5.9838,6.0701,6.1374,6.1924,6.2352,6.2774,6.2793,6.2756,6.226,6.1869,6.1062,5.9967,5.982,5.9942,6.0548,6.1006,6.1545,6.2082,6.2603,6.2607,6.2226,6.2413,6.2526,6.2475,6.2347,6.2305,6.223,6.2128,6.2037,6.2023,6.201,6.201,5.9244,5.9149,5.8772,5.8561,5.8403,5.8115,5.7978,5.7978,5.7978,5.7978,5.7978,5.7978,5.7978,5.7978,5.7978,5.7978,5.7978,5.7978,5.7978,5.7978,5.7978,5.7978,5.8031,5.8129,5.8208,5.8253,5.8422,5.8543,5.8635,5.8677,5.8687,5.8687,5.8687,5.8687,5.8687,5.8687,5.8687,5.8687,5.8687,5.8687,5.8687,5.8687,5.8687,5.8743,5.8855,5.8985,5.9096,5.9783,6.0118,6.0322,6.0693,6.1113,6.1187,6.1325,6.1102,6.0638,6.0964,6.1577,6.193,6.1548,6.0953,6.099,6.034,5.956,5.8918,5.8656,5.8596,5.8521,5.8497,5.8443,5.8353,5.8264,5.8197,5.8141,5.8054,5.8033,5.8217,5.851,5.8976,5.9141,5.9404,5.9783,6.0132,6.0389,6.1263,6.182,6.2371,6.2444,6.2811,6.2811,6.2646,6.2071,6.1594,6.1135,6.0566,6.0346,6.0584,6.1098,6.1392,6.1747,6.2248,6.2774,6.2626,6.2502,6.2473,6.2513,6.2488,6.2423,6.231,6.2177,6.21,6.2033,6.2023,6.201,6.201,5.8781,5.875,5.8489,5.8305,5.8212,5.8065,5.7978,5.7978,5.7978,5.7978,5.7978,5.7978,5.7978,5.7978,5.7978,5.7978,5.7978,5.7978,5.7978,5.7978,5.7978,5.7978,5.8001,5.8141,5.8174,5.8219,5.84,5.8489,5.8553,5.8635,5.8687,5.8687,5.8687,5.8687,5.8687,5.8836,5.8687,5.8706,5.8762,5.8799,5.8817,5.8855,5.8855,5.9003,5.9393,5.9765,5.9876,6.0563,6.102,6.1065,6.1158,6.1243,6.1298,6.19,6.216,6.1919,6.1696,6.1548,6.2198,6.18,6.1354,6.1224,6.0508,5.9598,5.9176,5.8871,5.8799,5.8511,5.8543,5.8582,5.8555,5.8355,5.8196,5.8249,5.8387,5.8272,5.8345,5.9355,5.9728,6.0059,6.0426,6.0903,6.1337,6.152,6.1796,6.2328,6.2719,6.2774,6.2811,6.2811,6.2811,6.2328,6.1796,6.1337,6.1263,6.1025,6.1172,6.1661,6.1863,6.2016,6.2401,6.2811,6.2811,6.2693,6.2629,6.25,6.2436,6.2344,6.2243,6.2163,6.2114,6.2046,6.201,6.201,6.201,5.8407,5.8505,5.8323,5.8223,5.8186,5.8054,5.7978,5.7978,5.7978,5.7978,5.7978,5.7978,5.7978,5.7978,5.7978,5.7978,5.7978,5.7978,5.7978,5.7978,5.7978,5.7978,5.8008,5.8054,5.8095,5.8163,5.8308,5.8429,5.8476,5.8593,5.8687,5.8687,5.8706,5.8687,5.8855,5.917,5.9356,5.9542,5.9831,6.0128,6.0128,6.011,6.008,6.008,6.0433,6.06,6.0823,6.1418,6.1845,6.1975,6.2216,6.255,6.2617,6.2885,6.307,6.3052,6.2792,6.2773,6.2959,6.229,6.1986,6.167,6.112,6.0505,6.0061,5.9885,5.9775,5.9726,5.9681,5.9534,5.9405,5.9455,5.9432,5.9348,5.9116,5.9171,5.9355,6.0126,6.0805,6.1117,6.1398,6.1796,6.2126,6.2199,6.2254,6.2493,6.2756,6.2793,6.2811,6.2811,6.2811,6.2738,6.2218,6.1704,6.1777,6.1759,6.1777,6.2126,6.2346,6.2493,6.2622,6.2811,6.2811,6.2811,6.2748,6.2603,6.2436,6.2336,6.2243,6.219,6.2136,6.2073,6.201,6.201,6.201,5.8129,5.8294,5.8186,5.8133,5.8152,5.8042,5.7978,5.7978,5.7978,5.7978,5.7978,5.7978,5.7978,5.7978,5.7978,5.7978,5.7978,5.7978,5.7978,5.7978,5.7978,5.7978,5.799,5.799,5.799,5.799,5.8212,5.8342,5.844,5.8558,5.8656,5.8706,5.9022,5.904,5.9245,5.9765,6.0229,6.0266,6.0749,6.1009,6.1057,6.1076,6.1094,6.1176,6.1362,6.1492,6.1614,6.2253,6.268,6.281,6.3126,6.3349,6.3423,6.3423,6.3479,6.3479,6.3349,6.3386,6.3349,6.2996,6.2662,6.2216,6.1663,6.0933,6.0885,6.0959,6.0839,6.043,6.039,6.0356,6.0406,6.0309,6.0199,6.0144,6.0187,6.0334,6.0529,6.0988,6.13,6.1447,6.1796,6.2371,6.2627,6.2701,6.2756,6.2774,6.2811,6.2811,6.2811,6.2811,6.2811,6.2774,6.2218,6.1869,6.2199,6.2297,6.2407,6.2481,6.2701,6.2811,6.2811,6.2811,6.2811,6.2811,6.2811,6.2692,6.2513,6.237,6.2243,6.2154,6.2073,6.2051,6.201,6.201,6.201,5.8008,5.802,5.8001,5.8001,5.8001,5.799,5.7978,5.7978,5.7978,5.7978,5.7978,5.7978,5.7978,5.7978,5.7978,5.7978,5.7978,5.7978,5.7978,5.7978,5.7978,5.7978,5.7978,5.7978,5.799,5.802,5.8174,5.8286,5.8386,5.8486,5.8604,5.8759,5.93,5.9653,6.0043,6.0545,6.1168,6.1243,6.1521,6.1473,6.1455,6.1436,6.1428,6.151,6.1938,6.2328,6.2365,6.2996,6.3368,6.3368,6.3516,6.359,6.359,6.359,6.359,6.359,6.359,6.359,6.3498,6.3442,6.3126,6.2398,6.1797,6.1389,6.1385,6.0932,6.0706,6.088,6.0981,6.0767,6.0621,6.0444,6.0793,6.0884,6.1031,6.0994,6.1141,6.141,6.1704,6.1777,6.2126,6.2627,6.2811,6.2811,6.2811,6.2811,6.2811,6.2811,6.2811,6.2811,6.2811,6.2646,6.2071,6.1979,6.2499,6.2536,6.2218,6.2426,6.2756,6.2811,6.2811,6.2811,6.2811,6.2798,6.2786,6.2692,6.259,6.2415,6.223,6.2087,6.201,6.201,6.201,6.201,6.201,5.7978,5.7978,5.7978,5.7978,5.7978,5.7978,5.7978,5.7978,5.7978,5.7978,5.7978,5.7978,5.7978,5.7978,5.7978,5.7978,5.7978,5.7978,5.7978,5.7978,5.7978,5.8008,5.8008,5.8033,5.799,5.8068,5.8141,5.8264,5.8386,5.8465,5.8582,5.8916,5.9598,5.9783,6.0266,6.1261,6.2068,6.2543,6.2617,6.2643,6.2662,6.268,6.2692,6.2718,6.2848,6.3126,6.3182,6.3405,6.3553,6.359,6.359,6.359,6.359,6.359,6.359,6.359,6.359,6.359,6.359,6.359,6.3423,6.3275,6.2803,6.2446,6.2209,6.2187,6.2094,6.2034,6.182,6.1667,6.1838,6.1875,6.1967,6.1893,6.1802,6.171,6.1783,6.2016,6.2126,6.2218,6.242,6.2756,6.2811,6.2811,6.2811,6.2811,6.2811,6.2811,6.2811,6.2811,6.2811,6.2719,6.2199,6.2108,6.2609,6.2346,6.1961,6.2365,6.2811,6.2811,6.2811,6.2811,6.2811,6.2798,6.2736,6.2616,6.25,6.2376,6.2248,6.2114,6.2051,6.201,6.201,6.201,6.201,5.7776,5.7978,5.7978,5.7978,5.7978,5.7978,5.7978,5.7978,5.7978,5.7978,5.7978,5.7978,5.7978,5.7978,5.7978,5.7978,5.7978,5.7978,5.7978,5.8088,5.8235,5.8327,5.8364,5.8382,5.8474,5.835,5.8143,5.8208,5.8393,5.8451,5.8773,5.924,5.982,6.0248,6.0712,6.1863,6.3052,6.346,6.359,6.359,6.3535,6.3516,6.3516,6.3479,6.3498,6.3516,6.3498,6.3572,6.3572,6.359,6.359,6.359,6.359,6.359,6.359,6.359,6.359,6.359,6.359,6.359,6.359,6.3479,6.3434,6.3271,6.326,6.3165,6.2781,6.2695,6.2732,6.2811,6.2811,6.2609,6.2536,6.2389,6.2426,6.2371,6.2407,6.2554,6.2609,6.2683,6.2811,6.2811,6.2811,6.2811,6.2798,6.2798,6.2811,6.2811,6.2811,6.2811,6.2811,6.2683,6.2407,6.2499,6.2664,6.2481,6.2346,6.2475,6.2811,6.2811,6.2811,6.2829,6.2792,6.2705,6.2641,6.2539,6.2436,6.2336,6.223,6.2136,6.2073,6.201,6.201,6.201,6.201,5.7299,5.796,5.7978,5.7978,5.7978,5.7978,5.7978,5.7978,5.7978,5.7978,5.7997,5.8052,5.8107,5.8125,5.8272,5.8327,5.818,5.8143,5.807,5.8143,5.8455,5.8921,5.8994,5.8921,5.8811,5.8902,5.8619,5.8366,5.8401,5.8382,5.8864,5.979,6.0498,6.121,6.1343,6.2736,6.3516,6.359,6.359,6.359,6.359,6.359,6.359,6.359,6.359,6.359,6.359,6.359,6.359,6.359,6.359,6.359,6.359,6.359,6.359,6.359,6.359,6.359,6.359,6.359,6.359,6.359,6.3534,6.34,6.3237,6.3117,6.3008,6.2867,6.2805,6.2811,6.2811,6.2811,6.2811,6.2811,6.2811,6.2811,6.2811,6.2811,6.2811,6.2811,6.2811,6.2811,6.2811,6.2798,6.2786,6.2786,6.2811,6.2811,6.2811,6.2811,6.2811,6.2738,6.2572,6.2646,6.2738,6.2774,6.2738,6.2811,6.2811,6.2811,6.2903,6.3031,6.2926,6.2722,6.2768,6.2894,6.2605,6.2296,6.219,6.2087,6.2046,6.201,6.201,6.201,6.201,5.6957,5.7244,5.7776,5.7978,5.7978,5.7978,5.7978,5.7978,5.7978,5.7978,5.8125,5.8499,5.8792,5.8902,5.9196,5.9208,5.8829,5.8774,5.8664,5.8125,5.8529,5.8345,5.8602,5.9068,5.8976,5.8627,5.8449,5.8488,5.8271,5.8275,5.8821,5.9756,6.1118,6.2071,6.2691,6.346,6.359,6.359,6.359,6.359,6.359,6.359,6.359,6.359,6.359,6.359,6.359,6.359,6.359,6.359,6.359,6.359,6.359,6.359,6.359,6.359,6.359,6.359,6.359,6.359,6.359,6.3579,6.3545,6.3447,6.3324,6.3213,6.3075,6.2953,6.2867,6.2861,6.2811,6.2811,6.2811,6.2811,6.2811,6.2811,6.2811,6.2811,6.2811,6.2811,6.2811,6.2798,6.2817,6.2698,6.266,6.2647,6.2647,6.273,6.2755,6.2798,6.2811,6.2811,6.2738,6.2774,6.2811,6.2811,6.2811,6.2811,6.2811,6.2811,6.2939,6.3172,6.3153,6.3016,6.3167,6.3285,6.2733,6.227,6.2128,6.2037,6.2023,6.201,6.201,6.201,6.201,5.6547,5.6884,5.7666,5.7978,5.7978,5.7978,5.7978,5.7978,5.7978,5.7978,5.8107,5.8554,5.8939,5.9251,5.9636,6.0095,5.9581,5.96,5.9508,5.8896,5.922,5.9293,5.9355,5.9428,5.9471,5.8902,5.8767,5.8881,5.8245,5.8208,5.895,6.0191,6.1576,6.2621,6.3291,6.3485,6.3545,6.3568,6.359,6.359,6.359,6.359,6.359,6.359,6.359,6.359,6.359,6.359,6.359,6.359,6.359,6.359,6.359,6.359,6.359,6.359,6.359,6.359,6.359,6.359,6.359,6.359,6.359,6.3534,6.3424,6.3301,6.3213,6.3087,6.2984,6.2904,6.2867,6.2867,6.2916,6.2934,6.2939,6.2939,6.3013,6.3013,6.3117,6.308,6.305,6.3,6.2741,6.2609,6.2488,6.248,6.2467,6.2539,6.2641,6.2692,6.2736,6.2748,6.2786,6.278,6.2798,6.2811,6.2811,6.2811,6.2903,6.305,6.3068,6.3301,6.3312,6.336,6.3529,6.3439,6.2688,6.2248,6.2105,6.2023,6.2023,6.201,6.201,6.201,6.201,5.6014,5.6829,5.7629,5.796,5.7978,5.7978,5.7978,5.7978,5.7978,5.7978,5.7997,5.8107,5.8609,5.9159,5.9361,5.9783,6.0279,6.0346,6.015,6.0291,6.0364,6.0364,6.0401,6.0658,6.0022,5.9471,5.9123,5.8857,5.8266,5.8623,5.9465,6.0651,6.2115,6.2941,6.3294,6.34,6.3477,6.3557,6.359,6.359,6.359,6.359,6.359,6.359,6.359,6.359,6.359,6.359,6.359,6.359,6.359,6.359,6.359,6.359,6.359,6.359,6.359,6.359,6.359,6.359,6.359,6.359,6.359,6.3522,6.3447,6.34,6.3319,6.3237,6.3141,6.3063,6.2996,6.3076,6.3137,6.3161,6.3172,6.3233,6.3325,6.3411,6.3521,6.3527,6.3532,6.3317,6.2687,6.2449,6.214,6.1906,6.1833,6.1846,6.2023,6.2469,6.2526,6.2647,6.2685,6.2743,6.2792,6.2877,6.3147,6.3257,6.3417,6.3527,6.3521,6.3618,6.3936,6.4088,6.4002,6.3593,6.2701,6.2253,6.2064,6.201,6.201,6.201,6.201,6.201,6.201,5.5225,5.6025,5.6804,5.7464,5.7941,5.7978,5.7978,5.7978,5.7978,5.7978,5.8015,5.8591,5.8884,5.9288,6.0382,6.0548,6.0713,6.075,6.0291,6.0382,6.0658,6.0199,6.0199,6.0462,6.0022,5.9563,5.9123,5.8944,5.8557,5.8954,5.9781,6.068,6.2217,6.2897,6.3183,6.326,6.34,6.3534,6.3579,6.359,6.359,6.359,6.359,6.359,6.359,6.359,6.359,6.359,6.359,6.359,6.359,6.359,6.359,6.359,6.359,6.359,6.359,6.359,6.359,6.359,6.359,6.359,6.359,6.3609,6.3534,6.3458,6.34,6.3342,6.3413,6.3416,6.3492,6.3597,6.3695,6.381,6.3906,6.4132,6.4242,6.4402,6.4475,6.4169,6.4143,6.3298,6.2668,6.2014,6.168,6.1365,6.1177,6.1163,6.1379,6.1833,6.2176,6.2286,6.2454,6.2475,6.2865,6.3055,6.3438,6.374,6.3905,6.4083,6.4182,6.4371,6.4725,6.4668,6.4304,6.3529,6.2592,6.2253,6.2023,6.201,6.201,6.201,6.201,6.201,6.201,5.4685,5.5207,5.5978,5.6785,5.7446,5.7538,5.7666,5.7941,5.7978,5.7978,5.8063,5.8474,5.8902,5.9306,6.0089,6.0456,6.0456,6.0731,6.0658,6.0786,6.0584,6.0621,6.0566,6.0664,6.0426,5.9838,5.938,5.938,5.9043,5.9924,6.0908,6.1037,6.2273,6.2782,6.3063,6.3201,6.3319,6.3447,6.3557,6.3579,6.359,6.359,6.359,6.359,6.359,6.359,6.359,6.359,6.359,6.359,6.359,6.359,6.359,6.359,6.359,6.359,6.359,6.359,6.359,6.359,6.359,6.3609,6.3609,6.359,6.3598,6.3534,6.3511,6.3477,6.3704,6.3881,6.4038,6.4193,6.4394,6.4593,6.491,6.5215,6.5398,6.5563,6.5325,6.4945,6.4278,6.3351,6.259,6.1865,6.121,6.084,6.0503,6.0315,6.0623,6.1119,6.1493,6.1722,6.1978,6.2145,6.2624,6.3126,6.3578,6.3999,6.442,6.461,6.4785,6.5099,6.5435,6.505,6.4438,6.362,6.2766,6.2286,6.201,6.201,6.201,6.201,6.201,6.201,6.201,5.4344,5.4491,5.5284,5.6073,5.6668,5.6723,5.7164,5.788,5.7843,5.7923,5.7978,5.7997,5.8437,5.8939,5.9435,5.9838,6.0077,6.0438,6.0841,6.1459,6.1355,6.1208,6.13,6.1967,6.0682,5.993,5.949,5.9288,5.9692,6.0511,6.1392,6.1649,6.2389,6.2892,6.3063,6.3165,6.3296,6.3477,6.3557,6.359,6.359,6.359,6.359,6.359,6.359,6.359,6.359,6.359,6.359,6.359,6.359,6.359,6.359,6.3795,6.3776,6.359,6.359,6.359,6.359,6.359,6.359,6.3628,6.3665,6.3683,6.3691,6.3616,6.3557,6.3928,6.4193,6.4465,6.4659,6.5164,6.5507,6.5612,6.5797,6.6054,6.6237,6.6256,6.598,6.5506,6.4757,6.3814,6.2798,6.2062,6.0981,6.046,5.9908,5.9632,5.978,6.0307,6.0724,6.1066,6.1246,6.1605,6.2378,6.2929,6.3612,6.4143,6.4807,6.5186,6.5398,6.5763,6.6164,6.5582,6.4927,6.3935,6.3109,6.2531,6.206,6.201,6.201,6.201,6.201,6.2028,6.2245,5.3849,5.4483,5.5386,5.5878,5.6025,5.6044,5.6485,5.7202,5.7131,5.7428,5.7923,5.7997,5.8088,5.8382,5.8921,5.9306,5.949,5.9887,6.0438,6.0896,6.1227,6.1374,6.0915,6.1251,6.0426,5.9453,5.8969,5.9245,5.9777,6.0786,6.163,6.1722,6.2401,6.2892,6.3099,6.3189,6.3296,6.35,6.3557,6.359,6.359,6.359,6.359,6.359,6.359,6.359,6.3609,6.3646,6.3609,6.359,6.359,6.359,6.3609,6.4185,6.4129,6.3739,6.359,6.359,6.359,6.3609,6.3646,6.3869,6.398,6.3943,6.385,6.3683,6.385,6.4322,6.474,6.5019,6.5447,6.6057,6.6547,6.6583,6.6628,6.6811,6.699,6.6793,6.6573,6.5985,6.5266,6.4257,6.3209,6.2081,6.0978,6.0126,5.9388,5.9013,5.8978,5.9321,5.9872,6.019,6.0393,6.0861,6.1775,6.2795,6.3513,6.4706,6.5626,6.5893,6.5983,6.6158,6.6311,6.6016,6.5429,6.4186,6.3151,6.2549,6.2191,6.206,6.201,6.201,6.2064,6.21,6.2462,5.3453,5.3933,5.4462,5.4941,5.5267,5.5315,5.5754,5.6363,5.639,5.6775,5.7483,5.7795,5.7978,5.799,5.851,5.8701,5.8774,5.9068,5.9795,6.0382,6.0805,6.1337,6.1153,6.097,6.0878,6.0144,5.9924,6.0107,6.0327,6.1325,6.2187,6.2175,6.2671,6.2923,6.3099,6.3189,6.3307,6.3481,6.3568,6.3609,6.359,6.359,6.359,6.359,6.359,6.3609,6.3758,6.3832,6.3888,6.3906,6.3943,6.4166,6.4259,6.4538,6.4315,6.385,6.359,6.359,6.3646,6.372,6.3869,6.4222,6.4445,6.4445,6.5016,6.4905,6.4489,6.4904,6.5167,6.5435,6.6149,6.678,6.7024,6.7128,6.7134,6.7231,6.7286,6.7194,6.7125,6.7,6.6048,6.4819,6.365,6.221,6.1143,6.0229,5.9426,5.9281,5.9085,5.8839,5.9252,5.9546,5.9898,6.0377,6.1252,6.2389,6.3477,6.4783,6.6155,6.6222,6.6108,6.6306,6.6371,6.5692,6.4927,6.3977,6.3056,6.2499,6.2191,6.2041,6.201,6.201,6.21,6.2317,6.2856,5.3086,5.3217,5.3342,5.3803,5.4494,5.455,5.4978,5.5575,5.5635,5.6092,5.6877,5.7556,5.785,5.8008,5.8008,5.8008,5.8088,5.8364,5.9098,5.9838,6.0187,6.0756,6.1306,6.1575,6.1153,6.1117,6.1098,6.1178,6.1385,6.2249,6.2708,6.2824,6.2886,6.2935,6.3051,6.3177,6.3331,6.3458,6.3545,6.359,6.359,6.359,6.359,6.359,6.3609,6.3646,6.3943,6.4185,6.4296,6.4649,6.4816,6.5002,6.5151,6.5281,6.4891,6.4519,6.4315,6.4259,6.4166,6.4259,6.4538,6.4816,6.4965,6.5343,6.5944,6.5892,6.5468,6.5465,6.5737,6.6099,6.6791,6.7164,6.7353,6.7323,6.7318,6.7313,6.7313,6.7308,6.7387,6.7465,6.6512,6.5254,6.3959,6.2517,6.1494,6.0548,6.0027,5.9961,5.9787,5.9527,5.9557,5.9672,5.9837,6.0359,6.0941,6.2006,6.326,6.4502,6.5687,6.5989,6.6225,6.6295,6.588,6.4823,6.4027,6.359,6.3006,6.2427,6.22,6.2028,6.201,6.2082,6.2494,6.2784,6.34,5.2601,5.3225,5.3388,5.36,5.3739,5.3739,5.4181,5.4801,5.4753,5.5438,5.6473,5.6914,5.7336,5.796,5.799,5.7978,5.7978,5.7997,5.8492,5.9288,5.9581,6.0169,6.0848,6.1447,6.0805,6.0951,6.1404,6.1673,6.1979,6.2622,6.3014,6.3093,6.3105,6.3177,6.3277,6.3366,6.34,6.3504,6.3557,6.359,6.359,6.359,6.359,6.359,6.359,6.4018,6.4426,6.4686,6.5132,6.5689,6.6191,6.6191,6.6172,6.6191,6.5968,6.5441,6.5225,6.5262,6.5206,6.5206,6.5503,6.5782,6.6005,6.6339,6.6682,6.6739,6.6476,6.6451,6.6659,6.6776,6.7248,6.7231,6.7314,6.6852,6.6666,6.664,6.6625,6.6728,6.6845,6.6812,6.6467,6.5337,6.4269,6.3103,6.2261,6.1344,6.0519,6.0427,6.042,6.0173,5.993,5.9995,6.0044,6.0317,6.094,6.1848,6.3031,6.4259,6.5255,6.5658,6.5949,6.6135,6.5568,6.4691,6.4076,6.3651,6.3043,6.2558,6.2205,6.2064,6.2028,6.2155,6.2639,6.3142,6.3663]}]]